     2.10           OBSERVATION DATA    G (GPS)             RINEX VERSION / TYPE
teqc 2005May6 SOPAC 20050707 00:15:49UTC                    PGM / RUN BY / DATE
Linux 2.4.20-8|Pentium IV|gcc|Linux|486/DX+                 COMMENT
BIT 2 OF LLI FLAGS DATA COLLECTED UNDER A/S CONDITION       COMMENT
SHELDON                                                     MARKER NAME
SHEL                                                        MARKER NUMBER
Jason Long                                                  OBSERVER / AGENCY
0220247382 TRIMBLE 5700 2.01                                REC # / TYPE / VERS
12237024 TRM41249.00 NONE                                   ANT # / TYPE
 -2590189.0000 -4275087.0000  3948480.0000                  APPROX POSITION XYZ
        2.0000        0.0000        0.0000                  ANTENNA: DELTA H/E/N
     1     1                                                WAVELENGTH FACT L1/2
     6    L1    L2    C1    P2    P1    D1                  # / TYPES OF OBSERV
    15.0000                                                 INTERVAL
Northern California Height Modernization 2004               COMMENT
                                                            COMMENT
SOPAC - Scripps Orbit and Permanent Array Center            COMMENT
IGPP - Institute of Geophysics and Planetary Physics        COMMENT
SIO - Scripps Institution of Oceanography                   COMMENT
UCSD - University of California, San Diego                  COMMENT
                                                            COMMENT
email: archive@gpsmail.ucsd.edu                             COMMENT
ftp://garner.ucsd.edu                                       COMMENT
http://sopac.ucsd.edu                                       COMMENT
                                                            COMMENT
                                                            COMMENT
Approximate Lat, Lon : 38.493, -121.211                     COMMENT
                                                            COMMENT
SNR is mapped to RINEX snr flag value [0-9]                 COMMENT
L1 & L2: 2-19 dBHz = 1, 20-27 dBHz = 2, 28-31 dBHz = 3      COMMENT
32-35 dBHz = 4, 36-38 dBHz = 5, 39-41 dBHz = 6              COMMENT
42-44 dBHz = 7, 45-48 dBHz = 8, >= 49 dBHz = 9              COMMENT
  2004     9     1    14    33    0.0000000     GPS         TIME OF FIRST OBS
                                                            END OF HEADER
 04  9  1 14 33  0.0000000  0  6G 3G14G15G18G19G22
   1641381.68058   1255544.42653  22931884.7814   22931882.0004

    419841.37559    317633.89556  20111189.6884   20111184.9304

   1379521.39159   1052317.26656  20660978.5004   20660975.2704

   1609178.24657   1227899.16852  23399366.5784   23399363.0554

    637513.38758    484320.77354  22088637.1414   22088631.6524

   1104922.14559    841225.66056  21258527.2504   21258521.5944

 04  9  1 14 33 15.0000000  0  6G 3G14G15G18G19G22
   1694846.95748   1297205.67643  22942058.9454   22942056.4844
     -3564.3524
    435545.66848    329871.00446  20114177.9144   20114173.6174
     -1046.9534
   1425419.56349   1088082.05146  20669712.6174   20669709.5314
     -3059.8784
   1660873.25846   1268180.95742  23409204.0784   23409200.1054
     -3446.3344
    660322.08248    502093.76645  22092977.6334   22092972.1524
     -1520.5804
   1140939.26649    869290.93446  21265380.9224   21265375.3204
     -2401.1414
 04  9  1 14 33 30.0000000  0  6G 3G14G15G18G19G22
   1748385.87148   1338924.27743  22952246.7584   22952244.3364
     -3569.2614
    451389.37148    342216.73846  20117192.8984   20117188.8164
     -1056.2474
   1471442.14549   1123943.78146  20678470.3444   20678467.0634
     -3068.1724
   1712600.85247   1308488.13342  23419047.1564   23419043.3954
     -3448.5064
    683282.65648    519985.10544  22097347.0944   22097341.3834
     -1530.7054
   1177010.37949    897398.28146  21272244.7974   21272239.6564
     -2404.7414
 04  9  1 14 33 45.0000000  0  6G 3G14G15G18G19G22
   1801975.62548   1380682.50443  22962444.7114   22962442.4144
     -3572.6504
    467349.95348    354653.55946  20120230.2734   20120225.7544
     -1064.0394
   1517566.74249   1159885.00046  20687247.4844   20687244.4454
     -3074.9734
   1764338.79747   1348803.39143  23428892.7814   23428888.9884
     -3449.1964
    706372.65248    537977.29344  22101740.6254   22101735.2544
     -1539.3334
   1213113.00849    925530.18846  21279115.0004   21279109.5944
     -2406.8424
 04  9  1 14 34  0.0000000  0  6G 3G14G15G18G19G22
   1855624.06648   1422486.43843  22972653.7894   22972650.8714
     -3576.5634
    483435.55948    367187.79346  20123291.0704   20123286.4884
     -1072.3744
   1563801.53149   1195912.09046  20696045.7584   20696042.7344
     -3082.3194
   1816095.12947   1389132.96942  23438741.2734   23438737.8404
     -3450.4224
    729600.16848    556076.64145  22106161.0394   22106155.4064
     -1548.5014
   1249255.51649    953693.17246  21285992.7974   21285987.4534
     -2409.5014
 04  9  1 14 34 15.0000000  0  6G 3G14G15G18G19G22
   1909333.90648   1464338.23043  22982874.2664   22982871.5634
     -3580.6564
    499649.26648    379821.83646  20126376.5314   20126372.2734
     -1080.9144
   1610149.35249   1232027.25846  20704865.4774   20704862.2734
     -3089.8554
   1867873.03546   1429479.35242  23448594.8754   23448591.0314
     -3451.8604
    752968.15648    574285.44544  22110607.6024   22110602.1094
     -1557.8664
   1285440.83649    981889.50846  21292878.8524   21292873.0124
     -2412.3554
 04  9  1 14 34 30.0000000  0  6G 3G14G15G18G19G22
   1963107.89548   1506240.01643  22993106.8674   22993104.5274
     -3584.9334
    515993.96549    392557.96146  20129486.8754   20129482.4924
     -1089.6474
   1656613.23849   1268232.86346  20713707.1644   20713704.1254
     -3097.5924
   1919675.48046   1469844.85242  23458451.8914   23458448.6374
     -3453.4964
    776479.65248    592606.07444  22115081.6564   22115076.1454
     -1567.4334
   1321672.04749   1010121.60946  21299773.3204   21299767.9104
     -2415.4144
 04  9  1 14 34 45.0000000  0  6G 3G14G15G18G19G22
   2016948.18848   1548193.46143  23003352.6484   23003349.7464
     -3589.3534
    532471.98849    405397.97346  20132622.5944   20132618.0864
     -1098.5354
   1703195.52349   1304530.71946  20722571.8054   20722568.3484
     -3105.4864
   1971504.90647   1510231.37542  23468315.3914   23468312.0554
     -3455.2954
    800136.85548    611040.24244  22119583.5944   22119578.1524
     -1577.1474
   1357951.63349   1038391.39846  21306677.1564   21306671.7854
     -2418.6394
 04  9  1 14 35  0.0000000  0  7G 3G11G14G15G18G19G22
   2070854.79747   1590198.58643  23013610.7424   23013608.2194
     -3593.7744
   -100863.00056    -70363.78552  23990048.5314   23990043.7624

    549083.68049    418342.14546  20135783.6024   20135779.1524
     -1107.4464
   1749896.47349   1340921.04746  20731458.6804   20731455.4144
     -3113.3974
   2023361.74646   1550639.30542  23478182.5784   23478179.4264
     -3457.1234
    823940.07448    629588.19144  22124112.6334   22124107.6024
     -1586.8814
   1394279.97349   1066699.18446  21313590.3364   21313584.6524
     -2421.8894
 04  9  1 14 35 15.0000000  0  7G 3G11G14G15G18G19G22
   2124827.28148   1632255.02343  23023881.2504   23023878.9804
     -3598.1664
   -134890.36346    -96878.57442  23983572.3444   23983568.4304
      2268.4914
    565828.87949    431390.35246  20138970.4614   20138965.9104
     -1116.3474
   1796716.00449   1377403.77346  20740367.9694   20740364.8404
     -3121.3024
   2075245.91846   1591068.44942  23488056.5864   23488052.8674
     -3458.9454
    847889.21548    648249.84445  22128670.5474   22128665.1604
     -1596.6094
   1430656.90249   1095044.82846  21320512.3674   21320506.6414
     -2425.1294
 04  9  1 14 35 30.0000000  0  7G 3G11G14G15G18G19G22
   2178865.05548   1674362.35943  23034164.5084   23034161.7974
     -3602.5184
   -168876.76246   -123361.48042  23977105.2344   23977100.8404
      2265.7604
    582707.09449    444542.19946  20142181.8754   20142177.6454
     -1125.2144
   1843653.67249   1413978.56346  20749299.9064   20749297.0314
     -3129.1784
   2127157.18847   1631518.76242  23497934.5944   23497931.2304
     -3460.7514
    871983.80548    667024.82445  22133255.6644   22133250.1484
     -1606.3064
   1467082.19549   1123428.16846  21327443.9924   21327438.0984
     -2428.3534
 04  9  1 14 35 45.0000000  0  7G 3G11G14G15G18G19G22
   2232968.51648   1716520.87143  23044460.0394   23044457.6804
     -3606.8974
   -202821.24247   -149811.74242  23970646.1804   23970641.3634
      2262.9654
    599718.90249    457798.14847  20145419.0234   20145415.0394
     -1134.1214
   1890710.10249   1450645.89146  20758254.5704   20758251.5864
     -3137.0954
   2179096.13746   1671990.63342  23507818.4774   23507814.7664
     -3462.5974
    896224.38748    685913.58245  22137868.2274   22137863.0314
     -1616.0394
   1503556.53949   1151849.71546  21334384.9384   21334379.1294
     -2431.6234
 04  9  1 14 36  0.0000000  0  7G 3G11G14G15G18G19G22
   2287137.82848   1758730.69543  23054768.2194   23054765.3984
     -3611.2874
   -236722.93747   -176228.64142  23964194.6884   23964190.1484
      2260.1134
    616864.82449    471158.59447  20148682.2344   20148677.5314
     -1143.0614
   1937885.72749   1487406.10246  20767231.8204   20767228.8484
     -3145.0424
   2231063.41846   1712484.55942  23517707.6334   23517704.0164
     -3464.4854
    920611.45748    704916.47345  22142509.0164   22142503.5984
     -1625.8054
   1540080.44549   1180309.89146  21341335.2114   21341329.5204
     -2434.9274
 04  9  1 14 36 15.0000000  0  7G 3G11G14G15G18G19G22
   2341371.27047   1800990.48843  23065088.3674   23065085.6024
     -3615.5634
   -270582.88347   -202613.03542  23957751.6644   23957747.0904
      2257.3304
    634143.44149    484622.44546  20151969.8054   20151965.5984
     -1151.9084
   1985179.13749   1524258.07846  20776231.3754   20776228.4024
     -3152.8944
   2283057.73846   1752999.59842  23527601.3914   23527598.9614
     -3466.2884
    945143.46948    724032.30944  22147177.5634   22147172.1334
     -1635.4674
   1576652.55549   1208807.62546  21348294.5634   21348288.9344
     -2438.1414
 04  9  1 14 36 30.0000000  0  7G 3G11G14G15G18G19G22
   2395669.25047   1843300.57043  23075420.9534   23075418.4694
     -3619.8654
   -304400.08247   -228964.12142  23951316.1334   23951311.9654
      2254.4804
    651555.30149    498190.12946  20155283.4844   20155278.7624
     -1160.7914
   2032590.93049   1561202.31346  20785253.3444   20785250.5084
     -3160.7864
   2335079.75047   1793536.18442  23537501.0474   23537498.0784
     -3468.1344
    969821.15648    743261.66844  22151873.5394   22151867.9224
     -1645.1794
   1613273.53949   1237343.44946  21355263.2344   21355258.0394
     -2441.3994
 04  9  1 14 36 45.0000000  0  7G 3G11G14G15G18G19G22
   2450031.35547   1885660.63343  23085766.2034   23085763.2234
     -3624.1404
   -338174.35547   -255281.74242  23944889.3524   23944885.3404
      2251.6184
    669100.24649    511861.50846  20158622.1954   20158617.6914
     -1169.6634
   2080120.96149   1598238.67646  20794298.0004   20794294.7624
     -3168.6694
   2387129.45345   1834094.35542  23547405.6484   23547403.2774
     -3469.9804
    994644.30948    762604.36345  22156597.4224   22156591.5004
     -1654.8774
   1649943.48049   1265917.41046  21362241.5784   21362235.9654
     -2444.6634
 04  9  1 14 37  0.0000000  0  7G 3G11G14G15G18G19G22
   2504456.57047   1928069.85943  23096122.8674   23096119.2854
     -3628.3484
   -371906.14147   -281566.23842  23938470.0704   23938466.2154
      2248.7864
    686777.45349    525635.94947  20161985.4144   20161981.4614
     -1178.4804
   2127768.49249   1635366.60246  20803365.5004   20803362.1804
     -3176.5024
   2439206.11346   1874673.52742  23557315.9844   23557312.8134
     -3471.7774
   1019612.01648    782059.69944  22161348.2274   22161342.9804
     -1664.5144
   1686661.59449   1294528.91446  21369228.5084   21369223.0784
     -2447.8744
 04  9  1 14 37 15.0000000  0  7G 3G11G14G15G18G19G22
   2558945.83247   1970529.00843  23106491.4694   23106488.5744
     -3632.6174
   -405593.90647   -307816.45742  23932059.9224   23932055.3134
      2245.8514
    704588.00849    539514.29746  20165375.2814   20165370.6524
     -1187.3704
   2175534.55149   1672586.89146  20812454.7734   20812451.6174
     -3184.4044
   2491310.99645   1915274.70742  23567231.0704   23567227.8984
     -3473.6594
   1044725.38348    801628.54345  22166127.2114   22166121.7734
     -1674.2244
   1723429.04749   1323178.87146  21376225.4534   21376219.7504
     -2451.1644
 04  9  1 14 37 30.0000000  0  7G 3G11G14G15G18G19G22
   2613497.77347   2013036.98043  23116872.5864   23116869.8284
     -3636.7964
   -439238.12147   -334032.73442  23925657.5314   23925653.2274
      2242.9484
    722530.92649    553495.79346  20168789.4454   20168785.1764
     -1196.1954
   2223418.11349   1709898.73046  20821566.9384   20821563.7814
     -3192.2374
   2543443.12146   1955897.10242  23577151.2274   23577148.4804
     -3475.4754
   1069983.35948    821310.05544  22170933.8524   22170928.2894
     -1683.8654
   1760244.90249   1351866.53946  21383231.3364   21383225.8984
     -2454.3904
 04  9  1 14 37 45.0000000  0  7G 3G11G14G15G18G19G22
   2668111.55947   2055593.14543  23127265.0864   23127262.4964
     -3640.9194
   -472839.13347   -360215.36342  23919263.6804   23919258.9064
      2240.0674
    740605.58249    567579.93446  20172228.8364   20172224.5594
     -1204.9774
   2271418.55149   1747301.64146  20830700.9844   20830697.9774
     -3200.0294
   2595601.89545   1996540.24242  23587076.7424   23587073.7974
     -3477.2524
   1095385.34848    841103.79344  22175767.6724   22175761.9844
     -1693.4664
   1797108.67249   1380591.53946  21390245.8444   21390240.5784
     -2457.5854
 04  9  1 14 38  0.0000000  0  7G 3G11G14G15G18G19G22
   2722786.85547   2098197.24643  23137669.7734   23137667.0204
     -3645.0204
   -506396.80147   -386364.25842  23912877.8914   23912872.5124
      2237.1784
    758811.72748    581766.53947  20175693.6024   20175689.2504
     -1213.7434
   2319535.74249   1784795.53946  20839857.3834   20839854.4024
     -3207.8134
   2647787.31346   2037204.17242  23597007.3054   23597004.4924
     -3479.0284
   1120931.07048    861009.53945  22180628.8204   22180623.1954
     -1703.0484
   1834020.33649   1409353.85946  21397270.1024   21397264.8794
     -2460.7784
 04  9  1 14 38 15.0000000  0  7G 3G11G14G15G18G19G22
   2777523.50047   2140849.15643  23148085.7814   23148082.9924
     -3649.1104
   -539910.59846   -412478.91842  23906500.4774   23906495.2074
      2234.2534
    777149.43448    596055.65246  20179182.9534   20179178.7344
     -1222.5144
   2367769.70349   1822380.42246  20849036.1024   20849032.9144
     -3215.5974
   2699999.57846   2077889.01242  23606943.2424   23606939.9414
     -3480.8184
   1146620.60548    881027.33244  22185517.4924   22185511.4144
     -1712.6364
   1870979.89849   1438153.50446  21404303.4384   21404297.7544
     -2463.9714
 04  9  1 14 38 30.0000000  0  7G 3G11G14G15G18G19G22
   2832321.35547   2183548.75043  23158513.2504   23158510.8404
     -3653.1904
   -573379.87947   -438558.89842  23900131.3834   23900126.2464
      2231.2854
    795618.91848    610447.45347  20182697.7814   20182693.3404
     -1231.2994
   2416120.68449   1860056.49246  20858236.8524   20858234.1914
     -3223.3994
   2752238.88746   2118594.91842  23616884.1024   23616880.9804
     -3482.6214
   1172454.09048    901157.30945  22190433.2894   22190427.5234
     -1722.2324
   1907987.74649   1466990.77746  21411345.7664   21411340.3794
     -2467.1904
 04  9  1 14 38 45.0000000  0  7G 3G11G14G15G18G19G22
   2887179.97348   2226295.68843  23168952.3914   23168950.0554
     -3657.2414
   -606804.53946   -464604.10942  23893770.2034   23893765.9344
      2228.3114
    814219.90648    624941.72746  20186237.4144   20186233.0944
     -1240.0664
   2464588.43849   1897823.55546  20867460.1644   20867457.0824
     -3231.1844
   2804505.15646   2159321.82042  23626830.2194   23626826.1884
     -3484.4184
   1198431.17248    921399.16845  22195376.4844   22195371.0634
     -1731.8054
   1945043.72349   1495865.55546  21418397.1414   21418391.8094
     -2470.3984
 04  9  1 14 39  0.0000000  0  8G 3G11G14G15G18G19G25G22
   2942097.59848   2269088.61343  23179402.9454   23179400.7854
     -3661.1754
   -640185.49247   -490615.22342  23887418.0784   23887414.2114
      2225.3974
    832950.87948    639537.28146  20189801.6174   20189797.4064
     -1248.7324
   2513171.40249   1935680.38346  20876704.9224   20876702.1414
     -3238.8644
   2856797.13346   2200068.79742  23636781.3134   23636777.2074
     -3486.1324
   1224550.39148    941751.79344  22200347.1484   22200341.3324
     -1741.2814
   -107183.46156    -79567.68452  23897544.4454   23897542.5984

   1982146.51649   1524776.80545  21425457.6024   21425451.8874
     -2473.5204
 04  9  1 14 39 15.0000000  0  8G 3G11G14G15G18G19G25G22
   2997072.86748   2311926.45343  23189864.8674   23189861.6684
     -3665.0184
   -673523.73447   -516593.08642  23881074.7814   23881069.5164
      2222.5494
    851810.66849    654233.21546  20193390.8204   20193386.5434
     -1257.3194
   2561868.49249   1973626.14146  20885972.2274   20885969.1484
     -3246.4734
   2909113.64846   2240834.89842  23646736.3204   23646732.9064
     -3487.7684
   1250810.63348    962214.30544  22205344.1954   22205338.4454
     -1750.6834
   -143201.02346   -107633.33242  23890690.2584   23890689.0594
      2401.1714
   2019294.99649   1553723.65245  21432526.9384   21432521.2074
     -2476.5654
 04  9  1 14 39 30.0000000  0  8G 3G11G14G15G18G19G25G22
   3052103.78147   2354807.66843  23200336.3914   23200334.0904
     -3668.7284
   -706820.50447   -542538.61742  23874738.1334   23874733.9804
      2219.7854
    870797.53149    669028.16446  20197003.8914   20196999.4884
     -1265.7914
   2610677.94149   2011659.46146  20895260.3054   20895257.3484
     -3253.9634
   2961453.13746   2281618.88742  23656696.3524   23656692.8164
     -3489.2994
   1277210.01248    982785.23044  22210368.1254   22210362.3754
     -1759.9594
   -179205.23446   -135688.55142  23883839.3754   23883837.3914
      2400.2814
   2056487.60949   1582704.91046  21439604.4454   21439598.6954
     -2479.5084
 04  9  1 14 39 45.0000000  0  8G 3G11G14G15G18G19G25G22
   3107189.85547   2397731.84043  23210819.1644   23210816.4184
     -3672.4054
   -740075.64147   -568451.71942  23868410.3134   23868405.7934
      2217.0094
    889911.14848    683921.89146  20200641.0004   20200636.7624
     -1274.2414
   2659599.53949   2049780.16446  20904569.2894   20904566.5864
     -3261.4404
   3013815.35946   2322420.58642  23666660.3204   23666656.4494
     -3490.8154
   1303748.33648   1003464.43044  22215417.7664   22215412.0984
     -1769.2224
   -215195.77746   -163733.12942  23876990.2504   23876988.1174
      2399.3704
   2093724.13349   1611720.36346  21446690.2114   21446684.6644
     -2482.4354
 04  9  1 14 40  0.0000000  0  8G 3G11G14G15G18G19G25G22
   3162331.75047   2440699.53543  23221312.2974   23221309.8834
     -3676.1264
   -773287.96946   -594331.44542  23862089.8134   23862085.5984
      2214.1554
    909152.37148    698915.04746  20204302.5554   20204298.1764
     -1282.7484
   2708634.23049   2087988.98846  20913900.6564   20913897.4024
     -3268.9794
   3066201.46147   2363240.90242  23676628.9534   23676624.9414
     -3492.4074
   1330426.44149   1024252.55144  22220494.5004   22220489.0044
     -1778.5404
   -251171.12147   -191765.86342  23870144.3204   23870142.1644
      2398.3564
   2131005.58249   1640770.83246  21453784.8134   21453779.0394
     -2485.4304
 04  9  1 14 40 15.0000000  0  8G 3G11G14G15G18G19G25G22
   3217529.11347   2483710.41443  23231816.0864   23231813.5084
     -3679.8244
   -806457.11747   -620177.53942  23855778.2194   23855773.6254
      2211.2774
    928521.12548    714007.57446  20207988.1024   20207983.6994
     -1291.2504
   2757781.66049   2126285.67646  20923253.1954   20923250.0704
     -3276.4954
   3118611.32047   2404079.71542  23686603.2274   23686598.3834
     -3493.9914
   1357244.02348   1045149.34844  22225598.0084   22225592.1294
     -1787.8394
   -287131.07846   -219786.60242  23863301.0634   23863299.0864
      2397.3304
   2168331.80149   1669856.18846  21460887.4924   21460881.8484
     -2488.4154
 04  9  1 14 40 30.0000000  0  8G 3G11G14G15G18G19G25G22
   3272782.29348   2526764.82043  23242329.9144   23242327.9774
     -3683.5454
   -839582.06247   -645989.18742  23849474.3914   23849470.0164
      2208.3304
    948018.13348    729200.04746  20211698.4844   20211694.0474
     -1299.8014
   2807042.57449   2164670.77046  20932627.0314   20932624.1054
     -3284.0614
   3171045.63346   2444937.59042  23696580.8444   23696575.8954
     -3495.6214
   1384201.71948   1066155.32044  22230727.7424   22230722.2734
     -1797.1804
   -323074.45746   -247794.44142  23856461.8594   23856459.2074
      2396.2254
   2205703.60949   1698977.05945  21467999.0474   21467993.7384
     -2491.4544
 04  9  1 14 40 45.0000000  0  8G 3G11G14G15G18G19G25G22
   3328088.53548   2569860.56643  23252855.4304   23252852.3094
     -3687.0834
   -872665.00847   -671768.10542  23843179.4924   23843174.8054
      2205.5304
    967640.61748    744490.28946  20215432.1254   20215428.0824
     -1308.1664
   2856414.34849   2203142.26246  20942022.4144   20942019.4454
     -3291.4524
   3223502.08646   2485812.71542  23706562.9774   23706558.9534
     -3497.0974
   1411296.94548   1087268.48044  22235883.2274   22235878.2584
     -1806.3484
   -359003.48047   -275791.08242  23849624.8364   23849621.8954
      2395.2684
   2243118.59849   1728131.58646  21475119.0634   21475113.6914
     -2494.3334
 04  9  1 14 41  0.0000000  0  8G 3G11G14G15G18G19G25G22
   3383449.16048   2612998.68043  23263389.6414   23263387.1414
     -3690.7084
   -905703.90647   -697512.71142  23836892.1644   23836888.2774
      2202.5934
    987390.14848    759879.52347  20219190.5004   20219186.4574
     -1316.6354
   2905898.50849   2241701.32446  20951438.7194   20951435.7274
     -3298.9444
   3275982.27346   2526706.34042  23716549.7734   23716545.5234
     -3498.6794
   1438531.25448   1108489.99644  22241066.3054   22241060.6604
     -1815.6214
   -394915.94147   -303774.81642  23842790.0944   23842787.8984
      2394.1644
   2280578.41049   1757321.03946  21482247.5394   21482242.0164
     -2497.3214
 04  9  1 14 41 15.0000000  0  8G 3G11G14G15G18G19G25G22
   3438863.91848   2656178.98443  23273934.9534   23273932.0204
     -3694.3174
   -938698.39847   -723222.69542  23830613.4924   23830609.2114
      2199.6334
   1007266.68848    775367.73446  20222973.1024   20222968.8834
     -1325.1034
   2955494.96149   2280347.88746  20960876.9384   20960873.5314
     -3306.4304
   3328486.26247   2567618.48842  23726540.7424   23726537.0784
     -3500.2664
   1465904.50048   1129819.78144  22246275.1884   22246269.4844
     -1824.8834
   -430811.45347   -331745.36342  23835960.3364   23835957.0514
      2393.0344
   2318083.05149   1786545.41446  21489384.4224   21489378.9184
     -2500.3094
 04  9  1 14 41 30.0000000  0  8G 3G11G14G15G18G19G25G22
   3494332.57048   2699401.27043  23284489.8984   23284487.8914
     -3697.9104
   -971648.02747   -748897.72742  23824343.7734   23824339.0744
      2196.6424
   1027270.23848    790954.91046  20226779.5634   20226774.7814
     -1333.5704
   3005203.92249   2319082.11746  20970336.1564   20970333.4384
     -3313.9314
   3381014.17247   2608549.31342  23736536.6254   23736533.0704
     -3501.8614
   1493416.75848   1151257.88744  22251510.5004   22251504.9104
     -1834.1514
   -466689.53947   -359702.33642  23829132.7814   23829130.0044
      2391.8724
   2355632.69549   1815804.86746  21496529.8914   21496524.0124
     -2503.3104
 04  9  1 14 41 45.0000000  0  8G 3G11G14G15G18G19G25G22
   3549855.26648   2742665.68043  23295055.6094   23295053.3874
     -3701.5134
  -1004552.09847   -774537.26642  23818082.3834   23818077.7974
      2193.6054
   1047401.10548    806641.30146  20230610.4064   20230605.8364
     -1342.0584
   3055025.76249   2357904.31646  20979816.9064   20979814.0274
     -3321.4564
   3433566.46547   2649499.09842  23746537.2894   23746533.2814
     -3503.4864
   1521068.32848   1172804.53945  22256772.6644   22256767.0124
     -1843.4384
   -502549.21947   -387644.95342  23822309.1024   23822306.1174
      2390.6454
   2393227.82849   1845099.77346  21503683.8984   21503678.0784
     -2506.3424
 04  9  1 14 42  0.0000000  0  8G 3G11G14G15G18G19G25G22
   3605431.26248   2785971.62943  23305631.3594   23305628.9144
     -3705.0664
  -1037410.69147   -800141.37542  23811829.5084   23811824.1484
      2190.5734
   1067658.89148    822426.57846  20234465.3914   20234461.0234
     -1350.5194
   3104959.89849   2396814.01646  20989318.9924   20989316.0394
     -3328.9424
   3486142.79346   2690467.59442  23756542.2194   23756538.3874
     -3505.0894
   1548858.62948   1194459.30545  22262060.7734   22262055.4494
     -1852.6874
   -538390.61747   -415573.33642  23815488.7664   23815485.7154
      2389.4274
   2430868.09049   1874429.82846  21510846.8054   21510840.9774
     -2509.3514
 04  9  1 14 42 15.0000000  0  8G 3G11G14G15G18G19G25G22
   3661059.59848   2829318.35943  23316217.5704   23316214.7814
     -3708.5564
  -1070224.19547   -825710.35942  23805585.2814   23805580.5944
      2187.5674
   1088042.72749    838310.08647  20238344.3754   20238340.0234
     -1358.9224
   3155005.58649   2435810.62946  20998842.2734   20998839.7074
     -3336.3794
   3538742.57847   2731454.41442  23766551.4774   23766547.9884
     -3506.6524
   1576786.92248   1216221.59844  22267375.4534   22267370.0124
     -1861.8864
   -574214.06247   -443487.71542  23808671.9534   23808669.3554
      2388.2304
   2468552.71949   1903794.46146  21518017.7504   21518012.0204
     -2512.3094
 04  9  1 14 42 30.0000000  0  8G 3G11G14G15G18G19G25G22
   3716739.35948   2872705.16043  23326812.9924   23326810.0204
     -3711.9844
  -1102992.69947   -851244.25042  23799348.9614   23799344.6644
      2184.5674
   1108551.92648    854291.27047  20242246.9614   20242242.4144
     -1367.2804
   3205162.07849   2474893.58246  21008386.8594   21008384.2464
     -3343.7664
   3591365.28947   2772459.09442  23776565.6484   23776561.6214
     -3508.1814
   1604852.39848   1238090.78145  22272716.1414   22272711.2034
     -1871.0324
   -610019.70747   -471388.24242  23801858.3594   23801855.8524
      2387.0434
   2506281.20349   1933193.26646  21525197.4534   21525192.0784
     -2515.2324
 04  9  1 14 42 45.0000000  0  8G 3G11G14G15G18G19G25G22
   3772471.18848   2916132.52743  23337418.5164   23337415.9454
     -3715.4554
  -1135715.21147   -876742.31242  23793122.6644   23793117.8834
      2181.5014
   1129187.30148    870370.78146  20246173.6174   20246169.4614
     -1375.6924
   3255430.20349   2514063.52346  21017952.5864   21017949.6484
     -3351.2084
   3644011.69147   2813482.23042  23786583.3134   23786580.2304
     -3509.7604
   1633055.85249   1260067.47745  22278083.2424   22278078.0824
     -1880.2304
   -645806.32447   -499273.93742  23795048.1804   23795045.6954
      2385.7744
   2544054.46549   1962626.96545  21532385.4454   21532380.2274
     -2518.2174
 04  9  1 14 43  0.0000000  0  8G 3G11G14G15G18G19G25G22
   3828254.34048   2959599.88743  23348033.9064   23348030.9774
     -3718.8774
  -1168391.68747   -902204.49242  23786904.1484   23786899.3954
      2178.4324
   1149948.39148    886548.24246  20250124.5164   20250119.8794
     -1384.0734
   3305809.55549   2553320.14146  21027539.5314   21027536.6844
     -3358.6234
   3696681.48847   2854523.57842  23796606.5394   23796602.6804
     -3511.3204
   1661396.71948   1282151.25045  22283476.1174   22283470.8484
     -1889.3914
   -681573.77347   -527144.67642  23788241.6644   23788239.9104
      2384.4974
   2581872.16849   1992095.30145  21539581.6724   21539576.1454
     -2521.1804
 04  9  1 14 43 15.0000000  0  8G 3G11G14G15G18G19G25G22
   3884088.55148   3003107.05943  23358658.4224   23358655.9494
     -3722.2814
  -1201021.75847   -927630.52742  23780695.0554   23780690.8324
      2175.3384
   1170835.16048    902823.64546  20254099.2664   20254094.4614
     -1392.4514
   3356300.06349   2592663.37146  21037147.3754   21037144.2584
     -3366.0344
   3749374.85547   2895583.30542  23806633.5704   23806630.0474
     -3512.8914
   1689874.89148   1304342.02045  22288895.2504   22288889.7934
     -1898.5454
   -717321.66047   -555000.17242  23781439.6724   23781437.3094
      2383.1924
   2619734.39549   2021598.32045  21546786.7584   21546780.8484
     -2524.1484
 04  9  1 14 43 30.0000000  0  8G 3G11G14G15G18G19G25G22
   3939972.17248   3046652.69943  23369292.9694   23369289.9534
     -3725.5754
  -1233606.47347   -953021.23842  23774494.3984   23774489.6414
      2172.3144
   1191845.92648    919195.66446  20258097.1254   20258093.0664
     -1400.7184
   3406900.16049   2632091.99246  21046776.5784   21046773.2194
     -3373.3404
   3802090.36746   2936660.29342  23816665.2894   23816661.9344
     -3514.3674
   1718488.96948   1326638.68844  22294340.6254   22294335.0084
     -1907.6054
   -753051.12947   -582841.35242  23774640.2114   23774638.3244
      2381.9654
   2657639.79349   2051134.97746  21553999.8914   21553994.1524
     -2527.0274
 04  9  1 14 43 45.0000000  0  8G 3G11G14G15G18G19G25G22
   3995905.68047   3090237.22343  23379936.2894   23379933.8874
     -3728.9014
  -1266144.51247   -978375.55142  23768302.6254   23768297.2774
      2169.2034
   1212981.66448    935665.06346  20262119.5234   20262115.0864
     -1409.0494
   3457610.74249   2671606.71545  21056426.6724   21056423.4064
     -3380.7054
   3854829.01646   2977755.31342  23826701.1804   23826697.4694
     -3515.9104
   1747239.68848   1349041.82445  22299811.7114   22299806.0514
     -1916.7154
   -788760.72747   -610667.00842  23767844.6644   23767842.7274
      2380.6404
   2695589.35249   2080706.05146  21561221.4694   21561216.2584
     -2529.9714
 04  9  1 14 44  0.0000000  0  8G 3G11G14G15G18G19G25G22
   4051887.39847   3133859.31343  23390589.4924   23390586.9224
     -3732.1154
  -1298636.98847  -1003694.36342  23762118.6724   23762114.3634
      2166.1654
   1234240.85248    952230.65646  20266165.1484   20266160.1024
     -1417.2794
   3508430.24649   2711206.29745  21066097.3674   21066094.1174
     -3387.9674
   3907589.48045   3018867.31342  23836740.9694   23836737.7154
     -3517.3644
   1776125.43048   1371550.18045  22305308.5784   22305302.9144
     -1925.7164
   -824451.46547   -638477.97342  23761053.2114   23761050.7194
      2379.3834
   2733581.60549   2110310.40246  21568451.2664   21568445.8714
     -2532.8174
 04  9  1 14 44 15.0000000  0  8G 3G11G14G15G18G19G25G22
   4107918.31347   3177519.73843  23401251.7504   23401249.6914
     -3735.3944
  -1331082.39147  -1028976.50442  23755944.8364   23755940.4734
      2163.0274
   1255624.63748    968893.33646  20270234.0164   20270229.5274
     -1425.5864
   3559359.87549   2750891.69546  21075788.5944   21075785.7034
     -3395.3094
   3960373.00846   3059997.27742  23846785.7664   23846781.7974
     -3518.9024
   1805147.38749   1394164.67245  22310831.1954   22310825.6524
     -1934.7974
   -860121.63747   -666272.91442  23754265.1484   23754263.4184
      2378.0114
   2771617.83249   2139949.00846  21575689.3054   21575683.7154
     -2535.7484
 04  9  1 14 44 30.0000000  0  8G 3G11G14G15G18G19G25G22
   4163998.24647   3221218.34843  23411923.7034   23411920.8754
     -3738.6624
  -1363480.03547  -1054221.43042  23749779.9844   23749775.2274
      2159.8434
   1277133.09048    985653.17246  20274326.7584   20274322.8484
     -1433.8974
   3610399.72349   2790662.98446  21085500.8984   21085498.1134
     -3402.6574
   4013179.82845   3101145.41442  23856833.4224   23856831.0514
     -3520.4554
   1834305.67248   1416885.39844  22316379.7814   22316374.2934
     -1943.8864
   -895770.72747   -694051.43042  23747480.9924   23747479.6374
      2376.6064
   2809698.32049   2169622.10246  21582935.7584   21582929.7194
     -2538.6994
 04  9  1 14 44 45.0000000  0  8G 3G11G14G15G18G19G25G22
   4220125.87947   3264954.14543  23422604.0004   23422602.1564
     -3741.8424
  -1395830.62147  -1079429.67642  23743623.6024   23743619.3404
      2156.7064
   1298765.07848   1002509.25846  20278443.3204   20278439.1214
     -1442.1334
   3661548.77749   2830519.36745  21095234.7504   21095231.8634
     -3409.9374
   4066008.90245   3142310.87942  23866886.6724   23866883.8874
     -3521.9384
   1863599.06649   1439711.40244  22321954.2974   22321948.7114
     -1952.8934
   -931399.23847   -721813.89842  23740701.6644   23740699.5824
      2375.2344
   2847822.10949   2199328.94545  21590190.4844   21590184.7194
     -2541.5864
 04  9  1 14 45  0.0000000  0  8G 3G11G14G15G18G19G25G22
   4276301.39547   3308727.25043  23433293.9924   23433291.8794
     -3745.0344
  -1428133.39147  -1104600.69142  23737476.4454   23737472.1684
      2153.5184
   1320520.94148   1019461.87546  20282583.4384   20282579.1414
     -1450.3914
   3712807.28148   2870461.03546  21104988.8204   21104985.8674
     -3417.2344
   4118860.83645   3183494.16842  23876943.8364   23876941.4574
     -3523.4624
   1893027.89848   1462642.94145  22327554.2734   22327548.9024
     -1961.9224
   -967006.30547   -749559.67642  23733925.4144   23733923.8714
      2373.8044
   2885989.57849   2229069.81646  21597453.3134   21597447.6844
     -2544.4984
 04  9  1 14 45 15.0000000  0  8G 3G11G14G15G18G19G25G22
   4332524.38748   3352537.33643  23443993.3914   23443990.7814
     -3748.1994
  -1460388.22747  -1129734.32442  23731338.5944   23731334.1954
      2150.3224
   1342400.41448   1036510.80946  20286746.8284   20286743.1054
     -1458.6324
   3764174.97749   2910487.78146  21114763.7034   21114760.9104
     -3424.5134
   4171735.57045   3224695.19142  23887006.2734   23887003.5474
     -3524.9824
   1922591.92648   1485679.82444  22333180.1884   22333175.0124
     -1970.9354
  -1002591.75047   -777288.59842  23727154.0704   23727152.6564
      2372.3634
   2924200.67249   2258844.68446  21604724.8444   21604719.5274
     -2547.4064
 04  9  1 14 45 30.0000000  0  8G 3G11G14G15G18G19G25G22
   4388792.06347   3396382.24243  23454700.4924   23454698.6024
     -3751.1784
  -1492597.33247  -1154832.32042  23725209.7194   23725205.2424
      2147.2744
   1364400.94148   1053654.06647  20290933.3364   20290928.8634
     -1466.7024
   3815649.33649   2950597.64546  21124559.1024   21124555.8954
     -3431.6244
   4224630.61345   3265912.06342  23897071.6024   23897068.7424
     -3526.3364
   1952288.44148   1508819.95345  22338831.4844   22338826.0124
     -1979.7684
  -1038157.57047   -805002.21142  23720386.1884   23720384.6644
      2371.0554
   2962453.00449   2288651.68446  21612003.7504   21611998.2814
     -2550.1554
 04  9  1 14 45 45.0000000  0  8G 3G11G14G15G18G19G25G22
   4445106.53948   3440263.62142  23465417.0004   23465414.2734
     -3754.2984
  -1524757.88747  -1179892.50842  23719089.6254   23719085.4774
      2144.0374
   1386524.87948   1070893.49646  20295143.6644   20295139.1994
     -1474.9294
   3867232.70749   2990792.45345  21134374.8754   21134372.1024
     -3438.8914
   4277548.35245   3307146.60942  23907141.5084   23907138.9144
     -3527.8494
   1982119.77349   1532065.12544  22344507.8914   22344502.2704
     -1988.7554
  -1073700.93747   -832698.33642  23713622.5234   23713620.5984
      2369.5584
   3000749.09049   2318492.78145  21619291.6334   21619286.0944
     -2553.0724
 04  9  1 14 46  0.0000000  0  8G 3G11G14G15G18G19G25G22
   4501466.75447   3484180.65243  23476141.7344   23476139.7234
     -3757.3484
  -1556870.23047  -1204915.09442  23712978.9844   23712974.4344
      2140.8234
   1408771.35248   1088228.40646  20299377.2034   20299372.5274
     -1483.0984
   3918924.26649   3031071.56646  21144211.7814   21144208.8874
     -3446.1044
   4330488.25445   3348398.42242  23917216.0394   23917213.0084
     -3529.3274
   2012085.10248   1555414.72344  22350210.3204   22350204.2934
     -1997.6894
  -1109222.19547   -860377.25842  23706863.2194   23706861.0164
      2368.0844
   3039088.12549   2348367.34446  21626587.2194   21626581.6174
     -2555.9364
 04  9  1 14 46 15.0000000  0  8G 3G11G14G15G18G19G25G22
   4557870.55947   3528131.63343  23486874.8364   23486872.9884
     -3760.2544
  -1588935.76247  -1229901.24642  23706877.4694   23706872.9344
      2137.7024
   1431138.44948   1105657.31347  20303632.9694   20303628.8914
     -1491.1404
   3970722.10549   3071433.49645  21154068.5234   21154065.7664
     -3453.1894
   4383448.48845   3389666.08242  23927293.1884   23927290.7544
     -3530.6824
   2042182.40248   1578867.14544  22355937.3674   22355931.9024
     -2006.4874
  -1144722.67647   -888039.96542  23700107.2974   23700105.8284
      2366.6994
   3077468.28549   2378273.95346  21633890.8054   21633885.1804
     -2558.6774
 04  9  1 14 46 30.0000000  0  8G 3G11G14G15G18G19G25G22
   4614318.13347   3572116.73042  23497616.5314   23497614.5784
     -3763.1724
  -1620953.64548  -1254850.24642  23700784.3754   23700780.2234
      2134.5264
   1453626.50448   1123180.46147  20307912.6414   20307908.1294
     -1499.2044
   4022626.68049   3111878.59445  21163945.4774   21163942.8164
     -3460.3054
   4436429.44546   3430949.89842  23937375.7584   23937372.8834
     -3532.0644
   2072412.00048   1602422.66045  22361690.0234   22361684.4344
     -2015.3074
  -1180201.62947   -915685.90642  23693356.2664   23693354.2814
      2365.2644
   3115890.32049   2408213.18846  21641202.1954   21641196.4344
     -2561.4694
 04  9  1 14 46 45.0000000  0  8G 3G11G14G15G18G19G25G22
   4670809.96547   3616136.31642  23508366.4064   23508364.7624
     -3766.1224
  -1652922.80148  -1279761.28142  23694701.2814   23694696.9184
      2131.2774
   1476236.24248   1140798.43846  20312215.0084   20312210.7194
     -1507.3164
   4074638.57848   3152407.32045  21173842.9844   21173840.3794
     -3467.4604
   4489432.13346   3472250.64542  23947462.2734   23947459.0744
     -3533.5124
   2102774.60248   1626081.81344  22367467.9694   22367462.1174
     -2024.1734
  -1215657.69947   -943314.02042  23686608.9614   23686606.7704
      2363.7384
   3154354.95749   2438185.62146  21648521.9454   21648516.1884
     -2564.3094
 04  9  1 14 47  0.0000000  0  8G 3G11G14G15G18G19G25G22
   4727345.21947   3660189.73442  23519124.5634   23519122.5784
     -3769.0174
  -1684843.48848  -1304634.54742  23688627.0864   23688622.7194
      2128.0464
   1498967.05147   1158510.75446  20316540.4774   20316536.3134
     -1515.3874
   4126757.20748   3193019.21145  21183761.1564   21183758.1334
     -3474.5754
   4542455.92646   3513567.84042  23957551.9064   23957549.4064
     -3534.9204
   2133269.55948   1649844.09844  22373270.7974   22373265.4734
     -2032.9974
  -1251091.08247   -970924.46142  23679866.3204   23679864.2194
      2362.2264
   3192861.72348   2468190.87945  21655849.2584   21655843.6644
     -2567.1184
 04  9  1 14 47 15.0000000  0  8G 3G11G14G15G18G19G25G22
   4783923.03947   3704276.30942  23529891.4454   23529889.2894
     -3771.8554
  -1716715.98448  -1329470.25442  23682561.7664   23682557.9964
      2124.8334
   1521818.25048   1176316.87546  20320889.2034   20320884.7704
     -1523.4134
   4178981.87148   3233713.73045  21193698.8594   21193696.1884
     -3481.6444
   4595500.32046   3554901.08242  23967646.5234   23967643.4534
     -3536.2934
   2163896.03548   1673708.85944  22379098.8284   22379093.4384
     -2041.7654
  -1286501.97747   -998517.37142  23673127.7974   23673125.1414
      2360.7264
   3231409.98449   2498228.47346  21663184.6644   21663178.9384
     -2569.8844
 04  9  1 14 47 30.0000000  0  8G 3G11G14G15G18G19G25G22
   4840542.95747   3748395.69542  23540665.7424   23540663.6994
     -3774.6614
  -1748539.94948  -1354268.15242  23676505.9064   23676501.6954
      2121.5984
   1544789.46948   1194216.51646  20325260.4694   20325256.0394
     -1531.4154
   4231312.30549   3274490.66845  21203657.2974   21203654.2424
     -3488.6964
   4648565.31346   3596250.38342  23977745.1414   23977741.4144
     -3537.6664
   2194653.74248   1697675.89144  22384951.8284   22384946.8324
     -2050.5144
  -1321890.18047  -1026092.58642  23666394.0864   23666391.6684
      2359.2144
   3269999.58249   2528298.28146  21670528.4454   21670522.7154
     -2572.6404
 04  9  1 14 47 45.0000000  0  8G 3G11G14G15G18G19G25G22
   4897204.53147   3792547.54342  23551448.3364   23551446.4104
     -3777.4384
  -1780315.23048  -1379028.12142  23670459.0394   23670455.0474
      2118.3524
   1567880.37948   1212209.43047  20329654.2734   20329650.1884
     -1539.3944
   4283748.23449   3315349.81345  21213635.1884   21213632.7114
     -3495.7294
   4701650.69545   3637615.57042  23987846.1564   23987843.4184
     -3539.0264
   2225542.36749   1721744.92645  22390830.1334   22390824.7114
     -2059.2424
  -1357255.31247  -1053649.84842  23659664.6094   23659661.7814
      2357.6764
   3308630.45749   2558400.25846  21677879.2974   21677873.8164
     -2575.3924
 04  9  1 14 48  0.0000000  0  8G 3G11G14G15G18G19G25G22
   4953907.65247   3836731.76642  23562238.3914   23562235.9884
     -3780.2084
  -1812041.32048  -1403749.74642  23664422.1564   23664417.7814
      2115.0734
   1591091.17648   1230295.76646  20334070.9384   20334067.0164
     -1547.3864
   4336289.76648   3356291.24245  21223633.8444   21223630.8914
     -3502.7694
   4754756.75445   3678996.87542  23997952.1094   23997948.8204
     -3540.4044
   2256562.03549   1745916.08244  22396732.5004   22396727.4964
     -2067.9784
  -1392596.88747  -1081188.74642  23652939.0164   23652936.3404
      2356.1054
   3347302.94149   2588534.65246  21685238.6564   21685233.4144
     -2578.1664
 04  9  1 14 48 15.0000000  0  8G 3G11G14G15G18G19G25G22
   5010652.16847   3880948.25442  23573036.9224   23573034.5594
     -3782.9684
  -1843717.65248  -1428432.59842  23658394.4304   23658390.1724
      2111.7554
   1614421.97748   1248475.60246  20338510.8834   20338506.7774
     -1555.3874
   4388936.94548   3397314.99245  21233652.1954   21233649.4144
     -3509.8124
   4807883.71145   3720394.45342  24008061.9844   24008058.4804
     -3541.7974
   2287712.80148   1770189.38744  22402660.5394   22402655.0084
     -2076.7184
  -1427914.21946  -1108708.76642  23646218.3134   23646215.5314
      2354.4894
   3386017.18049   2618701.57846  21692605.6094   21692600.2034
     -2580.9494
 04  9  1 14 48 30.0000000  0  8G 3G11G14G15G18G19G25G22
   5067436.28147   3925195.59043  23583842.9384   23583840.2384
     -3785.6084
  -1875345.43448  -1453077.62542  23652375.6954   23652371.7584
      2108.5194
   1637871.12548   1266747.65646  20342972.8524   20342969.1884
     -1563.2774
   4441688.19948   3438419.83645  21243690.6024   21243687.9184
     -3516.7504
   4861030.15646   3761807.22742  24018175.3364   24018172.3554
     -3543.0964
   2318992.82448   1794563.40644  22408612.9774   22408607.1374
     -2085.3354
  -1463208.42246  -1136210.73442  23639501.4924   23639499.3324
      2352.9474
   3424771.66849   2648899.86746  21699980.5784   21699975.2664
     -2583.6334
 04  9  1 14 48 45.0000000  0  8G 3G11G14G15G18G19G25G22
   5124259.27047   3969473.23042  23594655.2814   23594653.2424
     -3788.1994
  -1906924.77348  -1477684.91042  23646366.4694   23646362.1564
      2105.2894
   1661438.00048   1285111.45346  20347457.9844   20347453.4694
     -1571.1254
   4494543.09448   3479605.44545  21253748.6024   21253745.6334
     -3523.6604
   4914195.61746   3803234.82442  24028291.8834   24028289.4494
     -3544.3644
   2350401.56348   1819037.73044  22414589.8674   22414584.2504
     -2093.9164
  -1498479.35946  -1163694.59842  23632790.0084   23632788.0234
      2351.3964
   3463566.11348   2679129.28946  21707362.8754   21707357.3874
     -2586.2964
 04  9  1 14 49  0.0000000  0  8G 3G11G14G15G18G19G25G22
   5181122.62547   4013782.30942  23605476.1254   23605473.5944
     -3790.8904
  -1938453.49247  -1502252.74642  23640366.4774   23640362.4924
      2101.9154
   1685124.35548   1303568.35247  20351965.3914   20351960.8014
     -1579.0904
   4547503.26248   3520873.08246  21263826.7114   21263823.7544
     -3530.6784
   4967381.96546   3844678.71542  24038413.5084   24038410.4654
     -3545.7574
   2381940.76248   1843613.71144  22420591.4924   22420586.0554
     -2102.6134
  -1533725.07447  -1191158.78542  23626083.0704   23626081.0824
      2349.7144
   3502402.27749   2709391.22345  21714753.1804   21714747.7154
     -2589.0784
 04  9  1 14 49 15.0000000  0  8G 3G11G14G15G18G19G25G22
   5238025.18447   4058121.93443  23616304.4304   23616302.3364
     -3793.5044
  -1969932.13347  -1526781.53942  23634375.9694   23634372.0594
      2098.5764
   1708929.19548   1322117.57046  20356495.1954   20356490.6414
     -1586.9894
   4600567.70348   3562221.97745  21273924.3204   21273921.3444
     -3537.6294
   5020588.39147   3886138.21542  24048538.5784   24048534.4494
     -3547.0954
   2413609.35548   1868290.51644  22426617.6174   22426612.4304
     -2111.2404
  -1568945.85346  -1218603.51242  23619380.0704   23619378.3874
      2348.0524
   3541279.34449   2739685.02745  21722150.9224   21722145.9964
     -2591.8044
 04  9  1 14 49 30.0000000  0  8G 3G11G14G15G18G19G25G22
   5294967.77347   4102492.74643  23627140.2274   23627138.1054
     -3796.1734
  -2001359.22347  -1551270.19542  23628395.5784   23628391.8914
      2095.1394
   1732853.49648   1340759.88346  20361047.6724   20361043.1454
     -1594.9534
   4653737.41848   3603652.89845  21284042.2894   21284039.1484
     -3544.6484
   5073816.05947   3927614.28142  24058667.1414   24058663.4224
     -3548.5114
   2445408.34448   1893068.92644  22432668.9454   22432663.7114
     -2119.9334
  -1604140.25846  -1246027.75042  23612683.3754   23612681.4614
      2346.2944
   3580198.52348   2770011.65245  21729557.0944   21729551.4844
     -2594.6124
 04  9  1 14 49 45.0000000  0  8G 3G11G14G15G18G19G25G22
   5351948.45747   4146893.26643  23637983.1174   23637981.5164
     -3798.7124
  -2032735.96947  -1575719.58642  23622424.5864   23622420.8014
      2091.7834
   1756895.57848   1359493.96946  20365622.7424   20365618.7974
     -1602.8054
   4707010.78148   3645164.58245  21294179.9774   21294176.7814
     -3551.5584
   5127063.54746   3969105.82042  24068799.6484   24068796.5474
     -3549.8334
   2477336.01648   1917947.61344  22438745.1334   22438739.4414
     -2128.5114
  -1639309.56646  -1273432.40242  23605991.0234   23605988.9024
      2344.6214
   3619158.21948   2800369.84445  21736971.0004   21736965.4654
     -2597.3134
 04  9  1 14 50  0.0000000  0  8G 3G11G14G15G18G19G25G22
   5408966.49247   4191322.85943  23648834.2664   23648831.7384
     -3801.2024
  -2064062.46947  -1600129.84842  23616464.0554   23616458.8284
      2088.4334
   1781054.89548   1378319.40246  20370219.9384   20370215.8524
     -1610.6214
   4760387.21548   3686756.57845  21304336.9614   21304334.2854
     -3558.4294
   5180330.34446   4010612.38342  24078936.2034   24078932.9494
     -3551.1204
   2509391.65248   1942926.01244  22444844.3914   22444839.7274
     -2137.0424
  -1674453.64146  -1300817.39542  23599302.4844   23599300.9414
      2342.9384
   3658158.07048   2830759.32445  21744392.4694   21744386.6454
     -2599.9904
 04  9  1 14 50 15.0000000  0  8G 3G11G14G15G18G19G25G22
   5466022.05547   4235781.71943  23659691.1174   23659688.6804
     -3803.7044
  -2095337.94147  -1624500.35542  23610511.8054   23610508.0394
      2085.0324
   1805331.90648   1397236.55546  20374840.0704   20374835.5824
     -1618.4674
   4813867.15648   3728429.23045  21314514.0234   21314511.2304
     -3565.3294
   5233617.00047   4052134.42242  24089076.5234   24089073.0164
     -3552.4444
   2541575.65648   1968004.43444  22450969.2194   22450963.6094
     -2145.6004
  -1709571.62946  -1328182.04342  23592620.6954   23592618.4304
      2341.1994
   3697198.73448   2861180.61345  21751821.6024   21751816.0274
     -2602.7114
 04  9  1 14 50 30.0000000  0  8G 3G11G14G15G18G19G25G22
   5523116.09847   4280270.55142  23670555.5944   23670553.5594
     -3806.2704
  -2126560.91047  -1648829.94142  23604570.6644   23604566.1024
      2081.5314
   1829727.46948   1416246.06646  20379482.3204   20379478.0824
     -1626.3714
   4867451.57848   3770183.30145  21324710.5474   21324708.1094
     -3572.2954
   5286924.79346   4093672.92642  24099220.2344   24099216.5434
     -3553.8534
   2573889.00848   1993183.64544  22457118.1024   22457112.8984
     -2154.2234
  -1744661.80146  -1355525.04342  23585942.8054   23585941.0354
      2339.3454
   3736281.21548   2891634.48046  21759258.7974   21759253.4804
     -2605.4994
 04  9  1 14 50 45.0000000  0  8G 3G11G14G15G18G19G25G22
   5580246.23448   4324787.51243  23681426.9454   23681425.4454
     -3808.6764
  -2157732.93447  -1673119.82842  23598638.7734   23598634.5314
      2078.1354
   1854239.45748   1435346.31646  20384146.6804   20384142.4344
     -1634.1334
   4921138.36348   3812017.12945  21334926.9384   21334924.3754
     -3579.1194
   5340251.85946   4135226.43842  24109369.0164   24109364.8134
     -3555.1384
   2606329.56348   2018461.98044  22463291.3524   22463285.9804
     -2162.7044
  -1779725.84046  -1382847.65242  23579270.0864   23579268.7584
      2337.6034
   3775403.71148   2922119.52745  21766703.4144   21766698.0634
     -2608.1664
 04  9  1 14 51  0.0000000  0  8G 3G11G14G15G18G19G25G22
   5637412.31347   4369332.48443  23692305.2344   23692303.5594
     -3811.0724
  -2188853.52748  -1697369.64142  23592716.3134   23592712.1994
      2074.7064
   1878868.05548   1454537.42247  20388833.1414   20388829.2074
     -1641.9074
   4974927.53548   3853930.74645  21345162.7734   21345159.9454
     -3585.9454
   5393598.23445   4176795.01242  24119520.2664   24119516.3484
     -3556.4254
   2638897.27048   2043839.39544  22469489.0004   22469483.2034
     -2171.1804
  -1814763.27346  -1410149.48842  23572602.3754   23572601.2934
      2335.8294
   3814566.39848   2952635.89545  21774156.1094   21774150.3244
     -2610.8464
 04  9  1 14 51 15.0000000  0  8G 3G11G14G15G18G19G25G22
   5694614.30948   4413905.43843  23703190.7664   23703189.0554
     -3813.4664
  -2219922.15248  -1721578.96142  23586804.6174   23586799.7774
      2071.2424
   1903613.24648   1473819.39147  20393541.8984   20393537.9494
     -1649.6794
   5028819.34848   3895924.34045  21355418.0004   21355415.4654
     -3592.7874
   5446964.02345   4218378.73442  24129675.0474   24129671.7034
     -3557.7194
   2671592.21948   2069315.96144  22475710.5554   22475704.9384
     -2179.6634
  -1849773.35546  -1437430.10242  23565940.4064   23565939.0164
      2334.0054
   3853769.55148   2983183.79345  21781615.7974   21781610.6524
     -2613.5434
 04  9  1 14 51 30.0000000  0  8G 3G11G14G15G18G19G25G22
   5751851.19947   4458505.57043  23714082.5314   23714080.5704
     -3815.7934
  -2250939.16448  -1745748.05942  23580902.4844   23580897.9224
      2067.8014
   1928474.16848   1493191.53147  20398273.0704   20398268.6884
     -1657.3954
   5082812.87148   3937997.18845  21365692.6564   21365689.7304
     -3599.5684
   5500348.80545   4259977.25042  24139833.4614   24139830.4654
     -3558.9854
   2704413.40648   2094890.89544  22481956.3914   22481950.3554
     -2188.0794
  -1884756.49246  -1464689.66442  23559283.5084   23559281.7114
      2332.2094
   3893012.36348   3013762.59445  21789083.6414   21789078.1134
     -2616.1874
 04  9  1 14 51 45.0000000  0  8G 3G11G14G15G18G19G25G22
   5809123.04347   4503132.96143  23724981.0394   23724979.2584
     -3818.1234
  -2281903.87947  -1769876.41042  23575010.0784   23575005.2664
      2064.3144
   1953451.08648   1512654.06347  20403026.1564   20403021.8164
     -1665.1284
   5136908.33249   3980149.46145  21375986.9304   21375983.7504
     -3606.3644
   5553752.82046   4301590.69942  24149995.8444   24149992.8164
     -3560.2684
   2737361.03548   2120564.35244  22488225.9144   22488219.8874
     -2196.5094
  -1919711.94146  -1491927.66042  23552632.2274   23552629.9574
      2330.3634
   3932295.29748   3044372.65646  21796559.0164   21796553.5004
     -2618.8624
 04  9  1 14 52  0.0000000  0  8G 3G11G14G15G18G19G25G22
   5866430.03947   4547787.75043  23735886.1334   23735883.8794
     -3820.4664
  -2312815.37148  -1793963.29342  23569127.4534   23569123.5634
      2060.7664
   1978544.46548   1532207.33646  20407801.3364   20407796.9144
     -1672.8924
   5191106.18048   4022381.53945  21386300.2974   21386297.7704
     -3613.1904
   5607176.74246   4343219.64842  24160163.2504   24160159.0984
     -3561.5954
   2770435.46948   2146336.60944  22494519.7974   22494514.2974
     -2204.9624
  -1954638.50846  -1519143.16843  23545985.5784   23545983.5864
      2328.4384
   3971618.89548   3075014.41045  21804042.0634   21804036.4844
     -2621.5734
 04  9  1 14 52 15.0000000  0  8G 3G11G14G15G18G19G25G22
   5923772.38347   4592470.05542  23746797.7424   23746796.4964
     -3822.8234
  -2343672.75848  -1818008.02342  23563256.0944   23563251.4414
      2057.1594
   2003754.68448   1551851.66046  20412598.8364   20412594.2114
     -1680.6814
   5245406.79348   4064693.67245  21396633.1564   21396630.4184
     -3620.0414
   5660621.10246   4384864.59842  24170332.6094   24170329.6334
     -3562.9574
   2803637.17648   2172208.05144  22500837.5784   22500832.3554
     -2213.4474
  -1989535.42246  -1546335.55142  23539344.7734   23539342.8204
      2326.4614
   4010983.78549   3105688.34045  21811532.9774   21811527.3834
     -2624.3264
 04  9  1 14 52 30.0000000  0  8G 3G11G14G15G18G19G25G22
   5981148.68047   4637178.82443  23757717.0314   23757714.3594
     -3825.0864
  -2374476.92648  -1842011.28142  23557394.1414   23557389.8054
      2053.6114
   2029080.54348   1571586.09446  20417417.6484   20417413.5234
     -1688.3914
   5299809.03548   4107085.00445  21406985.6724   21406983.0434
     -3626.8164
   5714084.82845   4426524.63742  24180505.1024   24180504.0084
     -3564.2484
   2836964.93848   2198177.71944  22507179.8984   22507174.5744
     -2221.8514
  -2024403.27345  -1573505.28543  23532709.6254   23532707.8524
      2324.5234
   4050388.92249   3136393.62945  21819031.5944   21819026.0634
     -2627.0094
 04  9  1 14 52 45.0000000  0  8G 3G11G14G15G18G19G25G22
   6038559.39547   4681914.43842  23768640.9844   23768639.3754
     -3827.3814
  -2405226.68748  -1865972.13342  23551542.4224   23551537.9184
      2049.9844
   2054522.54348   1591411.02046  20422258.9534   20422255.3204
     -1696.1334
   5354313.46949   4149555.96945  21417357.3054   21417354.8914
     -3633.6294
   5767568.91445   4468200.44542  24190683.6484   24190681.4384
     -3565.6064
   2870419.21148   2224245.96944  22513546.1174   22513540.7274
     -2230.2854
  -2059241.09846  -1600651.61742  23526079.9454   23526078.6214
      2322.5224
   4089835.13349   3167130.92245  21826537.9694   21826532.3284
     -2629.7474
 04  9  1 14 53  0.0000000  0  8G 3G11G14G15G18G19G25G22
   6096004.27747   4726676.62542  23779572.3984   23779570.9064
     -3829.6594
  -2435921.70748  -1889890.33243  23545702.0234   23545697.3404
      2046.3354
   2080080.66848   1611326.43446  20427122.9694   20427118.5394
     -1703.8754
   5408920.05948   4192106.53545  21427749.0004   21427746.3914
     -3640.4394
   5821073.28945   4509892.07042  24200866.1334   24200862.5164
     -3566.9584
   2903999.93048   2250412.75044  22519936.2344   22519931.4064
     -2238.7154
  -2094048.39846  -1627774.16842  23519456.8054   23519455.0354
      2320.4874
   4129322.42249   3197900.22745  21834052.2274   21834047.0124
     -2632.4864
 04  9  1 14 53 15.0000000  0  8G 3G11G14G15G18G19G25G22
   6153481.28147   4771463.89142  23790510.0164   23790508.0314
     -3831.8004
  -2466563.09848  -1913766.75043  23539870.4924   23539866.4184
      2042.7594
   2105753.09048   1631330.92246  20432008.3284   20432003.8324
     -1711.4954
   5463627.02048   4234735.30945  21438158.9224   21438157.0274
     -3647.1314
   5874596.35246   4551598.34442  24211051.3674   24211048.1844
     -3568.2044
   2937705.11348   2276676.51244  22526349.9224   22526345.0204
     -2247.0124
  -2128826.39846  -1654873.88743  23512838.3444   23512836.6764
      2318.5334
   4168849.13348   3228700.24246  21841574.0784   21841568.5124
     -2635.1144
 04  9  1 14 53 30.0000000  0  7G 3G11G14G15G19G25G22
   6210990.64147   4816276.34442  23801453.9064   23801451.9534
     -3833.9574
  -2497150.18448  -1937600.84043  23534050.3444   23534045.8954
      2039.1394
   2131540.15648   1651424.73046  20436915.1884   20436910.8204
     -1719.1384
   5518434.62548   4277442.50045  21448588.7584   21448586.4614
     -3653.8404
   2971535.09848   2303037.51244  22532787.9064   22532782.6414
     -2255.3324
  -2163574.24247  -1681950.12143  23506226.8594   23506224.3404
      2316.5234
   4208415.83248   3259531.42646  21849103.0234   21849097.7234
     -2637.7804
 04  9  1 14 53 45.0000000  0  7G 3G11G14G15G19G25G22
   6268532.50447   4861114.12542  23812403.2504   23812401.6024
     -3836.1244
  -2527682.11348  -1961391.94543  23528239.9534   23528236.1684
      2035.4624
   2157442.24248   1671608.16846  20441844.2974   20441840.0274
     -1726.8064
   5573343.21548   4320228.39145  21459038.0394   21459034.9224
     -3660.5734
   3005490.21548   2329496.03544  22539249.2734   22539244.4104
     -2263.6744
  -2198290.98846  -1709002.10943  23499619.8914   23499617.9614
      2314.4504
   4248023.06349   3290394.18446  21856640.1884   21856634.3014
     -2640.4824
 04  9  1 14 54  0.0000000  0  7G 3G11G14G15G19G25G22
   6326105.96547   4905976.54342  23823359.4534   23823357.4734
     -3838.2314
  -2558159.28148  -1985140.37943  23522440.6174   23522436.2544
      2031.8114
   2183458.62948   1691880.67247  20446795.1414   20446790.7074
     -1734.4264
   5628352.03548   4363092.38745  21469505.3754   21469502.6024
     -3667.2554
   3039569.69148   2356051.44944  22545734.6174   22545729.3094
     -2271.9654
  -2232976.82047  -1736030.02743  23493019.6954   23493017.2774
      2312.3894
   4287670.37149   3321288.18045  21864184.9064   21864179.2344
     -2643.1544
 04  9  1 14 54 15.0000000  0  7G 3G11G14G15G19G25G22
   6383711.89547   4950864.21942  23834321.7034   23834319.2034
     -3840.3954
  -2588580.13348  -2008844.94143  23516651.6724   23516647.3554
      2028.0574
   2209590.32048   1712243.03146  20451767.9304   20451763.7774
     -1742.1134
   5683462.22748   4406035.36745  21479992.4384   21479989.9384
     -3674.0134
   3073774.50448   2382704.52744  22552243.3914   22552238.2034
     -2280.3214
  -2267630.15647  -1763032.61743  23486425.3204   23486422.8134
      2310.2224
   4327358.84048   3352214.24245  21871737.3444   21871732.1334
     -2645.8984
 04  9  1 14 54 30.0000000  0  7G 3G11G14G15G19G25G22
   6441349.28947   4995776.48042  23845289.3984   23845287.7074
     -3842.4934
  -2618945.06648  -2032505.91842  23510873.1484   23510869.3634
      2024.3294
   2235836.39149   1732694.50847  20456762.3204   20456758.1844
     -1749.7384
   5738672.86348   4449056.60545  21490498.7504   21490496.5044
     -3680.7094
   3108103.61348   2409454.47344  22558776.0784   22558771.0314
     -2288.6074
  -2302251.20747  -1790010.05142  23479836.6024   23479835.0944
      2308.0704
   4367087.91849   3383171.95345  21879297.9064   21879291.7584
     -2648.6054
 04  9  1 14 54 45.0000000  0  7G 3G11G14G15G19G25G22
   6499019.97347   5040714.63742  23856264.2584   23856262.1214
     -3844.7124
  -2649251.37148  -2056121.21543  23505105.8834   23505102.4304
      2020.4204
   2262198.94148   1753236.74646  20461778.8134   20461774.5044
     -1757.5034
   5793986.13748   4492157.83645  21501024.3204   21501021.9184
     -3687.5524
   3142559.16048   2436302.93444  22565333.2194   22565327.6764
     -2297.0364
  -2336837.48447  -1816960.38342  23473255.3204   23473253.2704
      2305.7524
   4406859.61748   3414162.86745  21886866.0704   21886860.4184
     -2651.4474
 04  9  1 14 55  0.0000000  0  7G 3G11G14G15G19G25G22
   6556722.87147   5085677.89142  23867245.0784   23867242.5594
     -3846.8604
  -2679499.61748  -2079691.27743  23499349.8594   23499346.0634
      2016.5504
   2288677.14849   1773869.11346  20466817.6094   20466813.1884
     -1765.2144
   5849401.09048   4535338.28945  21511569.7034   21511567.1884
     -3694.3304
   3177140.20748   2463249.17644  22571912.9064   22571908.2774
     -2305.4034
  -2371389.35246  -1843883.91042  23466680.2894   23466678.1024
      2303.4584
   4446673.27048   3445186.47746  21894442.2194   21894436.5784
     -2654.2434
 04  9  1 14 55 15.0000000  0  7G 3G11G14G15G19G25G22
   6614456.60247   5130665.19142  23878231.5164   23878229.1334
     -3848.9154
  -2709690.73848  -2103216.82843  23493604.6484   23493600.3244
      2012.7414
   2315269.70349   1794590.58246  20471877.8364   20471873.9454
     -1772.8374
   5904916.46948   4578596.99245  21522134.1024   21522131.5124
     -3701.0254
   3211845.52048   2490292.26244  22578517.5004   22578511.8284
     -2313.6874
  -2405907.64147  -1870781.25842  23460112.0004   23460109.8834
      2301.2194
   4486527.90649   3476242.02345  21902026.1644   21902021.0784
     -2656.9764
 04  9  1 14 55 30.0000000  0  7G 3G11G14G15G19G25G22
   6672220.87547   5175676.28942  23889223.5234   23889221.5594
     -3850.9524
  -2739824.00448  -2126697.29742  23487870.5864   23487866.1334
      2008.8844
   2341976.52749   1815401.09046  20476959.9844   20476955.9614
     -1780.4554
   5960532.19548   4621933.89845  21532717.5704   21532714.8324
     -3707.7154
   3246674.70748   2517431.87144  22585145.6954   22585139.7974
     -2321.9464
  -2440391.77046  -1897652.01642  23453549.5634   23453547.5164
      2298.9424
   4526423.56649   3507329.54345  21909618.2584   21909612.9184
     -2659.7114
 04  9  1 14 55 45.0000000  0  7G 3G11G14G15G19G25G22
   6730014.43847   5220710.20342  23900221.2504   23900218.9734
     -3852.9044
  -2769900.22348  -2150133.30943  23482147.6884   23482143.3914
      2005.0814
   2368796.44949   1836299.72346  20482063.8134   20482059.9534
     -1787.9954
   6016247.06348   4665348.05145  21543319.8444   21543317.3914
     -3714.3244
   3281626.65648   2544667.13744  22591796.3984   22591790.8674
     -2330.1304
  -2474842.20346  -1924496.48842  23446994.0314   23446991.6994
      2296.6964
   4566359.36349   3538448.32845  21917217.7814   21917212.4734
     -2662.3864
 04  9  1 14 56  0.0000000  0  7G 3G11G14G15G19G25G22
   6787836.82047   5265766.58242  23911224.3134   23911222.2734
     -3854.8264
  -2799919.11748  -2173524.65643  23476434.8914   23476431.0274
      2001.2604
   2395729.09048   1857286.19547  20487188.9844   20487184.6994
     -1795.5094
   6072060.74248   4708839.19945  21553940.6174   21553938.0004
     -3720.9124
   3316700.97348   2571997.74244  22598470.7894   22598465.4224
     -2338.2884
  -2509258.80146  -1951314.59842  23440444.7814   23440442.3054
      2294.4404
   4606335.13349   3569598.26645  21924824.9614   21924819.7544
     -2665.0514
 04  9  1 14 56 15.0000000  0  7G 3G11G14G15G19G25G22
   6845688.42647   5310845.72742  23922233.5554   23922230.9104
     -3856.7744
  -2829879.78548  -2196870.62942  23470733.7974   23470729.6914
      1997.3784
   2422775.00449   1878360.92647  20492335.7584   20492331.1844
     -1803.0614
   6127973.92648   4752407.88745  21564580.6174   21564578.2584
     -3727.5464
   3351898.22348   2599424.15244  22605168.5004   22605163.6174
     -2346.4834
  -2543640.40246  -1978105.45342  23433901.8134   23433899.8954
      2292.1074
   4646351.67249   3600779.96545  21932439.9304   21932434.4224
     -2667.7694
 04  9  1 14 56 30.0000000  0  7G 3G11G14G15G19G25G22
   6903567.48447   5355946.26642  23933247.0704   23933245.5004
     -3858.6044
  -2859783.21548  -2220172.00442  23465043.3364   23465038.8674
      1993.5624
   2449932.66849   1899522.74246  20497503.4774   20497499.3484
     -1810.5114
   6183985.04348   4796052.87945  21575239.3054   21575236.6844
     -3734.0744
   3387216.74248   2626945.05944  22611889.5784   22611884.2194
     -2354.5684
  -2577988.23846  -2004869.98442  23427366.0474   23427363.7624
      2289.8564
   4686407.50048   3631992.28145  21940062.1884   21940057.0434
     -2670.3894
 04  9  1 14 56 45.0000000  0  7G 3G11G14G15G19G25G22
   6961473.70747   5401067.98842  23944266.1644   23944264.1684
     -3860.4154
  -2889629.03548  -2243428.50042  23459363.5314   23459359.1604
      1989.7214
   2477202.11348   1920771.66047  20502692.6644   20502688.4454
     -1817.9634
   6240094.03148   4839774.14545  21585916.3364   21585913.9694
     -3740.5994
   3422656.48448   2654560.41844  22618633.7034   22618628.2544
     -2362.6494
  -2612301.66846  -2031607.73042  23420836.0784   23420834.0744
      2287.5624
   4726502.72349   3663235.29745  21947692.0004   21947686.6724
     -2673.0154
 04  9  1 14 57  0.0000000  0  7G 3G11G14G15G19G25G22
   7019407.26246   5446210.97742  23955291.0084   23955288.8284
     -3862.2374
  -2919416.44148  -2266639.47342  23453695.7034   23453690.6094
      1985.8274
   2504583.52049   1942107.81646  20507903.1174   20507898.7814
     -1825.4274
   6296301.22348   4883571.92645  21596612.4924   21596609.7774
     -3747.1464
   3458217.65248   2682270.41044  22625400.4144   22625395.3444
     -2370.7454
  -2646579.72346  -2058317.89542  23414313.3364   23414311.2504
      2285.2044
   4766637.88349   3694509.42645  21955329.4144   21955324.1884
     -2675.6774
 04  9  1 14 57 15.0000000  0  7G 3G11G14G15G19G25G22
   7077368.53146   5491375.59042  23966320.3284   23966318.2974
     -3864.0854
  -2949144.35248  -2289804.08243  23448038.2894   23448033.5904
      1981.8614
   2532077.48048   1963531.67247  20513135.1094   20513130.9264
     -1832.9314
   6352607.20349   4927446.68845  21607327.3204   21607324.4494
     -3753.7324
   3493900.79748   2710075.43044  22632190.9614   22632185.7424
     -2378.8764
  -2680821.51646  -2084999.82042  23407797.3364   23407795.1764
      2282.7864
   4806813.63349   3725815.19545  21962974.6954   21962969.5164
     -2678.3834
 04  9  1 14 57 30.0010000  0  7G 3G11G14G15G19G25G22
   7135359.59446   5536563.39842  23977355.8644   23977353.7204
     -3866.0714
  -2978815.86748  -2312924.75442  23442391.6064   23442387.2474
      1978.1014
   2559684.33649   1985043.49646  20518388.6224   20518384.0214
     -1840.4574
   6409014.04348   4971400.03945  21618060.6224   21618058.2864
     -3760.4564
   3529706.59048   2737976.03544  22639004.1224   22638999.3884
     -2387.0534
  -2715030.24246  -2111655.96143  23401288.1384   23401285.5794
      2280.5824
   4847031.41849   3757153.70745  21970627.8804   21970622.3764
     -2681.1864
 04  9  1 14 57 45.0010000  0  7G 3G11G14G15G19G25G22
   7193372.26246   5581768.06342  23988395.6854   23988393.7904
     -3867.5114
  -3008426.90648  -2335998.29342  23436756.7714   23436752.3214
      1974.0694
   2587399.92249   2006640.05946  20523662.9034   20523658.1344
     -1847.7064
   6465513.94549   5015425.91045  21628812.4194   21628810.2204
     -3766.6604
   3565629.84048   2765968.15244  22645840.4424   22645835.4424
     -2394.8834
  -2749201.25046  -2138282.70343  23394785.0754   23394783.1884
      2278.0674
   4887285.59849   3788520.58645  21978287.8884   21978282.7514
     -2683.6124
 04  9  1 14 58  0.0010000  0  7G 3G11G14G15G19G25G22
   7251410.98046   5626993.00442  23999440.0284   23999437.8534
     -3869.2484
  -3037978.39548  -2359025.41042  23431133.6464   23431129.3454
      1970.0994
   2615226.77348   2028323.31346  20528957.7554   20528953.7984
     -1855.1234
   6522111.35249   5059527.75845  21639582.3724   21639580.2394
     -3773.1604
   3601673.53548   2794054.13744  22652699.6304   22652694.7984
     -2402.9134
  -2783335.55146  -2164880.84443  23388289.5134   23388287.8564
      2275.6204
   4927579.66449   3819918.54745  21985955.5054   21985950.4194
     -2686.2714
 04  9  1 14 58 15.0010000  0  7G 3G11G14G15G19G25G22
   7309475.02346   5672237.69542  24010489.1304   24010487.1064
     -3870.9364
  -3067470.16048  -2382006.02742  23425521.6774   23425516.9354
      1966.1184
   2643164.47749   2050092.94946  20534273.9814   20534270.1064
     -1862.5144
   6578805.75449   5103705.18845  21650371.1854   21650368.8024
     -3779.6274
   3637837.18848   2822233.58244  22659581.4974   22659576.4234
     -2410.9104
  -2817432.92647  -2191450.23043  23381801.0604   23381798.7314
      2273.1584
   4967913.48049   3851347.48045  21993631.0364   21993625.3064
     -2688.9214
 04  9  1 14 58 30.0010000  0  7G 3G11G14G15G19G25G22
   7367563.87147   5717501.71142  24021542.7944   24021540.8564
     -3872.5904
  -3096902.07448  -2404939.98842  23419921.1384   23419916.6964
      1962.1284
   2671212.61749   2071948.63346  20539611.5054   20539607.5324
     -1869.8764
   6635596.81649   5147957.93045  21661178.2164   21661175.6924
     -3786.0714
   3674120.32848   2850506.14144  22666485.7244   22666481.0284
     -2418.8764
  -2851493.25847  -2217990.73043  23375319.9274   23375317.9624
      2270.6894
   5008286.84449   3882807.22345  22001313.7554   22001308.4194
     -2691.5584
 04  9  1 14 58 45.0010000  0  7G 3G11G14G15G19G25G22
   7425677.26246   5762784.82842  24032600.8174   24032599.6654
     -3874.2264
  -3126273.86348  -2427827.10542  23414331.4664   23414327.5634
      1958.1194
   2699370.96149   2093890.19946  20544969.8884   20544965.7824
     -1877.2234
   6692484.29749   5192285.81345  21672003.7244   21672000.6614
     -3792.4994
   3710522.57848   2878871.50444  22673412.9664   22673407.8254
     -2426.8174
  -2885516.10247  -2244502.02743  23368845.9114   23368843.1034
      2268.1904
   5048699.70349   3914297.74645  22009004.2314   22008998.9354
     -2694.1914
 04  9  1 14 59  0.0010000  0  7G 3G11G14G15G19G25G22
   7483814.31646   5808086.40642  24043665.4424   24043663.0214
     -3875.8044
  -3155585.82048  -2450667.59842  23408753.8024   23408749.1304
      1954.1304
   2727638.85249   2115917.11747  20550349.1224   20550344.7004
     -1884.5264
   6749467.53149   5236688.30145  21682846.9664   21682844.3564
     -3798.8824
   3747043.34448   2907329.22344  22680362.7474   22680357.8724
     -2434.7184
  -2919501.78547  -2270984.37943  23362378.4584   23362375.7594
      2265.7124
   5089151.52349   3945818.63345  22016701.6224   22016696.7594
     -2696.7884
 04  9  1 14 59 15.0010000  0  7G 3G11G14G15G19G25G22
   7541975.95346   5853407.14542  24054732.9424   24054730.8644
     -3877.4424
  -3184836.35948  -2473460.22343  23403187.6614   23403183.7394
      1950.0364
   2756017.33649   2138030.21946  20555749.1534   20555745.2004
     -1891.8994
   6806547.65649   5281166.29745  21693708.8644   21693706.4894
     -3805.3424
   3783683.67648   2935880.10944  22687334.7394   22687330.3024
     -2442.6894
  -2953448.59847  -2297436.43043  23355918.2084   23355916.1344
      2263.1214
   5129643.60549   3977370.89145  22024407.0134   22024401.8254
     -2699.4724
 04  9  1 14 59 30.0010000  0  7G 3G11G14G15G19G25G22
   7600159.04346   5898744.58242  24065804.1854   24065802.9504
     -3878.8734
  -3214027.80548  -2496206.80943  23397632.6614   23397628.7044
      1946.0964
   2784503.48049   2160227.21146  20561170.4034   20561165.8964
     -1899.0764
   6863721.72349   5325717.48445  21704589.1224   21704586.1964
     -3811.6044
   3820440.52048   2964521.78144  22694330.0134   22694324.6384
     -2450.4564
  -2987358.89147  -2323860.02743  23349465.1304   23349462.9314
      2260.6864
   5170173.29749   4008952.44945  22032119.8254   22032114.7904
     -2701.9794
 04  9  1 14 59 45.0010000  0  7G 3G11G14G15G19G25G22
   7658365.46546   5944100.19142  24076880.3644   24076878.9624
     -3880.4284
  -3243157.86748  -2518905.55142  23392089.0284   23392085.4664
      1942.0044
   2813099.28549   2182509.64846  20566611.8104   20566607.5364
     -1906.3874
   6920991.59049   5370343.33245  21715487.1064   21715484.4624
     -3817.9914
   3857315.71948   2993255.68844  22701346.7164   22701341.8964
     -2458.3474
  -3021230.27047  -2350253.30143  23343020.0054   23343017.4384
      2258.0924
   5210742.65649   4040564.91845  22039839.8024   22039834.9034
     -2704.6244
 04  9  1 15  0  0.0010000  0  8G 3G11G14G15G 1G19G25G22
   7716594.25046   5989473.25842  24087961.2864   24087959.8414
     -3881.9194
  -3272226.62948  -2541556.54343  23386557.8724   23386553.7594
      1937.9174
   2841803.98849   2204876.94146  20572074.1144   20572070.2354
     -1913.6474
   6978356.55549   5415043.27045  21726403.4894   21726400.9194
     -3824.3314
    -99759.57456    -69435.93752  24182840.2314   24182838.4274

   3894308.52748   3022081.22744  22708386.0364   22708381.2164
     -2466.1874
  -3055062.80947  -2376616.29743  23336581.2634   23336579.9034
      2255.5034
   5251351.10249   4072207.84845  22047567.3254   22047562.4504
     -2707.2304
 04  9  1 15  0 15.0010000  0  8G 3G11G14G15G 1G19G25G22
   7774843.63746   6034862.34842  24099045.1224   24099043.9744
     -3883.2924
  -3301235.31248  -2564160.70343  23381037.8024   23381034.0174
      1933.9124
   2870615.88749   2227327.76646  20577557.0834   20577552.8764
     -1920.7934
   7035815.10549   5459816.13745  21737337.6464   21737334.8564
     -3830.5704
   -133457.73446    -95694.24242  24176427.9664   24176425.7784
      2246.5444
   3931417.36748   3050997.17644  22715448.0284   22715442.2984
     -2473.9234
  -3088857.65247  -2402949.93443  23330151.1384   23330148.5524
      2252.9904
   5291997.19949   4103880.12545  22055302.1464   22055296.7944
     -2709.7404
 04  9  1 15  0 30.0010000  0  8G 3G11G14G15G 1G19G25G22
   7833116.43446   6080269.69942  24110135.0284   24110133.0484
     -3884.8534
  -3330180.31248  -2586715.25043  23375529.7634   23375525.5244
      1929.6674
   2899538.06349   2249864.52346  20583060.4114   20583056.4664
     -1928.1454
   7093370.24649   5504664.27045  21748289.6694   21748287.1614
     -3837.0094
   -167107.10246   -121914.55142  24170023.8334   24170022.9074
      2243.2914
   3968645.05948   3080005.74644  22722532.3494   22722526.9354
     -2481.8464
  -3122611.15247  -2429251.35543  23323727.1854   23323725.8764
      2250.2334
   5332684.27049   4135584.31345  22063044.7004   22063039.3104
     -2712.4714
 04  9  1 15  0 45.0010000  0  8G 3G11G14G15G 1G19G25G22
   7891409.54746   6125692.85942  24121227.5054   24121226.2284
     -3886.2084
  -3359064.32848  -2609222.27343  23370032.8964   23370029.2084
      1925.6014
   2928567.45749   2272484.82846  20588584.3964   20588580.5564
     -1935.2934
   7151018.79749   5549585.18445  21759259.8644   21759256.9814
     -3843.2374
   -200710.39546   -148098.90642  24163631.0284   24163628.5914
      2240.2204
   4005988.37948   3109104.41044  22729638.0364   22729633.0794
     -2489.5554
  -3156325.77347  -2455522.48443  23317312.0214   23317309.9114
      2247.6414
   5373409.35949   4167318.13745  22070794.4424   22070788.8764
     -2715.0064
 04  9  1 15  1  0.0010000  0  8G 3G11G14G15G 1G19G25G22
   7949723.10546   6171131.98042  24132324.6144   24132322.6304
     -3887.5714
  -3387886.34848  -2631680.98443  23364548.3884   23364544.6064
      1921.4684
   2957704.49249   2295189.00446  20594129.2244   20594125.1264
     -1942.4694
   7208761.24649   5594579.27345  21770248.0364   21770245.4074
     -3849.4974
   -234266.81646   -174246.79742  24157245.1144   24157243.3884
      2237.0954
   4043447.75448   3138293.52044  22736766.3964   22736761.0914
     -2497.2924
  -3190000.55147  -2481762.55143  23310903.7084   23310901.8884
      2244.9854
   5414173.18049   4199082.13345  22078551.6694   22078546.3214
     -2717.5884
 04  9  1 15  1 15.0010000  0  8G 3G11G14G15G 1G19G25G22
   8008057.23846   6216587.11742  24143425.2944   24143423.5324
     -3888.9424
  -3416645.57048  -2654090.77043  23359076.1854   23359071.6814
      1917.2824
   2986949.32449   2317977.18046  20599694.4424   20599689.9814
     -1949.6554
   7266597.79348   5639646.68045  21781253.9504   21781251.1814
     -3855.7704
   -267775.77746   -200357.68042  24150868.4814   24150866.0404
      2233.9314
   4081023.27348   3167573.11744  22743917.0524   22743911.7164
     -2505.0354
  -3223634.73847  -2507971.00042  23304503.3494   23304501.0324
      2242.2794
   5454976.01649   4230876.53145  22086316.0364   22086310.4664
     -2720.1894
 04  9  1 15  1 30.0010000  0  8G 3G11G14G15G 1G19G25G22
   8066412.53946   6262058.74642  24154529.1614   24154528.1224
     -3890.3534
  -3445340.87148  -2676450.74243  23353615.5604   23353611.4934
      1913.0204
   3016302.69549   2340849.93447  20605280.0364   20605275.8964
     -1956.8914
   7324529.27748   5684788.06645  21792278.2314   21792275.6064
     -3862.0994
   -301236.09446   -226430.67242  24144500.2784   24144499.3494
      2230.6884
   4118715.71148   3196943.82444  22751089.5444   22751084.7204
     -2512.8294
  -3257227.14546  -2534146.88342  23298111.0214   23298108.7204
      2239.4944
   5495818.91448   4262702.14845  22094088.1534   22094083.1424
     -2722.8604
 04  9  1 15  1 45.0010000  0  8G 3G11G14G15G 1G19G25G22
   8124788.06645   6307546.13342  24165638.4424   24165636.2984
     -3891.7024
  -3473972.59848  -2698761.18443  23348167.4114   23348162.7984
      1908.7824
   3045763.79349   2363806.62546  20610886.5674   20610882.2594
     -1964.0734
   7382554.85248   5730002.77345  21803319.9584   21803317.5014
     -3868.3724
   -334648.19546   -252466.03542  24138142.5674   24138140.4114
      2227.4734
   4156524.17648   3226404.94144  22758284.2004   22758279.1344
     -2520.5644
  -3290777.77347  -2560290.21942  23291726.2714   23291724.6534
      2236.7094
   5536701.31649   4294558.55145  22101867.8884   22101862.7674
     -2725.4934
 04  9  1 15  2  0.0010000  0  8G 3G11G14G15G 1G19G25G22
   8183184.60545   6353049.90242  24176750.3884   24176748.9504
     -3893.1034
  -3502539.20348  -2721020.87543  23342730.9424   23342726.5994
      1904.4404
   3075333.66849   2386848.07846  20616513.3804   20616509.3214
     -1971.3254
   7440675.48448   5775291.55545  21814379.9114   21814377.1534
     -3874.7094
   -368010.70746   -278462.81242  24131794.9424   24131791.8534
      2224.1674
   4194449.52348   3255957.13744  22765501.1614   22765496.1534
     -2528.3574
  -3324285.10547  -2586399.80543  23285350.1384   23285348.2944
      2233.8224
   5577624.35949   4326446.62545  22109655.3884   22109649.9384
     -2728.2034
 04  9  1 15  2 15.0010000  0  8G 3G11G14G15G 1G19G25G22
   8241600.47746   6398568.75042  24187866.7784   24187865.3414
     -3894.3914
  -3531041.74248  -2743230.64843  23337307.0674   23337302.5174
      1900.1694
   3105010.78949   2409973.10246  20622160.6694   20622156.4854
     -1978.4754
   7498889.60548   5820653.18045  21825457.6614   21825455.2004
     -3880.9414
   -401324.85246   -304421.92642  24125455.0444   24125452.0174
      2220.9434
   4232490.19548   3285599.19544  22772739.8724   22772735.1304
     -2536.0454
  -3357750.20346  -2612476.49642  23278981.9274   23278980.1144
      2231.0074
   5618586.56649   4358365.20345  22117450.2164   22117444.8764
     -2730.8144
 04  9  1 15  2 30.0010000  0  8G 3G11G14G15G 1G19G25G22
   8300037.09046   6444103.73442  24198986.6774   24198985.5244
     -3895.7744
  -3559478.11348  -2765388.85943  23331896.1924   23331891.8024
      1895.7584
   3134796.60549   2433182.82046  20627828.6304   20627824.6534
     -1985.7214
   7557198.77349   5866088.86745  21836553.6464   21836551.2314
     -3887.2784
   -434588.77346   -330341.84842  24119124.6384   24119122.5134
      2217.5954
   4270647.66848   3315332.26644  22780001.1384   22779996.6424
     -2543.8324
  -3391171.04347  -2638518.69942  23272622.2474   23272620.3644
      2228.0564
   5659589.79349   4390315.75045  22125252.6694   22125247.4934
     -2733.5484
 04  9  1 15  2 45.0010000  0  8G 3G11G14G15G 1G19G25G22
   8358492.89846   6489653.68842  24210110.8174   24210109.1964
     -3897.0544
  -3587849.18748  -2787496.18743  23326497.1694   23326492.9664
      1891.4054
   3164689.85549   2456476.26246  20633517.3494   20633513.1464
     -1992.8834
   7615601.71549   5911597.62145  21847667.5604   21847664.9894
     -3893.5294
   -467803.34046   -356223.32042  24112804.2314   24112802.1614
      2214.3044
   4308920.53548   3345155.25444  22787284.3414   22787279.4544
     -2551.5244
  -3424548.39147  -2664527.00443  23266270.7554   23266268.4194
      2225.1574
   5700632.94949   4422297.41845  22133062.7864   22133057.5364
     -2736.2104
 04  9  1 15  3  0.0010000  0  8G 3G11G14G15G 1G19G25G22
   8416968.28946   6535218.87942  24221238.3024   24221236.7984
     -3898.3594
  -3616154.04348  -2809551.92643  23321110.5524   23321106.8994
      1886.9904
   3194690.96549   2479853.75046  20639226.2474   20639222.1424
     -2000.0744
   7674098.86748   5957179.79745  21858798.5674   21858796.6924
     -3899.8104
   -500967.66447   -382065.65642  24106494.0994   24106491.6814
      2210.9554
   4347309.18848   3375068.46544  22794589.4504   22794584.6774
     -2559.2434
  -3457881.08647  -2690500.52743  23259927.5054   23259925.5484
      2222.1804
   5741716.73849   4454310.74245  22140881.1614   22140875.3804
     -2738.9194
 04  9  1 15  3 15.0010000  0  8G 3G11G14G15G 1G19G25G22
   8475463.94946   6580799.88742  24232369.6144   24232367.7514
     -3899.7114
  -3644391.50448  -2831555.13343  23315736.5994   23315732.9354
      1882.4974
   3224800.76249   2503315.91846  20644955.7944   20644951.8254
     -2007.3204
   7732691.06648   6002836.02345  21869948.6384   21869946.3374
     -3906.1474
   -534080.67646   -407868.04742  24100191.3334   24100190.2124
      2207.5344
   4385814.33648   3405072.45344  22801916.5524   22801911.8884
     -2567.0104
  -3491167.98047  -2716438.36343  23253593.2474   23253591.1144
      2219.1264
   5782842.14149   4486356.48845  22148707.1694   22148701.6924
     -2741.6934
 04  9  1 15  3 30.0010000  0  8G 3G11G14G15G 1G19G25G22
   8533978.63346   6626395.70742  24243504.4034   24243503.0874
     -3900.9794
  -3672561.95748  -2853506.14143  23310376.3024   23310372.3134
      1878.0304
   3255018.16049   2526861.94146  20650705.9274   20650701.8174
     -2014.4934
   7791377.27748   6048565.50445  21881116.2474   21881114.3724
     -3912.4144
   -567142.94946   -433630.83642  24093900.0444   24093898.3844
      2204.1524
   4424434.92248   3435166.39544  22809266.1694   22809260.5324
     -2574.7064
  -3524409.37547  -2742340.75843  23247267.7714   23247265.4194
      2216.0934
   5824008.34449   4518434.03945  22156540.8334   22156535.7244
     -2744.4144
 04  9  1 15  3 45.0010000  0  8G 3G11G14G15G 1G19G25G22
   8592511.11345   6672005.39842  24254642.6694   24254641.8564
     -3902.1654
  -3700665.98448  -2875405.37543  23305028.6464   23305024.3724
      1873.6024
   3285342.05549   2550490.94146  20656476.7314   20656472.5214
     -2021.5934
   7850156.30948   6094367.31645  21892301.4584   21892299.3064
     -3918.6024
   -600155.34846   -459354.75842  24087618.3174   24087616.6464
      2200.8274
   4463169.64848   3465349.27344  22816637.3644   22816632.0604
     -2582.3154
  -3557605.83247  -2768208.11343  23240951.0054   23240948.6884
      2213.0974
   5865214.38749   4550542.62945  22164381.9974   22164376.3804
     -2747.0704
 04  9  1 15  4  0.0010000  0  8G 3G11G14G15G 1G19G25G22
   8651061.11745   6717628.75842  24265784.2004   24265783.2474
     -3903.3344
  -3728703.18448  -2897252.54743  23299693.3494   23299688.7084
      1869.1474
   3315772.27049   2574202.79346  20662267.0914   20662263.1774
     -2028.6814
   7909028.03948   6140241.36745  21903504.2634   21903502.1184
     -3924.7824
   -633117.46146   -485039.55942  24081346.3254   24081343.9894
      2197.4744
   4502018.36348   3495620.98044  22824029.9744   22824024.6814
     -2589.9144
  -3590756.94947  -2794040.15243  23234642.4814   23234639.8994
      2210.0744
   5906460.29749   4582682.27745  22172230.7784   22172225.4464
     -2749.7274
 04  9  1 15  4 15.0010000  0  8G 3G11G14G15G 1G19G25G22
   8709630.36745   6763267.08642  24276930.7944   24276929.1424
     -3904.6174
  -3756671.33248  -2919045.91843  23294371.1924   23294366.7864
      1864.5434
   3346310.66449   2597998.93446  20668078.6224   20668074.3844
     -2035.8934
   7967994.28548   6186189.05545  21914725.4584   21914722.7984
     -3931.0834
   -666027.26246   -510683.55142  24075082.9034   24075081.8644
      2193.9874
   4540982.83648   3525982.87544  22831444.4584   22831439.3604
     -2597.6324
  -3623860.26247  -2819834.91843  23228342.8024   23228340.2904
      2206.8884
   5947748.00049   4614854.49245  22180087.7554   22180082.2864
     -2752.5144
 04  9  1 15  4 30.0010000  0  8G 3G11G14G15G 1G19G25G22
   8768217.64846   6808919.46142  24288078.8494   24288077.7314
     -3905.8194
  -3784570.58248  -2940785.59043  23289061.8494   23289057.4314
      1859.9504
   3376956.41049   2621878.73446  20673910.2244   20673906.1034
     -2043.0504
   8027054.19548   6232209.73845  21925964.1224   21925961.7824
     -3937.3274
   -698885.18746   -536287.09442  24068831.4664   24068828.9464
      2190.5284
   4580062.08248   3556434.21544  22838881.2244   22838875.7784
     -2605.2834
  -3656916.14147  -2845592.75043  23222052.7474   23222050.2044
      2203.7254
   5989077.06349   4647058.94145  22187952.3724   22187946.8534
     -2755.2714
 04  9  1 15  4 45.0010000  0  8G 3G11G14G15G 1G19G25G22
   8826823.55946   6854586.36342  24299231.8804   24299230.0564
     -3907.0614
  -3812399.86748  -2962470.74643  23283766.0754   23283761.7124
      1855.2864
   3407709.97349   2645842.54346  20679762.6064   20679758.5134
     -2050.2384
   8086208.39848   6278303.88745  21937220.9504   21937218.6814
     -3943.6144
   -731690.18746   -561849.47342  24062588.5134   24062586.4314
      2187.0004
   4619256.58248   3586975.35544  22846339.7474   22846334.7394
     -2612.9674
  -3689923.43047  -2871312.70743  23215771.3334   23215769.1384
      2200.4864
   6030448.18449   4679296.16045  22195825.0914   22195819.6494
     -2758.0754
 04  9  1 15  5  0.0010000  0  8G 3G11G14G15G 1G19G25G22
   8885445.98046   6900266.14842  24310386.7714   24310385.4854
     -3908.1614
  -3840160.96148  -2984102.76643  23278483.4424   23278479.1964
      1850.7404
   3438569.45349   2669888.88746  20685634.4034   20685630.9034
     -2057.2994
   8145454.84849   6324469.92245  21948495.0284   21948492.8764
     -3949.7634
   -764443.86746   -587371.80942  24056355.1384   24056353.8884
      2183.5794
   4658564.33248   3617604.75044  22853819.5994   22853814.3804
     -2620.5174
  -3722883.49247  -2896995.86343  23209499.3804   23209497.1184
      2197.3384
   6071859.60549   4711564.78545  22203705.3024   22203699.9934
     -2760.7614
 04  9  1 15  5 15.0010000  0  8G 3G11G14G15G 1G19G25G22
   8944084.36746   6945958.37142  24321544.8804   24321544.0564
     -3909.2264
  -3867853.74248  -3005681.54343  23273213.2714   23273209.6264
      1846.1854
   3469534.35249   2694017.37546  20691527.2554   20691523.1884
     -2064.3274
   8204793.12549   6370707.50845  21959787.0914   21959784.5564
     -3955.8854
   -797146.35246   -612854.25442  24050132.8494   24050130.8064
      2180.1664
   4697984.80148   3648321.97344  22861320.9504   22861316.0874
     -2628.0314
  -3755796.19547  -2922642.11343  23203235.6774   23203234.2434
      2194.1804
   6113311.14149   4743864.66845  22211593.2714   22211588.1574
     -2763.4364
 04  9  1 15  5 30.0010000  0  8G 3G11G14G15G 1G19G25G22
   9002739.06347   6991663.28942  24332707.4274   24332705.5634
     -3910.3134
  -3895477.02748  -3027206.19143  23267957.4034   23267952.9584
      1841.5524
   3500605.29349   2718228.48846  20697440.0284   20697435.7474
     -2071.3964
   8264223.75849   6417017.05945  21971096.3104   21971094.0834
     -3962.0424
   -829796.65646   -638296.10242  24043919.2474   24043917.5564
      2176.6874
   4737518.44948   3679127.38344  22868844.2784   22868839.1494
     -2635.5774
  -3788660.41047  -2948250.58243  23196982.5054   23196980.3294
      2190.9484
   6154803.52749   4776196.37945  22219489.0364   22219483.9234
     -2766.1594
 04  9  1 15  5 45.0010000  0  8G 3G11G14G15G 1G19G25G22
   9061409.19947   7037380.25442  24343871.9814   24343870.2744
     -3911.3424
  -3923031.01248  -3048676.82843  23262713.5604   23262709.3644
      1836.9324
   3531781.53549   2742521.65646  20703372.5914   20703368.6384
     -2078.4164
   8323746.07849   6463398.05545  21982422.9504   21982420.8374
     -3968.1554
   -862395.19546   -663697.55142  24037715.9424   24037714.8374
      2173.2364
   4777164.41048   3710020.32044  22876388.3254   22876383.4894
     -2643.0644
  -3821476.47747  -2973821.52743  23190737.8964   23190735.2674
      2187.7384
   6196336.21149   4808559.48845  22227392.2864   22227387.3994
     -2768.8464
 04  9  1 15  6  0.0010000  0  8G 3G11G14G15G 1G19G25G22
   9120095.91847   7083110.13342  24355039.5674   24355037.5634
     -3912.4484
  -3950513.93448  -3070092.09043  23257484.0604   23257479.5834
      1832.1954
   3563064.28149   2766897.82046  20709325.2944   20709321.1264
     -2085.5164
   8383361.31648   6509851.44944  21993767.7004   21993765.2204
     -3974.3494
   -894940.27746   -689057.36742  24031522.4664   24031520.5444
      2169.6724
   4816923.93448   3741001.74644  22883954.5674   22883949.4814
     -2650.6354
  -3854242.48847  -2999353.47343  23184502.3414   23184500.1814
      2184.4014
   6237910.54349   4840955.06345  22235304.0914   22235298.8174
     -2771.6224
 04  9  1 15  6 15.0010000  0  8G 3G11G14G15G 1G19G25G22
   9178797.39847   7128851.50842  24366210.6064   24366208.5214
     -3913.4324
  -3977927.19548  -3091453.05943  23252267.5444   23252263.3134
      1827.5514
   3594451.71149   2791355.55147  20715298.1854   20715294.0564
     -2092.4954
   8443067.68849   6556375.85944  22005129.7554   22005126.9424
     -3980.4254
   -927433.35546   -714376.67242  24025339.6854   24025337.5604
      2166.2054
   4856795.18448   3772070.22344  22891541.4584   22891536.7004
     -2658.0834
  -3886959.55147  -3024847.27343  23178277.2164   23178274.4274
      2181.1384
   6279525.11349   4873381.98045  22243222.5674   22243217.8064
     -2774.3054
 04  9  1 15  6 30.0010000  0  8G 3G11G14G15G 1G19G25G22
   9237513.46947   7174604.24642  24377383.7164   24377381.7284
     -3914.4054
  -4005270.15648  -3112759.27043  23247064.2314   23247060.1064
      1822.8644
   3625943.82449   2815894.85947  20721291.0284   20721286.7904
     -2099.4744
   8502865.14548   6602971.24644  22016508.1614   22016505.9584
     -3986.4974
   -959874.05946   -739655.09442  24019166.0284   24019164.3494
      2162.7144
   4896778.10948   3803225.73044  22899150.2634   22899145.2904
     -2665.5284
  -3919627.22348  -3050302.59443  23172060.4034   23172057.7744
      2177.8454
   6321180.18449   4905840.46145  22251149.3254   22251144.4894
     -2777.0054
 04  9  1 15  6 45.0010000  0  8G 3G11G14G15G 1G19G25G22
   9296243.70347   7220368.03542  24388559.0134   24388557.7674
     -3915.3494
  -4032542.59048  -3134010.51643  23241874.6854   23241870.0524
      1818.1624
   3657540.42249   2840515.57846  20727303.6304   20727299.6104
     -2106.4404
   8562753.55548   6649637.51644  22027905.0134   22027902.4974
     -3992.5614
   -992262.16046   -764892.57042  24013002.9194   24013001.0954
      2159.2074
   4936872.35948   3834467.97744  22906779.6924   22906775.1654
     -2672.9504
  -3952244.94947  -3075719.00043  23165853.3964   23165850.8334
      2174.5154
   6362875.62949   4938330.40245  22259084.1384   22259078.9624
     -2779.6964
 04  9  1 15  7  0.0010000  0  8G 3G11G14G15G 1G19G25G22
   9354988.55947   7266143.21942  24399738.1304   24399736.7244
     -3916.3244
  -4059743.21948  -3155205.80943  23236698.3884   23236694.0994
      1813.3754
   3689242.16049   2865218.21946  20733336.5524   20733332.0484
     -2113.4494
   8622733.52748   6696375.12944  22039318.1144   22039316.3964
     -3998.6654
  -1024596.61346   -790088.24642  24006850.0284   24006848.3064
      2155.6304
   4977078.50448   3865797.41444  22914431.0444   22914425.7514
     -2680.4104
  -3984811.59047  -3101095.59443  23159656.3724   23159653.9784
      2171.1094
   6404612.30549   4970852.47745  22267026.1614   22267021.1614
     -2782.4454
 04  9  1 15  7 15.0010000  0  8G 3G11G14G15G 1G19G25G22
   9413747.85547   7311929.66842  24410920.2864   24410917.7554
     -3917.2864
  -4086871.75048  -3176344.93043  23231536.0284   23231531.5564
      1808.5694
   3721049.01649   2890002.78146  20739388.9354   20739384.7744
     -2120.4574
   8682804.96549   6743184.00844  22050749.4424   22050747.4424
     -4004.7624
  -1056877.20346   -815241.98442  24000707.7634   24000705.6464
      2152.0394
   5017396.38748   3897213.91844  22922103.3024   22922098.2044
     -2687.8594
  -4017326.84447  -3126432.14143  23153468.7864   23153466.3684
      2167.6844
   6446390.45749   5003406.86745  22274976.7004   22274971.2284
     -2785.2104
 04  9  1 15  7 30.0010000  0  8G 3G11G14G15G 1G19G25G22
   9472521.10247   7357726.96142  24422104.3024   24422101.4074
     -3918.2164
  -4113928.08248  -3197427.78543  23226387.1384   23226383.2434
      1803.7554
   3752960.53949   2914868.89846  20745461.6534   20745457.5134
     -2127.4354
   8742967.53548   6790063.90244  22062197.9744   22062196.0954
     -4010.8384
  -1089103.93446   -840353.73042  23994574.8804   23994573.2354
      2148.4494
   5057825.55548   3928717.14144  22929796.8414   22929791.9314
     -2695.2784
  -4049790.50847  -3151728.50443  23147291.2314   23147288.9464
      2164.2444
   6488209.86349   5035993.40245  22282933.9194   22282929.4074
     -2787.9604
 04  9  1 15  7 45.0010000  0  8G 3G11G14G15G 1G19G25G22
   9531308.23447   7403535.09442  24433291.0054   24433288.5914
     -3919.1424
  -4140911.57448  -3218453.88743  23221252.4974   23221248.5794
      1798.8994
   3784976.78949   2939816.62146  20751553.7474   20751549.9544
     -2134.4174
   8803221.27749   6837014.83644  22073664.0914   22073662.1384
     -4016.9164
  -1121276.28546   -865423.10942  23988452.6774   23988450.3374
      2144.8234
   5098366.02048   3960307.09044  22937511.3174   22937506.6774
     -2702.6984
  -4082201.74647  -3176984.00843  23141123.6304   23141121.0214
      2160.7494
   6530070.89849   5068612.37145  22290900.0054   22290895.3214
     -2790.7364
 04  9  1 15  8  0.0010000  0  8G 3G11G14G15G 1G19G25G22
   9590108.69547   7449353.62142  24444480.2244   24444478.0284
     -3920.0314
  -4167822.01248  -3239423.06243  23216131.7004   23216127.4704
      1794.0294
   3817097.35249   2964845.62947  20757666.4894   20757662.3454
     -2141.3714
   8863565.80948   6884036.52044  22085147.2314   22085145.2314
     -4022.9694
  -1153394.37146   -890450.18442  23982340.2244   23982338.0914
      2141.2064
   5139017.22748   3991983.33644  22945247.2864   22945242.2784
     -2710.0804
  -4114560.54347  -3202198.64843  23134965.8174   23134963.6344
      2157.2534
   6571973.17649   5101263.48045  22298873.5994   22298868.9894
     -2793.4854
 04  9  1 15  8 15.0010000  0  8G 3G11G14G15G 1G19G25G22
   9648923.16847   7495183.06642  24455672.5994   24455669.4504
     -3920.9654
  -4194658.23048  -3260334.40243  23211024.8494   23211020.7944
      1789.0814
   3849322.94549   2989956.47346  20763798.8564   20763794.6774
     -2148.3734
   8924001.83249   6931129.49244  22096648.0054   22096645.8994
     -4029.0684
  -1185457.04347   -915434.07842  23976239.3104   23976236.6534
      2137.5114
   5179779.85248   4023746.38344  22953004.0134   22952999.1424
     -2717.5084
  -4146865.49248  -3227371.34043  23128817.9354   23128816.0404
      2153.6634
   6613917.77049   5133947.56645  22306855.9584   22306850.8764
     -2796.3064
 04  9  1 15  8 30.0010000  0  8G 3G11G14G15G 1G19G25G22
   9707748.23847   7541020.77742  24466866.4034   24466864.3064
     -3921.6714
  -4221422.80148  -3281189.91843  23205932.0754   23205927.2784
      1784.3054
   3881650.41449   3015146.69546  20769950.2394   20769946.2904
     -2155.1654
   8984526.15648   6978291.27744  22108165.5364   22108163.0174
     -4034.9554
  -1217467.07446   -940376.94542  23970147.9814   23970145.4704
      2134.0024
   5220650.61748   4055593.70744  22960781.5754   22960776.5174
     -2724.7184
  -4179119.20347  -3252504.08243  23122680.6224   23122678.2284
      2150.2474
   6655901.71548   5166662.31345  22314844.9664   22314839.6814
     -2798.9304
 04  9  1 15  8 45.0010000  0  8G 3G11G14G15G 1G19G25G22
   9766584.53147   7586867.18842  24478062.4584   24478060.7124
     -3922.4204
  -4248114.69548  -3301988.79743  23200852.4894   23200848.5634
      1779.4604
   3914080.57849   3040416.95346  20776121.5444   20776117.5794
     -2162.0114
   9045139.55548   7025522.46544  22119699.4354   22119697.3414
     -4040.8934
  -1249423.30946   -965277.89542  23964067.2244   23964064.8104
      2130.4164
   5261630.19548   4087525.82844  22968579.8564   22968574.7124
     -2731.9724
  -4211320.28147  -3277595.83643  23116552.8644   23116550.6344
      2146.7394
   6697926.00448   5199408.50045  22322842.0524   22322836.8644
     -2801.6194
 04  9  1 15  9  0.0010000  0  8G 3G11G14G15G 1G19G25G22
   9825431.46947   7632721.95742  24489261.1774   24489258.8804
     -3923.1294
  -4274733.85248  -3322730.99643  23195787.1224   23195782.9194
      1774.6104
   3946612.84449   3065766.76246  20782312.3174   20782308.1654
     -2168.8184
   9105841.44948   7072822.61344  22131251.2394   22131248.3684
     -4046.7934
  -1281325.91046   -990137.08242  23957996.3804   23957994.7204
      2126.8404
   5302717.98048   4119542.25444  22976398.3644   22976393.3454
     -2739.1864
  -4243468.84047  -3302646.64843  23110435.3104   23110433.3414
      2143.2374
   6739990.32849   5232185.88745  22330846.6304   22330841.7784
     -2804.2884
 04  9  1 15  9 15.0010000  0  8G 3G11G14G15G 1G19G25G22
   9884289.21147   7678585.09442  24500461.2004   24500459.0914
     -3923.8494
  -4301279.32048  -3343415.78143  23190735.9114   23190731.6064
      1769.6984
   3979247.48449   3091196.34046  20788522.2164   20788518.4784
     -2175.6434
   9166632.19148   7120191.99644  22142819.1854   22142816.8414
     -4052.7164
  -1313174.20346  -1014953.92242  23951935.4354   23951933.9154
      2123.2204
   5343914.14147   4151643.13344  22984237.8334   22984232.6224
     -2746.4114
  -4275563.86747  -3327655.75843  23104327.8174   23104325.9544
      2139.6684
   6782095.16448   5264994.82845  22338858.9974   22338853.7474
     -2806.9894
 04  9  1 15  9 30.0010000  0  8G 3G11G14G15G 1G19G25G22
   9943157.29347   7724456.30542  24511663.3254   24511661.3724
     -3924.5394
  -4327751.02048  -3364043.07043  23185698.5994   23185694.4664
      1764.7804
   4011984.20349   3116705.46946  20794751.9814   20794748.0794
     -2182.4484
   9227511.35948   7167630.27344  22154403.8724   22154401.5174
     -4058.6114
  -1344968.15246  -1039728.44942  23945885.1064   23945883.5874
      2119.5974
   5385218.28547   4183828.15644  22992097.8964   22992092.5174
     -2753.6104
  -4307605.33647  -3352623.12543  23098230.2244   23098228.5244
      2136.0984
   6824240.41448   5297835.27345  22346878.7944   22346873.5444
     -2809.6834
 04  9  1 15  9 45.0010000  0  8G 3G11G14G15G 1G19G25G22
  10002034.21946   7770334.37542  24522867.0214   24522865.3844
     -3925.1284
  -4354149.80948  -3384613.56243  23180674.8104   23180670.5754
      1759.9194
   4044821.53949   3142292.99646  20801001.2474   20800996.9274
     -2189.1564
   9288477.58248   7215136.39144  22166005.6854   22166003.3214
     -4064.4154
  -1376708.77346  -1064461.39842  23939844.7084   23939843.6034
      2116.0414
   5426628.92248   4216096.16044  22999977.8104   22999973.0914
     -2760.7094
  -4339593.98447  -3377549.33243  23092143.2084   23092141.5404
      2132.5774
   6866424.80548   5330706.20745  22354906.4504   22354901.0444
     -2812.2934
 04  9  1 15 10  0.0010000  0  8G 3G11G14G15G 1G19G25G22
  10060921.75446   7816220.75842  24534073.4814   24534070.9464
     -3925.8364
  -4380473.28548  -3405125.35943  23175665.3024   23175661.3134
      1754.8984
   4077761.44549   3167960.44946  20807269.1694   20807265.0524
     -2195.9944
   9349532.86348   7262711.90644  22177624.1464   22177621.7434
     -4070.3524
  -1408393.73447  -1089150.96942  23933816.0134   23933814.9784
      2112.3314
   5468147.93847   4248448.61744  23007878.7634   23007874.0794
     -2767.9344
  -4371527.16447  -3402432.33243  23086066.7004   23086064.5284
      2128.8794
   6908650.60548   5363609.40645  22362941.3644   22362936.2004
     -2815.0534
 04  9  1 15 10 15.0010000  0  8G 3G11G14G15G 1G19G25G22
  10119819.91046   7862115.39542  24545280.8174   24545278.9384
     -3926.5444
  -4406720.73848  -3425577.92643  23170670.8564   23170666.4664
      1749.8304
   4110804.06649   3193707.93846  20813557.3254   20813552.9934
     -2202.8414
   9410677.35948   7310356.94144  22189259.3884   22189257.2394
     -4076.3004
  -1440022.47747  -1113796.75042  23927797.0834   23927795.8134
      2108.5834
   5509775.43048   4280885.59844  23015799.7004   23015795.4894
     -2775.1664
  -4403404.25047  -3427271.61343  23080000.5914   23079998.2714
      2125.1394
   6950918.19948   5396545.18045  22370985.0444   22370979.8214
     -2817.8404
 04  9  1 15 10 30.0010000  0  8G 3G11G14G15G 1G19G25G22
  10178726.02346   7908016.23442  24556490.4194   24556488.4114
     -3927.0744
  -4432894.16048  -3445972.79743  23165690.6384   23165685.9154
      1744.8954
   4143946.96149   3219533.56346  20819863.8254   20819859.7044
     -2209.5264
   9471908.45348   7358069.44544  22200911.0834   22200909.1384
     -4082.0734
  -1471597.18446  -1138400.42242  23921788.1774   23921786.9424
      2104.9804
   5551508.76248   4313405.04744  23023741.5674   23023736.8064
     -2782.2224
  -4435227.18447  -3452068.69143  23073944.7634   23073942.9314
      2121.5294
   6993225.27749   5429511.71545  22379035.5054   22379030.3064
     -2820.4724
 04  9  1 15 10 45.0010000  0  8G 3G11G14G15G 1G19G25G22
  10237641.80946   7953924.60942  24567701.9354   24567700.3764
     -3927.7194
  -4458991.27748  -3466308.21543  23160723.3964   23160719.7314
      1739.8084
   4177191.76649   3245438.59846  20826190.2394   20826185.9854
     -2216.3204
   9533227.98448   7405850.87144  22212580.2004   22212578.0174
     -4087.9694
  -1503115.69546  -1162960.32042  23915789.9894   23915788.9384
      2101.2344
   5593349.58248   4346008.25844  23031703.8644   23031699.1494
     -2789.3884
  -4466993.61747  -3476821.73843  23067899.7084   23067897.6814
      2117.7624
   7035573.77749   5462510.52745  22387094.6924   22387089.0874
     -2823.2334
 04  9  1 15 11  0.0010000  0  8G 3G11G14G15G 1G19G25G22
  10296566.37546   7999839.80542  24578914.5754   24578912.8964
     -3928.3044
  -4485012.32848  -3486584.34843  23155772.1384   23155768.0014
      1734.7374
   4210537.82849   3271422.53946  20832535.7554   20832531.5564
     -2223.0714
   9594635.21148   7453700.62544  22224265.3334   22224263.3214
     -4093.8154
  -1534578.46146  -1187476.71142  23909803.3804   23909801.6384
      2097.5184
   5635297.19148   4378694.67644  23039686.3564   23039681.4664
     -2796.5074
  -4498703.66047  -3501530.85543  23061865.1144   23061863.6494
      2114.0034
   7077963.25049   5495541.26645  22395160.7474   22395155.3214
     -2825.9654
 04  9  1 15 11 15.0010000  0  8G 3G11G14G15G 1G19G25G22
  10355499.03146   8045761.32842  24590129.0674   24590127.4154
     -3928.8444
  -4510957.33248  -3506801.23843  23150835.0994   23150831.1924
      1729.6674
   4243984.52049   3297484.88746  20838900.3414   20838896.2164
     -2229.7794
   9656129.42648   7501618.17644  22235967.4744   22235965.1924
     -4099.6144
  -1565985.66447  -1211949.86742  23903826.9274   23903825.5094
      2093.8144
   5677350.74248   4411463.64144  23047688.6774   23047683.6424
     -2803.5704
  -4530357.37547  -3526196.07043  23055841.6614   23055840.1104
      2110.2484
   7120393.28549   5528603.61345  22403235.1224   22403230.1884
     -2828.6694
 04  9  1 15 11 30.0010000  0  8G 3G11G14G15G 1G19G25G22
  10414440.09846   8091689.38342  24601345.3414   24601343.7554
     -3929.4044
  -4536825.35248  -3526958.12943  23145912.5134   23145908.9664
      1724.5354
   4277532.30549   3323626.01246  20845284.0754   20845280.1064
     -2236.5194
   9717711.10248   7549603.86744  22247686.2314   22247684.2904
     -4105.4454
  -1597336.48047  -1236379.05542  23897861.8414   23897859.8374
      2090.0544
   5719510.64148   4444315.48044  23055711.5754   23055706.2004
     -2810.6604
  -4561953.84047  -3550816.68443  23049829.4274   23049827.3024
      2106.4314
   7162864.48849   5561698.04345  22411316.9584   22411311.9464
     -2831.4144
 04  9  1 15 11 45.0010000  0  8G 3G11G14G15G 1G19G25G22
  10473388.64846   8137623.28142  24612563.6144   24612561.3764
     -3929.9034
  -4562616.64847  -3547055.23843  23141004.7244   23141000.5834
      1719.4204
   4311180.34049   3349845.25846  20851687.3104   20851683.0834
     -2243.2024
   9779379.48848   7597657.11344  22259421.3884   22259419.0524
     -4111.2264
  -1628631.26646  -1260764.65642  23891906.1464   23891903.9194
      2086.3194
   5761775.94148   4477249.45744  23063754.3564   23063748.9624
     -2817.6874
  -4593493.29348  -3575392.87544  23043827.4664   23043825.3214
      2102.6304
   7205376.38349   5594824.17245  22419406.8254   22419401.3104
     -2834.1264
 04  9  1 15 12  0.0010000  0  8G 3G11G14G15G 1G19G25G22
  10532344.29345   8183562.69942  24623781.6064   24623780.8064
     -3930.3764
  -4588331.02747  -3567092.41843  23136111.1304   23136107.7124
      1714.2924
   4344928.37949   3376142.41846  20858109.6064   20858105.6264
     -2249.8694
   9841134.21148   7645777.65244  22271172.9354   22271170.6104
     -4116.9824
  -1659870.03547  -1285106.52742  23885960.5994   23885959.6854
      2082.5854
   5804146.31348   4510265.30544  23071817.0524   23071812.2244
     -2824.6914
  -4624975.23448  -3599924.25843  23037836.8724   23037834.9314
      2098.7964
   7247928.81349   5627981.89845  22427504.0284   22427498.7394
     -2836.8294
 04  9  1 15 12 15.0010000  0  8G 3G11G14G15G 1G19G25G22
  10591306.57046   8229507.29342  24635001.4974   24635000.9234
     -3930.8184
  -4613968.23048  -3587069.45743  23131232.8564   23131228.8994
      1709.1474
   4378776.19949   3402517.34446  20864550.3174   20864546.3134
     -2256.5214
   9902975.14548   7693965.36344  22282941.0834   22282938.9894
     -4122.7294
  -1691052.57046  -1309404.60242  23880026.9354   23880026.0404
      2078.8364
   5846621.50048   4543362.82044  23079899.8024   23079895.3024
     -2831.6794
  -4656399.38348  -3624410.60244  23031856.9814   23031854.6344
      2094.9434
   7290521.91849   5661171.30545  22435609.3024   22435604.2514
     -2839.5404
 04  9  1 15 12 30.0010000  0  8G 3G11G14G15G 1G19G25G22
  10650275.43846   8275457.02042  24646223.3024   24646222.4934
     -3931.2584
  -4639527.69548  -3606985.91443  23126368.9354   23126365.1344
      1703.9644
   4412723.70349   3428969.93046  20871010.2554   20871006.1734
     -2263.1674
   9964902.32448   7742220.27044  22294725.1614   22294722.8644
     -4128.4794
  -1722178.48047  -1333658.53542  23874104.9744   23874102.7314
      2075.0614
   5889201.36748   4576541.91444  23088002.4894   23087998.4034
     -2838.6584
  -4687765.23048  -3648851.52043  23025888.1304   23025885.9584
      2091.0574
   7333155.81349   5694392.50045  22443722.4114   22443717.3294
     -2842.2604
 04  9  1 15 12 45.0010000  0  8G 3G11G14G15G 1G19G25G22
  10709249.23846   8321410.58242  24657445.6304   24657444.7634
     -3931.5874
  -4665010.41848  -3626842.57843  23121519.6384   23121515.3844
      1698.8484
   4446769.49649   3455499.11746  20877488.8174   20877484.9814
     -2269.7204
  10026914.24648   7790541.21944  22306525.4274   22306523.4314
     -4134.1284
  -1753248.89547  -1357869.25042  23868192.0444   23868189.9154
      2071.3614
   5931884.35248   4609801.34844  23096124.9354   23096120.2944
     -2845.5324
  -4719073.65248  -3673247.68743  23019930.6064   23019928.3884
      2087.2284
   7375829.25449   5727644.51245  22451842.7314   22451837.8214
     -2844.8964
 04  9  1 15 13  0.0010000  0  7G11G14G15G 1G19G25G22
  -4690414.70748  -3646638.14143  23116685.5444   23116681.5134
      1693.6194
   4480914.72349   3482105.77746  20883986.6144   20883982.7634
     -2276.3484
  10089012.03148   7838929.07044  22318342.1464   22318340.6264
     -4139.8524
  -1784262.21547  -1382035.50042  23862289.9354   23862288.2084
      2067.5554
   5974671.48048   4643141.93044  23104267.4584   23104262.4744
     -2852.4754
  -4750322.76248  -3697597.63343  23013983.9744   23013981.6144
      2083.2744
   7418543.71549   5760928.48445  22459970.9814   22459966.2514
     -2847.6314
 04  9  1 15 13 15.0010000  0  7G11G14G15G 1G19G25G22
  -4715741.08247  -3666372.98043  23111866.0914   23111861.9464
      1688.4254
   4515158.39849   3508789.15246  20890503.0134   20890499.1304
     -2282.9124
  10151194.58648   7887382.96944  22330175.5834   22330173.6064
     -4145.5044
  -1815219.17647  -1406157.75842  23856399.8804   23856397.6224
      2063.7974
   6017561.71948   4676562.87944  23112428.7714   23112424.4384
     -2859.3494
  -4781513.23048  -3721901.88343  23008048.8174   23008046.8964
      2079.3654
   7461298.37149   5794243.78945  22468107.1614   22468102.1304
     -2850.3104
 04  9  1 15 13 30.0010000  0  7G11G14G15G 1G19G25G22
  -4740988.00448  -3686045.89543  23107061.7314   23107057.6224
      1683.1284
   4549501.50449   3535550.00846  20897038.2634   20897034.1884
     -2289.5404
  10213462.90248   7935903.70344  22342024.7864   22342022.6774
     -4151.2214
  -1846118.37547  -1430235.09442  23850519.3724   23850517.7044
      2059.9474
   6060555.91848   4710064.82444  23120610.2634   23120605.6734
     -2866.2804
  -4812643.41048  -3746159.16444  23002124.6694   23002122.9934
      2075.3454
   7504094.42249   5827591.33245  22476250.9274   22476245.9974
     -2853.0704
 04  9  1 15 13 45.0010000  0  7G11G14G15G 1G19G25G22
  -4766156.40248  -3705657.63343  23102272.6614   23102268.1304
      1677.8934
   4583942.53549   3562387.16446  20903592.3024   20903588.2084
     -2296.0694
  10275815.57048   7984490.16844  22353890.2554   22353888.1494
     -4156.8454
  -1876960.83247  -1454268.17642  23844650.9424   23844649.2004
      2056.1644
   6103652.57448   4743646.58644  23128811.6534   23128806.9154
     -2873.1104
  -4843714.16448  -3770370.14544  22996212.5674   22996210.3454
      2071.3844
   7546930.67649   5860970.21545  22484402.4034   22484397.5954
     -2855.7504
 04  9  1 15 14  0.0010000  0  7G11G14G15G 1G19G25G22
  -4791245.21148  -3725207.34843  23097497.9114   23097493.6264
      1672.5874
   4618481.87949   3589300.93046  20910164.8174   20910160.6694
     -2302.6234
  10338253.01248   8033142.68844  22365771.5214   22365769.7354
     -4162.4964
  -1907745.84447  -1478256.47343  23838792.5604   23838790.5564
      2052.3344
   6146852.00448   4777308.45744  23137031.9114   23137027.1614
     -2879.9624
  -4874724.42648  -3794533.97743  22990311.2864   22990309.1224
      2067.3514
   7589807.80149   5894380.93845  22492561.8104   22492556.9074
     -2858.4754
 04  9  1 15 14 15.0010000  0  7G11G14G15G 1G19G25G22
  -4816253.09848  -3744694.01244  23092739.7004   23092735.2354
      1667.1924
   4653120.59449   3616292.13346  20916756.4424   20916752.0324
     -2309.2484
  10400776.14548   8081861.97744  22377669.5364   22377667.2824
     -4168.2094
  -1938472.00047  -1502198.95342  23832945.5054   23832943.7004
      2048.4104
   6190154.93848   4811050.98044  23145272.8804   23145267.7004
     -2886.8624
  -4905672.89548  -3818649.66043  22984421.7004   22984419.8374
      2063.2314
   7632726.88749   5927824.36745  22500728.7394   22500724.3334
     -2861.2724
 04  9  1 15 14 30.0010000  0  7G11G14G15G 1G19G25G22
  -4841179.77348  -3764117.39143  23087996.0524   23087992.1854
      1661.7784
   4687858.39549   3643360.53946  20923366.9194   20923362.5364
     -2315.8534
  10463384.68448   8130647.81344  22389583.0364   22389581.0364
     -4173.9034
  -1969139.28947  -1526095.52342  23827110.3414   23827107.8764
      2044.4864
   6233561.05148   4844873.87544  23153532.7164   23153527.3994
     -2893.7414
  -4936559.00848  -3842716.76243  22978544.3174   22978542.2784
      2059.0744
   7675687.95349   5961300.50445  22508904.2714   22508899.3294
     -2864.0714
 04  9  1 15 14 45.0010000  0  7G11G14G15G 1G19G25G22
  -4866026.23848  -3783478.27743  23083268.0674   23083263.9744
      1656.4314
   4722693.57449   3670504.82446  20929995.7784   20929991.5674
     -2322.3454
  10526077.09048   8179499.00444  22401513.2164   22401511.5134
     -4179.4944
  -1999748.77747  -1549947.10242  23821284.8494   23821283.1104
      2040.6334
   6277068.75447   4878775.96944  23161811.4504   23161806.8294
     -2900.5144
  -4967383.90648  -3866736.16043  22972678.4664   22972676.6344
      2054.9934
   7718689.69149   5994808.32845  22517087.0284   22517082.1304
     -2866.7834
 04  9  1 15 15  0.0010000  0  7G11G14G15G 1G19G25G22
  -4890791.63748  -3802775.98843  23078555.1384   23078551.1104
      1651.0274
   4757626.72349   3697725.44546  20936643.3254   20936639.1774
     -2328.8774
  10588853.81648   8228415.90244  22413459.5994   22413457.2434
     -4185.1154
  -2030299.64147  -1573752.97342  23815471.3254   23815469.9154
      2036.7244
   6320678.44147   4912757.50444  23170110.2634   23170105.8454
     -2907.3124
  -4998146.51247  -3890707.02043  22966824.6384   22966822.6424
      2050.8404
   7761732.70348   6028348.31645  22525277.7784   22525273.0094
     -2869.5344
 04  9  1 15 15 15.0010000  0  7G11G14G15G 1G19G25G22
  -4915473.60248  -3822008.69143  23073858.0834   23073854.2084
      1645.4644
   4792659.43848   3725023.66046  20943309.9354   20943305.5634
     -2335.5144
  10651716.51248   8277399.78544  22425421.8024   22425419.7084
     -4190.8464
  -2060789.84047  -1597511.53942  23809668.7714   23809667.5604
      2032.6804
   6364391.74646   4946819.78544  23178428.4034   23178424.0914
     -2914.2204
  -5028844.56248  -3914627.56644  22960982.7714   22960981.0484
      2046.5374
   7804819.12548   6061922.12545  22533476.7864   22533472.1814
     -2872.4284
 04  9  1 15 15 30.0010000  0  7G11G14G15G 1G19G25G22
  -4940073.69548  -3841177.60243  23069177.3414   23069172.6224
      1640.0064
   4827789.68049   3752397.86746  20949994.8414   20949990.4934
     -2342.0164
  10714663.19548   8326449.10944  22437400.2864   22437398.1464
     -4196.4464
  -2091221.05147  -1621224.18742  23803878.3024   23803876.3604
      2028.7474
   6408206.38347   4980961.03144  23186766.3804   23186761.8534
     -2920.9764
  -5059479.49647  -3938498.93044  22955153.6924   22955151.2164
      2042.3294
   7847946.95748   6095528.21145  22541683.8104   22541679.1494
     -2875.1894
 04  9  1 15 15 45.0010000  0  7G11G14G15G 1G19G25G22
  -4964592.58648  -3860283.22343  23064511.4974   23064506.8994
      1634.5934
   4863016.37949   3779847.23846  20956698.3104   20956694.1964
     -2348.4474
  10777692.69148   8375562.96144  22449394.3494   22449392.1464
     -4201.9664
  -2121593.89547  -1644891.34442  23798098.6384   23798096.7784
      2024.8564
   6452121.32047   5015180.43044  23195122.9034   23195118.5874
     -2927.6624
  -5090051.74248  -3962321.45343  22949335.3644   22949333.4194
      2038.1504
   7891115.44549   6129165.97745  22549898.5364   22549894.0444
     -2877.8994
 04  9  1 15 16  0.0010000  0  7G11G14G15G 1G19G25G22
  -4989029.25048  -3879324.78543  23059861.1924   23059856.7044
      1629.1114
   4898339.96549   3807372.10546  20963420.3254   20963416.0674
     -2354.9064
  10840805.40248   8424741.66044  22461404.1224   22461401.8684
     -4207.5144
  -2151907.76247  -1668512.54342  23792329.7314   23792327.9814
      2020.9244
   6496136.74247   5049478.11744  23203499.2314   23203494.2474
     -2934.3614
  -5120560.41848  -3986094.44544  22943530.0364   22943527.6694
      2033.9124
   7934325.12548   6162835.84045  22558120.9814   22558115.8534
     -2880.6454
 04  9  1 15 16 15.0010000  0  7G11G14G15G 1G19G25G22
  -5013384.43048  -3898302.84843  23055226.5214   23055222.3604
      1623.6794
   4933759.36749   3834971.63346  20970160.1854   20970156.1964
     -2361.2934
  10904000.12548   8473984.26244  22473430.0994   22473428.0174
     -4212.9824
  -2182163.37947  -1692088.34442  23786572.0134   23786570.6464
      2017.0414
   6540251.41447   5083853.16044  23211893.7244   23211889.0364
     -2940.9784
  -5151006.19548  -4009818.41444  22937736.3174   22937733.8684
      2029.7184
   7977575.04749   6196537.05545  22566351.1464   22566346.4274
     -2883.3284
 04  9  1 15 16 30.0010000  0  7G11G14G15G 1G19G25G22
  -5037658.44948  -3917217.67243  23050607.4894   23050603.1144
      1618.2684
   4969273.59049   3862645.05146  20976918.3564   20976914.3174
     -2367.6154
  10967276.02748   8523290.12144  22485471.2554   22485469.2044
     -4218.3934
  -2212361.24247  -1715619.16042  23780825.9584   23780824.4274
      2013.1914
   6584464.34047   5118304.76244  23220307.1694   23220302.6884
     -2947.5284
  -5181389.44148  -4033493.67244  22931954.8254   22931952.5404
      2025.5504
   8020864.58249   6230269.14145  22574589.2084   22574584.2744
     -2885.9694
 04  9  1 15 16 45.0010000  0  7G11G14G15G 1G19G25G22
  -5061850.59048  -3936068.68743  23046003.5284   23045999.7044
      1612.8094
   5004882.80149   3890392.47346  20983694.5214   20983690.1734
     -2373.9474
  11030633.28948   8572659.37544  22497527.4664   22497525.5174
     -4223.8174
  -2242500.73847  -1739104.50442  23775090.2714   23775088.8334
      2009.3004
   6628775.64547   5152833.02044  23228739.0604   23228734.5174
     -2954.0874
  -5211709.10948  -4057119.37143  22926185.0674   22926182.9974
      2021.3114
   8064194.20748   6264032.45745  22582834.4194   22582829.5524
     -2888.6424
 04  9  1 15 17  0.0010000  0  7G11G14G15G 1G19G25G22
  -5085962.74648  -3954857.39143  23041414.8724   23041410.7944
      1607.4774
   5040584.54749   3918212.00846  20990488.4194   20990484.1884
     -2380.1164
  11094069.36348   8622090.04744  22509599.1464   22509596.9194
     -4229.0724
  -2272584.06247  -1762546.04342  23769365.3174   23769363.9154
      2005.5554
   6673182.68047   5187435.87944  23237189.5834   23237185.6774
     -2960.4694
  -5241967.27748  -4080697.13744  22920427.0054   22920425.0794
      2017.2114
   8107561.60549   6297825.20745  22591086.9584   22591082.1884
     -2891.1604
 04  9  1 15 17 15.0010000  0  7G11G14G15G 1G19G25G22
  -5109991.78948  -3973581.32443  23036842.8104   23036838.8964
      1601.9364
   5076381.35549   3946105.61746  20997300.3254   20997296.3564
     -2386.4544
  11157586.97348   8671584.25844  22521685.9274   22521683.9784
     -4234.5074
  -2302608.17247  -1785941.45742  23763652.8564   23763650.3604
      2001.6074
   6717688.06648   5222115.35244  23245658.5754   23245654.2904
     -2967.0264
  -5272160.77748  -4104224.52044  22914681.1224   22914679.2044
      2012.9004
   8150969.71149   6331649.68444  22599347.1774   22599342.1494
     -2893.8744
 04  9  1 15 17 30.0010000  0  7G11G14G15G 1G19G25G22
  -5133938.35548  -3992240.98444  23032285.6384   23032281.8924
      1596.4384
   5112272.27349   3974072.55946  21004130.2244   21004126.2984
     -2392.7284
  11221185.00848   8721141.12544  22533787.9354   22533786.2004
     -4239.8694
  -2332573.70347  -1809291.24242  23757950.3024   23757948.8254
      1997.7024
   6762290.59848   5256870.54744  23254146.6064   23254141.8024
     -2973.5024
  -5302289.93448  -4127701.77344  22908947.9974   22908946.2714
      2008.6104
   8194417.64549   6365505.19944  22607615.7164   22607610.1464
     -2896.5294
 04  9  1 15 17 45.0010000  0  7G11G14G15G 1G19G25G22
  -5157802.35948  -4010836.31243  23027744.6224   23027740.4074
      1590.9344
   5148256.89849   4002112.52046  21010977.8644   21010974.1494
     -2398.9754
  11284862.98048   8770760.28944  22545906.0914   22545903.8454
     -4245.1984
  -2362480.82847  -1832595.49642  23752258.3024   23752257.2164
      1993.8084
   6806989.65647   5291700.94544  23262652.0914   23262647.6064
     -2979.9374
  -5332354.72348  -4151128.88344  22903226.9424   22903225.0404
      2004.3194
   8237905.34049   6399391.69944  22615890.6854   22615885.4234
     -2899.1804
 04  9  1 15 18  0.0010000  0  7G11G14G15G 1G19G25G22
  -5181583.29348  -4029366.90243  23023219.1614   23023215.0634
      1585.3964
   5184335.03149   4030225.34046  21017843.1924   21017839.2284
     -2405.2094
  11348620.80148   8820441.67644  22558038.7864   22558036.4814
     -4250.5214
  -2392329.25047  -1855853.99642  23746579.2784   23746576.9744
      1989.8954
   6851785.14548   5326606.48044  23271177.0524   23271171.9584
     -2986.3664
  -5362354.62548  -4174505.41844  22897518.4354   22897516.1224
      1999.9934
   8281432.75449   6433309.14144  22624173.5054   22624168.5714
     -2901.8284
 04  9  1 15 18 15.0010000  0  7G11G14G15G 1G19G25G22
  -5205280.66448  -4047832.38344  23018709.4974   23018705.5634
      1579.8254
   5220506.59849   4058410.96946  21024726.6534   21024722.6614
     -2411.4384
  11412458.37148   8870185.19544  22570186.7314   22570184.2824
     -4255.8384
  -2422118.62947  -1879066.52342  23740910.7394   23740908.6104
      1985.9594
   6896676.91048   5361587.05144  23279719.6304   23279714.9584
     -2992.7844
  -5392289.19948  -4197831.04344  22891821.6774   22891819.5284
      1995.6384
   8325000.11749   6467257.71544  22632464.1144   22632459.1774
     -2904.4914
 04  9  1 15 18 30.0010000  0  7G11G14G15G 1G19G25G22
  -5228894.77048  -4066232.98044  23014216.2004   23014212.3924
      1574.2744
   5256770.86349   4086668.83646  21031627.4114   21031623.3604
     -2417.6184
  11476374.88348   8919990.23444  22582349.3724   22582347.4274
     -4261.1014
  -2451849.43047  -1902233.38742  23735252.7784   23735251.1104
      1982.0534
   6941663.95748   5396641.85544  23288280.2554   23288275.5214
     -2999.1364
  -5422158.60248  -4221105.88344  22886137.9584   22886136.0444
      1991.2934
   8368606.84049   6501236.96144  22640762.4424   22640757.3214
     -2907.1154
 04  9  1 15 18 45.0010000  0  7G11G14G15G 1G19G25G22
  -5252425.04348  -4084568.26244  23009738.5994   23009734.3924
      1568.6854
   5293127.90249   4114998.98446  21038545.8334   21038541.9624
     -2423.8034
  11540370.47348   8969856.88744  22594527.1064   22594525.4074
     -4266.3734
  -2481521.12547  -1925354.16442  23729606.8884   23729604.8844
      1978.1134
   6986746.44948   5431771.03544  23296859.0054   23296854.4624
     -3005.4994
  -5451962.12948  -4244329.39844  22880465.9974   22880464.0524
      1986.9024
   8412253.33649   6535247.18845  22649068.2314   22649063.1264
     -2909.7664
 04  9  1 15 19  0.0010000  0  7G11G14G15G 1G19G25G22
  -5275871.25448  -4102838.03143  23005276.7394   23005273.1494
      1563.0814
   5329577.39549   4143401.18446  21045482.0444   21045477.9894
     -2429.9664
  11604444.76248   9019784.86744  22606720.3884   22606718.7394
     -4271.6194
  -2511133.58647  -1948428.83642  23723971.4424   23723969.4854
      1974.1644
   7031923.85948   5466974.18044  23305455.8494   23305451.7084
     -3011.8274
  -5481699.49648  -4267501.36744  22874806.7474   22874805.0954
      1982.4914
   8455939.48849   6569288.33245  22657381.2474   22657376.4424
     -2912.4104
 04  9  1 15 19 15.0010000  0  7G11G14G15G 1G19G25G22
  -5299234.24248  -4121042.97343  23000830.4894   23000827.3804
      1557.5334
   5366117.91449   4171874.30946  21052435.3564   21052431.5014
     -2436.0354
  11668596.36748   9069773.08644  22618927.9664   22618926.4034
     -4276.7744
  -2540688.03147  -1971458.28542  23718346.7474   23718345.1424
      1970.2964
   7077194.66448   5502250.09044  23314071.2944   23314066.8684
     -3018.0544
  -5511371.52348  -4290622.41444  22869161.0674   22869158.5754
      1978.1354
   8499664.18049   6603359.50045  22665702.1384   22665696.4154
     -2914.9794
 04  9  1 15 19 30.0010000  0  7G11G14G15G 1G19G25G22
  -5322513.14548  -4139182.37143  22996401.0834   22996397.0564
      1551.9274
   5402749.81349   4200418.62946  21059406.1774   21059402.2904
     -2442.1274
  11732825.70348   9119821.88744  22631150.3884   22631148.6854
     -4281.9564
  -2570183.56247  -1994441.81242  23712734.6224   23712732.3534
      1966.3694
   7122559.12948   5537598.98844  23322703.0994   23322699.5754
     -3024.2984
  -5540977.41448  -4313691.93044  22863527.8254   22863524.8604
      1973.7264
   8543428.01649   6637461.16845  22674029.8024   22674024.8884
     -2917.5894
 04  9  1 15 19 45.0010000  0  7G11G14G15G 1G19G25G22
  -5345706.37148  -4157255.01244  22991987.4584   22991983.8604
      1546.2154
   5439474.23849   4229035.06346  21066395.0754   21066390.9194
     -2448.2954
  11797133.71548   9169931.99644  22643388.1774   22643386.2044
     -4287.2014
  -2599618.80147  -2017378.35942  23707133.4894   23707131.4194
      1962.3494
   7168018.33248   5573021.70344  23331353.9114   23331350.0714
     -3030.6144
  -5570515.39548  -4336708.52343  22857906.1774   22857903.7984
      1969.1994
   8587232.23849   6671594.30945  22682365.9424   22682360.8534
     -2920.2824
 04  9  1 15 20  0.0010000  0  7G11G14G15G 1G19G25G22
  -5368814.59848  -4175261.41044  22987590.3334   22987586.2514
      1540.5484
   5476289.93049   4257722.60546  21073400.5754   21073396.2554
     -2454.3794
  11861519.15648   9220102.43044  22655640.2784   22655638.6034
     -4292.3634
  -2628994.60247  -2040268.57842  23701543.1224   23701541.0484
      1958.3874
   7213570.78148   5608517.09844  23340022.5054   23340018.2784
     -3036.8304
  -5599986.08648  -4359672.68744  22852297.9814   22852295.9384
      1964.7134
   8631075.92249   6705758.19544  22690708.6304   22690703.9114
     -2922.9124
 04  9  1 15 20 15.0010000  0  7G11G14G15G 1G19G25G22
  -5391837.45748  -4193201.30543  22983208.9974   22983205.2004
      1534.8574
   5513196.79749   4286481.19546  21080423.7474   21080419.9314
     -2460.4584
  11925982.02348   9270333.21144  22667906.7244   22667905.3174
     -4297.5244
  -2658310.61747  -2063112.25842  23695964.7084   23695962.6424
      1954.4014
   7259216.39848   5644085.06644  23348708.7554   23348704.2594
     -3043.0414
  -5629388.99648  -4382584.02044  22846703.2314   22846700.6534
      1960.1944
   8674959.22749   6739952.95744  22699059.5834   22699054.4744
     -2925.5544
 04  9  1 15 20 30.0010000  0  7G11G14G15G 1G19G25G22
  -5414775.57048  -4211075.14843  22978844.0134   22978840.6774
      1529.2084
   5550193.64149   4315309.89846  21087463.9894   21087459.8454
     -2466.4564
  11990520.99248   9320623.27344  22680188.4354   22680186.4034
     -4302.5984
  -2687567.77347  -2085910.05542  23690396.4114   23690395.2204
      1950.4774
   7304953.73448   5679724.52043  23357412.3174   23357407.0444
     -3049.1564
  -5658724.84848  -4405443.11744  22841120.3804   22841117.8924
      1955.7234
   8718881.11349   6774177.78544  22707417.7784   22707412.5444
     -2928.1264
 04  9  1 15 20 45.0010000  0  7G11G14G15G 1G19G25G22
  -5437628.35548  -4228882.51244  22974495.8104   22974491.6964
      1523.5194
   5587280.34449   4344208.62146  21094521.3564   21094517.2904
     -2472.4474
  12055136.09048   9370972.66044  22692484.4274   22692482.1734
     -4307.6734
  -2716765.69947  -2108661.65642  23684840.7084   23684839.4744
      1946.5284
   7350782.91448   5715435.53144  23366133.4974   23366128.5484
     -3055.2794
  -5687993.07048  -4428249.51644  22835550.6064   22835548.4894
      1951.2154
   8762841.81649   6808432.85945  22715783.3254   22715778.0364
     -2930.7144
 04  9  1 15 21  0.0010000  0  7G11G14G15G 1G19G25G22
  -5460394.78548  -4246622.58244  22970163.0674   22970158.9934
      1517.7624
   5624457.64849   4373177.94146  21101595.8724   21101591.5914
     -2478.4874
  12119827.91848   9421381.84844  22704795.0214   22704792.7984
     -4312.7894
  -2745903.32847  -2131366.31642  23679295.6694   23679295.0674
      1942.5094
   7396704.20748   5751218.32444  23374871.4034   23374867.0404
     -3061.4204
  -5717192.34048  -4451002.18444  22829994.5994   22829992.3804
      1946.6184
   8806842.23449   6842718.88344  22724156.0214   22724151.2594
     -2933.3614
 04  9  1 15 21 15.0010000  0  7G11G14G15G 1G19G25G22
  -5483074.84448  -4264295.35944  22965847.6614   22965843.3374
      1512.0044
   5661724.98049   4402217.42246  21108687.3964   21108683.6144
     -2484.4894
  12184595.93048   9471850.39544  22717120.0674   22717118.1344
     -4317.8674
  -2774980.93447  -2154024.19143  23673762.4744   23673761.2944
      1938.5074
   7442717.04348   5787072.44944  23383627.6224   23383623.2634
     -3067.5224
  -5746322.69148  -4473701.13344  22824451.3254   22824448.6614
      1942.0234
   8850881.98849   6877035.55544  22732536.7314   22732531.7474
     -2935.9844
 04  9  1 15 21 30.0010000  0  7G11G14G15G 1G19G25G22
  -5505668.83248  -4281901.06244  22961548.1304   22961543.5134
      1506.2664
   5699081.48449   4431326.37546  21115795.9354   21115792.3064
     -2490.4344
  12249439.29348   9522377.65644  22729459.1064   22729456.9814
     -4322.8914
  -2803998.84448  -2176635.55542  23668241.3964   23668239.6104
      1934.5274
   7488820.55947   5822997.22743  23392400.8334   23392396.3804
     -3073.5684
  -5775384.47348  -4496346.67244  22818920.7784   22818918.5014
      1937.4524
   8894960.62949   6911382.52344  22740924.3024   22740919.9854
     -2938.5764
 04  9  1 15 21 45.0010000  0  7G11G14G15G 1G19G25G22
  -5528175.09848  -4299438.41844  22957265.1144   22957260.7474
      1500.4184
   5736528.40249   4460505.78146  21122922.1384   21122918.2004
     -2496.4614
  12314359.18448   9572964.54744  22741812.8564   22741811.2744
     -4327.9934
  -2832955.63747  -2199199.30943  23662730.3644   23662729.4744
      1930.4534
   7535015.76248   5858993.46143  23401191.9894   23401187.5214
     -3079.6804
  -5804375.84848  -4518937.33644  22813404.3334   22813401.8804
      1932.7584
   8939079.55549   6945760.88745  22749320.0524   22749315.1384
     -2941.2624
 04  9  1 15 22  0.0010000  0  7G11G14G15G 1G19G25G22
  -5550593.26648  -4316907.12144  22952999.0284   22952994.6654
      1494.5454
   5774065.59049   4489755.53146  21130065.3024   21130061.1344
     -2502.4794
  12379355.47348   9623610.97344  22754181.4584   22754179.3534
     -4333.0864
  -2861850.93047  -2221715.10543  23657232.5674   23657230.8134
      1926.3534
   7581302.52348   5895061.02744  23409999.4034   23409995.5954
     -3085.7844
  -5833296.33248  -4541472.76244  22807900.7634   22807898.3844
      1928.0324
   8983238.85249   6980170.70745  22757723.4744   22757718.6304
     -2943.9534
 04  9  1 15 22 15.0010000  0  7G11G14G15G 1G19G25G22
  -5572924.64548  -4334308.19944  22948749.3724   22948745.6734
      1488.7594
   5811691.15649   4519074.15246  21137225.3564   21137221.2244
     -2508.3714
  12444426.21148   9674315.40644  22766563.7084   22766561.7084
     -4338.0494
  -2890686.35248  -2244184.29343  23651745.4034   23651743.5364
      1922.3614
   7627678.65648   5931198.23444  23418824.8884   23418820.5444
     -3091.7424
  -5862147.32448  -4563954.03944  22802410.4274   22802408.2944
      1923.3994
   9027436.68449   7014610.55945  22766133.9664   22766128.9854
     -2946.5224
 04  9  1 15 22 30.0010000  0  7G11G14G15G 1G19G25G22
  -5595168.08248  -4351640.73844  22944516.7004   22944513.1184
      1482.8964
   5849405.50449   4548461.94946  21144401.8884   21144398.1184
     -2514.2904
  12509571.99648   9725078.31644  22778960.8804   22778958.7744
     -4343.0524
  -2919461.03947  -2266606.12943  23646268.8494   23646268.0134
      1918.3134
   7674144.75048   5967405.55944  23427667.0604   23427662.7314
     -3097.7404
  -5890927.76648  -4586380.33644  22796933.8804   22796931.5014
      1918.6964
   9071674.04749   7049081.20744  22774552.0364   22774547.5054
     -2949.1584
 04  9  1 15 22 45.0010000  0  7G11G14G15G 1G19G25G22
  -5617323.20748  -4368904.47744  22940300.8414   22940297.0404
      1477.0084
   5887208.76649   4577919.03146  21151595.8724   21151591.8214
     -2520.2174
  12574792.78948   9775899.67644  22791371.8644   22791369.9074
     -4348.0534
  -2948174.55548  -2288980.30143  23640805.6224   23640803.4894
      1914.2344
   7720700.64548   6003682.83643  23436526.2714   23436521.8254
     -3103.7264
  -5919636.91048  -4608751.10244  22791470.4664   22791468.3884
      1913.9434
   9115951.16849   7083582.84044  22782977.6694   22782973.1654
     -2951.8084
 04  9  1 15 23  0.0010000  0  7G11G14G15G 1G19G25G22
  -5639392.03548  -4386100.96944  22936101.5754   22936097.1774
      1471.2554
   5925098.32849   4607443.35546  21158805.8414   21158802.3294
     -2525.9714
  12640085.89548   9826777.38744  22803796.6534   22803795.0094
     -4352.8744
  -2976829.18747  -2311308.60543  23635353.0754   23635350.6224
      1910.3094
   7767343.56648   6040027.94143  23445402.3104   23445397.9424
     -3109.5284
  -5948276.70348  -4631067.80944  22786020.7474   22786018.3804
      1909.3204
   9160265.64549   7118113.58245  22791410.4894   22791405.5134
     -2954.2984
 04  9  1 15 23 15.0010000  0  7G11G14G15G 1G19G25G22
  -5661371.57448  -4403227.88344  22931918.4584   22931914.4314
      1465.3034
   5963076.61349   4637036.81346  21166032.6614   21166028.8494
     -2531.8864
  12705453.68448   9877713.29343  22816235.7164   22816234.1224
     -4357.8534
  -3005422.16448  -2333588.84843  23629911.5214   23629909.8884
      1906.1984
   7814075.82448   6076442.64544  23454295.0834   23454290.6104
     -3115.4844
  -5976844.35948  -4653328.30544  22780584.2314   22780581.8994
      1904.5104
   9204620.14549   7152675.50445  22799850.8494   22799846.0564
     -2956.9674
 04  9  1 15 23 30.0010000  0  7G11G14G15G 1G19G25G22
  -5683261.85548  -4420285.24644  22927753.0054   22927749.3684
      1459.3524
   6001143.08249   4666698.98046  21173276.6144   21173272.5604
     -2537.7654
  12770895.70748   9928707.03543  22828688.9814   22828687.6464
     -4362.8024
  -3033953.49647  -2355821.05943  23624482.2004   23624480.3294
      1902.0894
   7860896.87948   6112926.55144  23463205.1614   23463200.8684
     -3121.4044
  -6005339.84048  -4675532.55944  22775162.0134   22775159.7744
      1899.6994
   9249014.47349   7187268.47345  22808299.0284   22808294.2314
     -2959.6224
 04  9  1 15 23 45.0010000  0  7G11G14G15G 1G19G25G22
  -5705064.30948  -4437274.17244  22923604.3804   22923600.1774
      1453.4974
   6039295.73049   4696428.31646  21180537.0364   21180532.6924
     -2543.5104
  12836409.94948   9979757.05543  22841156.3334   22841154.5954
     -4367.6164
  -3062424.81648  -2378006.52343  23619064.3254   23619062.5324
      1898.0884
   7907804.68047   6149478.05944  23472131.0214   23472126.8064
     -3127.1874
  -6033764.44148  -4697681.57844  22769752.9354   22769750.6224
      1894.9734
   9293446.81648   7221891.06344  22816753.9584   22816749.2674
     -2962.1564
 04  9  1 15 24  0.0020000  0  7G11G14G15G 1G19G25G22
  -5726779.34448  -4454194.98444  22919471.4944   22919467.4434
      1447.6694
   6077537.64149   4726227.19946  21187814.1584   21187810.0644
     -2549.4614
  12902001.32848  10030867.19143  22853638.0414   22853636.7404
     -4372.7594
  -3090837.19947  -2400146.05143  23613657.4554   23613655.3614
      1894.1594
   7954802.71548   6186099.86744  23481074.9794   23481070.2564
     -3133.2024
  -6062118.97748  -4719776.01644  22764357.0964   22764354.9364
      1890.3024
   9337920.94549   7256546.20344  22825216.9864   22825212.0964
     -2964.9424
 04  9  1 15 24 15.0020000  0  7G11G14G15G 1G19G25G22
  -5748403.69148  -4471045.13744  22915356.9554   22915353.1274
      1441.6234
   6115863.69149   4756091.64546  21195107.4714   21195103.2444
     -2555.0704
  12967661.02748  10082030.55544  22866132.4474   22866131.2874
     -4377.3134
  -3119186.53947  -2422236.43743  23608262.9164   23608260.8574
      1889.9564
   8001884.53948   6222786.96544  23490034.2524   23490030.0724
     -3138.7884
  -6090399.05948  -4741812.43444  22758975.7294   22758973.2684
      1885.3394
   9382431.04748   7291229.37145  22833687.1274   22833682.4084
     -2967.3404
 04  9  1 15 24 30.0020000  0  7G11G14G15G 1G19G25G22
  -5769938.35948  -4487825.39544  22911259.0334   22911254.9904
      1435.6454
   6154276.19549   4786023.46146  21202417.0574   21202413.0534
     -2560.8344
  13033393.14848  10133250.36344  22878641.0964   22878639.6114
     -4382.1414
  -3147474.55147  -2444279.07443  23602879.8074   23602878.8264
      1885.8674
   8049052.93047   6259541.52344  23499009.9864   23499005.5294
     -3144.5594
  -6118606.22348  -4763792.02044  22753608.0574   22753605.7874
      1880.4784
   9426980.36749   7325943.10944  22842164.5644   22842160.1824
     -2969.9554
 04  9  1 15 24 45.0020000  0  7G11G14G15G 1G19G25G22
  -5791383.75048  -4504536.08644  22907178.1974   22907174.6354
      1429.6934
   6192774.15249   4816021.85246  21209743.2134   21209739.3424
     -2566.5304
  13099196.77748  10184525.87544  22891162.7604   22891161.2794
     -4386.9094
  -3175701.80947  -2466274.31643  23597508.9324   23597507.1394
      1881.8174
   8096306.84447   6296362.72744  23508002.2444   23507997.5574
     -3150.2614
  -6146740.89548  -4785715.13344  22748254.1894   22748251.7404
      1875.6454
   9471568.02348   7360686.71144  22850649.5024   22850644.4594
     -2972.5104
 04  9  1 15 25  0.0020000  0  7G11G14G15G 1G19G25G22
  -5812738.37948  -4521176.06644  22903114.5254   22903110.6584
      1423.6424
   6231358.68049   4846087.71146  21217085.3384   21217081.3074
     -2572.3024
  13165072.85948  10235857.85244  22903699.2444   22903697.2364
     -4391.7394
  -3203866.91847  -2488221.18443  23592148.8934   23592147.4634
      1877.6744
   8143647.17248   6333251.25844  23517010.9244   23517006.0804
     -3156.0224
  -6174801.50848  -4807580.52744  22742913.9324   22742911.8814
      1870.7084
   9516195.19549   7395461.11344  22859141.8854   22859136.8614
     -2975.1454
 04  9  1 15 25 15.0020000  0  7G11G14G15G 1G19G25G22
  -5834002.24248  -4537745.30544  22899068.2444   22899064.0104
      1417.5914
   6270029.44149   4876220.76646  21224443.9794   21224440.3344
     -2578.0514
  13231020.95748  10287245.93844  22916248.9004   22916246.6154
     -4396.5404
  -3231969.93447  -2510119.60943  23586801.1114   23586799.6664
      1873.5344
   8191073.49247   6370206.79744  23526036.0884   23526031.4284
     -3161.7554
  -6202787.83648  -4829388.04744  22737588.5184   22737586.3694
      1865.7554
   9560861.83649   7430266.27344  22867641.4164   22867636.9984
     -2977.7764
 04  9  1 15 25 30.0020000  0  7G11G14G15G 1G19G25G22
  -5855174.69548  -4554243.32044  22895038.9324   22895035.5024
      1411.4974
   6308786.29349   4906420.89846  21231819.6044   21231815.0924
     -2583.7904
  13297041.07448  10338690.14844  22928812.0024   22928809.7914
     -4401.3414
  -3260010.43047  -2531969.37143  23581464.9474   23581463.7214
      1869.3664
   8238585.71547   6407229.27044  23535077.4324   23535072.6864
     -3167.4824
  -6230699.38348  -4851137.29344  22732277.3934   22732275.2364
      1860.7704
   9605568.18449   7465102.35945  22876148.8384   22876144.1004
     -2980.4234
 04  9  1 15 25 45.0020000  0  7G11G14G15G 1G19G25G22
  -5876255.71948  -4570670.09844  22891027.4084   22891023.5254
      1405.4024
   6347628.59449   4936687.62546  21239210.6664   21239207.0644
     -2589.4874
  13363132.59848  10390190.00843  22941388.4714   22941386.3184
     -4406.1024
  -3287988.78947  -2553770.69542  23576140.8224   23576139.4634
      1865.2244
   8286183.00047   6444318.02744  23544134.5494   23544130.2484
     -3173.1524
  -6258536.14148  -4872828.25844  22726979.9634   22726977.7524
      1855.7844
   9650313.85949   7499969.09445  22884663.9864   22884659.1504
     -2983.0454
 04  9  1 15 26  0.0020000  0  7G11G14G15G 1G19G25G22
  -5897245.90648  -4587026.08244  22887033.0724   22887029.0884
      1399.3464
   6386555.36349   4967020.16046  21246618.2364   21246614.2684
     -2595.1184
  13429294.46548  10441744.67643  22953978.8614   22953977.1504
     -4410.7914
  -3315905.74247  -2575524.15642  23570828.9164   23570826.8384
      1861.1304
   8333864.18847   6481472.16443  23553207.8144   23553203.5104
     -3178.7464
  -6286298.68448  -4894461.40244  22721697.1894   22721694.8734
      1850.8364
   9695098.05949   7534865.85245  22893185.8544   22893181.2564
     -2985.6134
 04  9  1 15 26 15.0020000  0  7G11G14G15G 1G19G25G22
  -5918145.87948  -4603311.78144  22883056.1434   22883052.0574
      1393.3324
   6425565.60249   4997417.73846  21254041.5964   21254037.9434
     -2600.6834
  13495525.64148  10493353.34843  22966582.2444   22966579.9514
     -4415.4124
  -3343761.82447  -2597230.21543  23565527.2914   23565526.3654
      1857.0724
   8381628.19147   6518690.84443  23562296.9714   23562292.6824
     -3184.2674
  -6313987.35548  -4916036.97744  22716427.7524   22716425.8304
      1845.9114
   9739920.03949   7569792.04744  22901715.0724   22901710.1974
     -2988.1324
 04  9  1 15 26 30.0020000  0  7G11G14G15G 1G19G25G22
  -5938955.46948  -4619527.05544  22879096.1894   22879092.1464
      1387.3064
   6464658.84449   5027879.99646  21261481.1194   21261477.0724
     -2606.2164
  13561825.64548  10545015.65243  22979198.5104   22979196.6114
     -4420.0004
  -3371557.16847  -2618888.89842  23560238.2994   23560236.3504
      1853.0234
   8429474.44547   6555973.59443  23571402.0254   23571397.6394
     -3189.7504
  -6341601.92648  -4937554.81644  22711173.2914   22711171.2994
      1840.9714
   9784779.56649   7604747.50044  22910251.9554   22910246.9084
     -2990.6354
 04  9  1 15 26 45.0020000  0  7G11G14G15G 1G19G25G22
  -5959671.90248  -4635669.72744  22875154.1194   22875150.1354
      1381.0964
   6503837.30149   5058408.65246  21268936.2914   21268932.6434
     -2611.8974
  13628196.63748  10596733.26243  22991828.3224   22991826.5184
     -4424.7334
  -3399289.08647  -2640498.19943  23554960.4244   23554959.6234
      1848.7954
   8477404.98848   6593322.03944  23580522.7604   23580518.4364
     -3195.3704
  -6369139.75448  -4959012.85244  22705933.2524   22705930.9714
      1835.8554
   9829679.10949   7639734.13744  22918795.9084   22918791.1824
     -2993.3034
 04  9  1 15 27  0.0020000  0  7G11G14G15G 1G19G25G22
  -5980296.27048  -4651740.67244  22871229.0104   22871225.0964
      1374.9584
   6543099.48849   5089002.55546  21276407.7754   21276403.9004
     -2617.4794
  13694637.14148  10648505.05543  23004471.5884   23004469.8614
     -4429.3674
  -3426958.82447  -2662059.02743  23549695.7054   23549694.3264
      1844.6494
   8525418.33247   6630735.00443  23589659.6504   23589654.8264
     -3200.8904
  -6396601.82448  -4980411.86344  22700707.1354   22700705.0534
      1830.8054
   9874617.36749   7674750.94144  22927347.5024   22927342.4284
     -2995.8844
 04  9  1 15 27 15.0020000  0  7G11G14G15G 1G19G25G22
  -6000827.25448  -4667738.85244  22867322.2214   22867318.3544
      1368.7324
   6582446.17249   5119662.30146  21283894.9794   21283891.5884
     -2623.1124
  13761147.94548  10700331.61343  23017128.1274   23017126.4044
     -4434.0544
  -3454565.21947  -2683570.49643  23544442.4714   23544441.4124
      1840.4264
   8573515.12147   6668212.98443  23598811.8774   23598807.1114
     -3206.4534
  -6423986.66448  -5001750.68044  22695495.9324   22695494.0334
      1825.6564
   9919595.44549   7709798.77044  22935906.0494   22935901.4434
     -2998.5394
 04  9  1 15 27 30.0020000  0  7G11G14G15G 1G19G25G22
  -6021265.81648  -4683665.01244  22863432.8694   22863428.8384
      1362.5714
   6621875.86749   5150386.72746  21291398.1824   21291394.7484
     -2628.6464
  13827727.46548  10752211.72343  23029797.9714   23029796.2524
     -4438.6354
  -3482109.33247  -2705033.43743  23539200.9554   23539199.3264
      1836.2744
   8621693.71947   6705754.70743  23607980.2604   23607975.8184
     -3211.9074
  -6451295.27048  -5023030.10244  22690299.4794   22690297.2134
      1820.5744
   9964612.07048   7744876.62944  22944472.9084   22944467.9944
     -3001.1084
 04  9  1 15 27 45.0020000  0  7G11G14G15G 1G19G25G22
  -6041612.48848  -4699519.55944  22859560.9944   22859557.3304
      1356.4454
   6661387.59849   5181175.08246  21298917.0254   21298913.0964
     -2634.1154
  13894374.68848  10804144.57843  23042480.3614   23042478.7014
     -4443.1484
  -3509591.89847  -2726448.43442  23533971.0254   23533969.3504
      1832.1714
   8669952.92247   6743359.25043  23617163.9864   23617159.1824
     -3217.2804
  -6478528.07848  -5044250.45344  22685117.0964   22685114.9364
      1815.5214
  10009666.40249   7779983.87944  22953046.3464   22953041.4394
     -3003.6224
 04  9  1 15 28  0.0020000  0  7G11G14G15G 1G19G25G22
  -6061867.18448  -4715302.44944  22855706.7294   22855702.8264
      1350.3134
   6700980.77349   5212026.90246  21306451.4244   21306447.3304
     -2639.5454
  13961089.09848  10856129.80943  23055175.7914   23055173.8184
     -4447.6274
  -3537013.06247  -2747815.58642  23528753.1824   23528751.2644
      1828.0784
   8718292.07047   6781026.07843  23626362.3774   23626357.6434
     -3222.6104
  -6505685.04749  -5065411.72344  22679949.4714   22679946.8854
      1810.4654
  10054758.18049   7815120.30544  22961626.7134   22961622.6354
     -3006.1184
 04  9  1 15 28 15.0020000  0  7G11G14G15G 1G19G25G22
  -6082026.68748  -4731011.15644  22851870.6744   22851866.7174
      1343.9674
   6740658.24249   5242944.39546  21314001.9394   21313997.5844
     -2645.1654
  14027873.48048  10908169.54343  23067884.6274   23067882.9594
     -4452.2924
  -3564369.56248  -2769132.33643  23523547.3074   23523545.4594
      1823.7674
   8766713.89847   6818757.34043  23635576.4004   23635572.3184
     -3228.1224
  -6532762.71548  -5086511.19544  22674796.8854   22674794.2324
      1805.1784
  10099890.54349   7850288.35544  22970215.3854   22970210.6864
     -3008.8244
 04  9  1 15 28 30.0020000  0  7G11G14G15G 1G19G25G22
  -6102092.70348  -4746647.02044  22848051.8464   22848048.1354
      1337.7344
   6780417.50849   5273925.62946  21321568.0724   21321563.8734
     -2650.6184
  14094725.37148  10960261.88743  23080606.1274   23080604.6354
     -4456.7934
  -3591663.50448  -2790400.34043  23518353.4864   23518351.6974
      1819.5964
   8815215.91047   6856551.07843  23644806.4794   23644802.0884
     -3233.4674
  -6559762.88748  -5107550.28544  22669658.6434   22669656.2254
      1800.0114
  10145061.19549   7885486.24644  22978811.2054   22978806.4514
     -3011.3774
 04  9  1 15 28 45.0020000  0  7G11G14G15G 1G19G25G22
  -6122065.10548  -4762209.93444  22844251.3074   22844248.0254
      1331.4934
   6820258.37949   5304970.45746  21329149.5414   21329145.3224
     -2656.0584
  14161644.48848  11012406.61343  23093340.6114   23093338.7994
     -4461.2744
  -3618894.77348  -2811619.51243  23513171.2834   23513169.9674
      1815.4184
   8863797.74247   6894407.01243  23654051.0184   23654047.2834
     -3238.7894
  -6586685.35948  -5128528.81644  22664535.4474   22664532.9594
      1794.8324
  10190270.14149   7920713.97744  22987414.0334   22987409.5844
     -3013.9304
 04  9  1 15 29  0.0020000  0  7G11G14G15G 1G19G25G22
  -6141944.20348  -4777700.13744  22840468.8774   22840464.7954
      1325.2734
   6860180.00049   5336078.20746  21336746.1744   21336742.3934
     -2661.4414
  14228629.99648  11064603.07043  23106087.4864   23106086.0374
     -4465.7014
  -3646063.95348  -2832790.29743  23508001.4324   23507999.5574
      1811.2794
   8912458.46947   6932324.42243  23663310.9714   23663307.0064
     -3244.0484
  -6613530.43048  -5149447.05144  22659426.9394   22659424.3074
      1789.6714
  10235516.91449   7955971.18444  22996024.6894   22996019.5024
     -3016.4524
 04  9  1 15 29 15.0020000  0  7G11G14G15G 1G19G25G22
  -6161729.66048  -4793117.37944  22836703.4004   22836699.7444
      1319.0304
   6900182.15249   5367248.71146  21344358.2834   21344354.2524
     -2666.8104
  14295681.62948  11116851.05943  23118847.3074   23118845.5684
     -4470.1094
  -3673170.84448  -2853912.54343  23502843.1664   23502840.9474
      1807.1264
   8961197.55547   6970302.89843  23672585.6274   23672581.3504
     -3249.2724
  -6640297.65648  -5170304.62144  22654333.3464   22654330.7564
      1784.4824
  10280801.39849   7991257.77744  23004641.5184   23004636.9324
     -3018.9664
 04  9  1 15 29 30.0020000  0  7G11G14G15G 1G19G25G22
  -6181419.84848  -4808460.37544  22832956.5494   22832952.7874
      1312.6794
   6940265.93049   5398482.80946  21351985.9944   21351982.0144
     -2672.2524
  14362800.39848  11169151.35943  23131619.3304   23131618.0804
     -4474.5854
  -3700214.04747  -2874985.17643  23497696.7054   23497695.1234
      1802.8804
   9010016.14547   7008343.33243  23681875.4864   23681870.9754
     -3254.5734
  -6666985.45348  -5191100.28944  22649254.7054   22649252.2174
      1779.1864
  10326124.96549   8026574.81644  23013266.8544   23013261.8934
     -3021.5714
 04  9  1 15 29 45.0020000  0  7G11G14G15G 1G19G25G22
  -6201015.77048  -4823729.93744  22829227.6434   22829223.9044
      1306.3954
   6980429.90249   5429779.41046  21359628.8934   21359624.8144
     -2677.5984
  14429984.89848  11221502.87943  23144404.0334   23144402.7754
     -4478.9674
  -3727194.55948  -2896008.94143  23492563.0644   23492561.1544
      1798.7014
   9058912.63747   7046444.44943  23691180.0884   23691175.6864
     -3259.7664
  -6693594.62948  -5211834.71144  22644191.0334   22644188.5964
      1773.9454
  10371486.44148   8061921.40244  23021898.3544   23021893.7684
     -3024.0984
 04  9  1 15 30  0.0020000  0  7G11G14G15G 1G19G25G22
  -6220516.10248  -4838925.00044  22825516.7214   22825513.3184
      1300.0224
   7020674.85549   5461139.10546  21367287.4164   21367283.6744
     -2682.9974
  14497235.93048  11273906.25043  23157201.8544   23157200.1744
     -4483.4024
  -3754111.27348  -2916983.00043  23487440.9244   23487439.0804
      1794.4484
   9107887.75447   7084606.85243  23700499.9554   23700495.4984
     -3265.0084
  -6720123.84448  -5232506.81644  22639142.7604   22639140.5184
      1768.6144
  10416886.91848   8097298.37944  23030537.9164   23030533.4794
     -3026.6984
 04  9  1 15 30 15.0020000  0  7G11G14G15G 1G19G25G22
  -6239922.19148  -4854046.62944  22821824.1974   22821820.4754
      1293.7394
   7060998.86749   5492560.41046  21374960.7834   21374957.3304
     -2688.2674
  14564551.59848  11326359.98043  23170011.1274   23170009.7954
     -4487.7114
  -3780965.70748  -2937908.53943  23482330.3144   23482328.8144
      1790.2964
   9156939.46147   7122828.93443  23709834.3304   23709829.9124
     -3270.1144
  -6746574.41448  -5253117.64144  22634109.5964   22634107.3964
      1763.3714
  10462324.82849   8132704.51644  23039184.8074   23039180.1464
     -3029.1944
 04  9  1 15 30 30.0020000  0  7G11G14G15G 1G19G25G22
  -6259233.76248  -4869094.60544  22818149.3694   22818145.5724
      1287.4384
   7101401.71949   5524043.13346  21382649.1354   21382645.4594
     -2693.5234
  14631931.60948  11378863.84843  23182833.7444   23182831.8224
     -4492.0014
  -3807757.74648  -2958785.44943  23477232.2604   23477230.6974
      1786.1364
   9206067.34047   7161110.34843  23719182.7134   23719178.7954
     -3275.1924
  -6772946.04748  -5273666.94544  22629090.8854   22629088.6894
      1758.1094
  10507800.10949   8168139.77344  23047838.0254   23047833.5764
     -3031.6854
 04  9  1 15 30 45.0020000  0  7G11G14G15G 1G19G25G22
  -6278450.33648  -4884068.56244  22814492.3774   22814488.4594
      1281.1054
   7141883.37949   5555587.28146  21390352.5884   21390349.0684
     -2698.7774
  14699375.82448  11431417.74643  23195667.7444   23195666.0334
     -4496.2814
  -3834487.06648  -2979613.46943  23472146.0334   23472144.3654
      1781.9554
   9255271.21147   7199450.98843  23728546.4244   23728542.1434
     -3280.2584
  -6799238.19948  -5294154.33244  22624087.7754   22624085.4714
      1752.8104
  10553312.89148   8203604.25444  23056498.6044   23056494.2014
     -3034.1854
 04  9  1 15 31  0.0020000  0  7G11G14G15G 1G19G25G22
  -6297571.95748  -4898968.53544  22810853.5724   22810850.1044
      1274.7754
   7182443.23849   5587192.35946  21398070.9864   21398067.3544
     -2703.9914
  14766883.71548  11484021.25843  23208513.9004   23208512.1074
     -4500.5264
  -3861153.93448  -3000392.86343  23467070.6974   23467069.6114
      1777.7914
   9304550.37947   7237850.30943  23737923.2214   23737919.6544
     -3285.2784
  -6825450.82448  -5314579.73044  22619099.5884   22619097.3774
      1747.5084
  10598862.87549   8239097.72344  23065167.0024   23065162.2834
     -3036.6664
 04  9  1 15 31 15.0020000  0  7G11G14G15G 1G19G25G22
  -6316597.73048  -4913793.80944  22807233.1974   22807229.6544
      1268.3854
   7223081.69949   5618858.68046  21405804.0184   21405800.4864
     -2709.2314
  14834455.64848  11536674.67643  23221372.3384   23221370.5924
     -4504.7964
  -3887757.61348  -3021122.97343  23462009.1664   23462007.3144
      1773.5794
   9353905.17247   7276308.54743  23747315.7054   23747311.1584
     -3290.3204
  -6851583.14548  -5334942.56644  22614126.6114   22614124.6624
      1742.1554
  10644450.72348   8274620.69544  23073841.9864   23073837.2524
     -3039.1904
 04  9  1 15 31 30.0020000  0  7G11G14G15G 1G19G25G22
  -6335527.88348  -4928544.57444  22803631.0104   22803627.0454
      1262.0104
   7263798.03549   5650585.68846  21413552.4714   21413548.4824
     -2714.4224
  14902090.84048  11589377.37943  23234243.1274   23234241.3774
     -4509.0134
  -3914298.43748  -3041804.13743  23456958.4164   23456955.9824
      1769.3884
   9403334.76247   7314825.08643  23756721.9084   23756717.5724
     -3295.3064
  -6877635.31248  -5355242.94944  22609169.3464   22609167.0374
      1736.8114
  10690076.02048   8310172.84844  23082524.4794   23082519.8384
     -3041.6864
 04  9  1 15 31 45.0020000  0  7G11G14G15G 1G19G25G22
  -6354362.44948  -4943220.86344  22800046.6824   22800043.2444
      1255.6384
   7304591.78549   5682373.02346  21421314.8774   21421311.6544
     -2719.5834
  14969788.73048  11642128.94543  23247125.7294   23247123.9084
     -4513.1934
  -3940776.61747  -3062436.48043  23451919.5184   23451918.0104
      1765.2124
   9452838.47747   7353399.36343  23766142.2294   23766137.9824
     -3300.2484
  -6903607.10948  -5375480.69944  22604227.0024   22604224.9364
      1731.4534
  10735738.32848   8345753.83644  23091213.7754   23091208.8774
     -3044.1544
 04  9  1 15 32  0.0020000  0  7G11G14G15G 1G19G25G22
  -6373101.15248  -4957822.44944  22796480.6974   22796476.9984
      1249.2474
   7345462.65249   5714220.43846  21429092.2054   21429089.0294
     -2724.7244
  15037549.01648  11694929.11743  23260019.9554   23260018.4714
     -4517.3524
  -3967192.02747  -3083019.91043  23446892.6504   23446891.0644
      1761.0274
   9502415.89147   7392031.07843  23775576.4394   23775572.3814
     -3305.1614
  -6929498.38348  -5395655.70744  22599299.8384   22599297.9434
      1726.0854
  10781437.64849   8381363.68044  23099910.1664   23099905.2954
     -3046.6214
 04  9  1 15 32 15.0020000  0  7G11G14G15G 1G19G25G22
  -6391744.64148  -4972349.85244  22792933.1114   22792929.1234
      1242.8994
   7386409.59849   5746127.13746  21436884.3464   21436880.8464
     -2729.7964
  15105370.57848  11747777.05143  23272926.0804   23272924.6394
     -4521.4374
  -3993545.36746  -3103554.96143  23441877.7994   23441876.4824
      1756.8894
   9552065.85247   7430719.32043  23785024.4864   23785020.7294
     -3309.9974
  -6955309.50047  -5415768.25044  22594388.1584   22594386.0414
      1720.7414
  10827173.26649   8417001.79744  23108613.2444   23108608.5374
     -3049.0414
 04  9  1 15 32 30.0020000  0  7G11G14G15G 1G19G25G22
  -6410291.45348  -4986801.91444  22789403.8464   22789400.1864
      1236.4544
   7427433.30149   5778093.64846  21444691.1744   21444687.3184
     -2734.9144
  15173254.26248  11800673.37943  23285843.5104   23285842.9084
     -4525.5794
  -4019835.46147  -3124040.74643  23436875.2444   23436873.3264
      1752.6734
   9601789.04347   7469464.63343  23794486.5184   23794482.5724
     -3314.8794
  -6981039.12948  -5435817.29344  22589491.9164   22589489.7794
      1715.3094
  10872946.24249   8452669.02044  23117323.0574   23117318.6314
     -3051.5324
 04  9  1 15 32 45.0020000  0  7G11G14G15G 1G19G25G22
  -6428740.31248  -5001177.65244  22785893.0644   22785889.4864
      1229.9244
   7468534.58649   5810120.62546  21452512.0254   21452508.3934
     -2740.0864
  15241200.76648  11853618.66843  23298773.9864   23298772.5764
     -4529.7674
  -4046061.27347  -3144476.43043  23431884.4554   23431882.7874
      1748.3884
   9651586.12548   7508267.50844  23803963.3384   23803958.9044
     -3319.8054
  -7006685.91448  -5455801.79344  22584611.6504   22584609.3964
      1709.7864
  10918757.48449   8488366.06344  23126041.1434   23126036.7444
     -3054.0834
 04  9  1 15 33  0.0020000  0  7G11G14G15G 1G19G25G22
  -6447092.12948  -5015477.77344  22782400.9004   22782397.4204
      1223.4544
   7509712.09449   5842206.98046  21460348.2684   21460344.5024
     -2745.1674
  15309208.70348  11906611.81643  23311715.2294   23311713.7914
     -4533.8624
  -4072223.79746  -3164862.80943  23426905.6894   23426904.2094
      1744.1684
   9701455.54347   7547126.75843  23813452.6824   23813448.7094
     -3324.6284
  -7032250.73448  -5475722.41444  22579746.8074   22579744.5494
      1704.3214
  10964605.93048   8524092.10244  23134765.6114   23134761.3224
     -3056.5634
 04  9  1 15 33 15.0020000  0  7G11G14G15G 1G19G25G22
  -6465345.93748  -5029701.52044  22778927.3074   22778923.3304
      1216.9214
   7550966.24249   5874353.06646  21468198.5884   21468194.6744
     -2750.2774
  15377278.41848  11959653.11743  23324668.4794   23324667.1194
     -4537.9814
  -4098322.34448  -3185199.31643  23421939.5024   23421937.5254
      1739.9034
   9751397.47347   7586042.51643  23822956.3144   23822952.3504
     -3329.4624
  -7057732.72348  -5495578.49644  22574897.6584   22574895.1354
      1698.7994
  11010492.18848   8559847.60244  23143497.8224   23143493.0104
     -3059.0844
 04  9  1 15 33 30.0020000  0  7G11G14G15G 1G19G25G22
  -6483501.84448  -5043848.97744  22775472.4244   22775468.6394
      1210.3944
   7592296.37149   5906558.35546  21476063.4794   21476059.6464
     -2755.3424
  15445409.39548  12012742.15643  23337633.4244   23337632.0844
     -4542.0654
  -4124357.02046  -3205486.08243  23416985.0964   23416983.6394
      1735.6454
   9801411.29747   7625014.28544  23832473.9004   23832469.9044
     -3334.2554
  -7083131.81648  -5515369.99244  22570064.1894   22570062.0724
      1693.2734
  11056416.00449   8595632.36744  23152236.7054   23152231.9244
     -3061.5884
 04  9  1 15 33 45.0020000  0  7G11G14G15G 1G19G25G22
  -6501559.03948  -5057919.52344  22772036.3614   22772032.0414
      1203.8134
   7633702.86349   5938823.14546  21483942.7834   21483939.1234
     -2760.4334
  15513601.85548  12065879.09443  23350609.9944   23350608.6504
     -4546.1644
  -4150327.25447  -3225722.61343  23412043.1584   23412041.3734
      1731.3494
   9851497.21948   7664042.23844  23842004.8614   23842001.1464
     -3339.0614
  -7108447.10248  -5535096.17644  22565247.0644   22565244.8464
      1687.6864
  11102377.91848   8631446.81644  23160982.5414   23160978.3184
     -3064.1284
 04  9  1 15 34  0.0020000  0  7G11G14G15G 1G19G25G22
  -6519518.24648  -5071913.71144  22768619.0414   22768614.4124
      1197.2804
   7675184.43849   5971146.44146  21491836.6664   21491832.9474
     -2765.4384
  15581854.52048  12119062.95343  23363598.0964   23363597.0334
     -4550.1784
  -4176233.98848  -3245909.67243  23407112.8544   23407111.3894
      1727.1164
   9901653.82048   7703125.27344  23851549.4864   23851545.6544
     -3343.7734
  -7133679.37948  -5554757.68444  22560445.8074   22560443.3144
      1682.1524
  11148376.81348   8667290.09444  23169736.1894   23169732.0294
     -3066.5934
 04  9  1 15 34 15.0020000  0  7G11G14G15G 1G19G25G22
  -6537378.94148  -5085831.14544  22765219.7604   22765216.0804
      1190.7134
   7716741.28149   6003528.39146  21499744.7444   21499740.8964
     -2770.4564
  15650167.53148  12172293.82843  23376597.5964   23376596.6974
     -4554.2014
  -4202076.68448  -3266046.80943  23402195.7914   23402193.8344
      1722.8464
   9951881.15247   7742263.42244  23861107.1194   23861103.3114
     -3348.4894
  -7158827.84448  -5574353.88344  22555660.0494   22555657.4864
      1676.5644
  11194413.21148   8703162.58644  23178496.8774   23178491.9244
     -3069.0934
 04  9  1 15 34 30.0020000  0  7G11G14G15G 1G19G25G22
  -6555141.55148  -5099672.13744  22761839.8384   22761835.9164
      1184.1744
   7758372.36749   6035968.18846  21507666.6894   21507663.2134
     -2775.4064
  15718539.81348  12225570.88343  23389608.4864   23389607.2294
     -4558.1524
  -4227855.99248  -3286134.58243  23397289.8544   23397288.3344
      1718.6214
  10002178.05947   7781455.75844  23870678.5804   23870674.5334
     -3353.1274
  -7183892.87548  -5593885.07044  22550890.1894   22550887.7444
      1671.0024
  11240486.31649   8739063.68444  23187264.4164   23187259.5064
     -3071.5404
 04  9  1 15 34 45.0020000  0  7G11G14G15G 1G19G25G22
  -6572803.68048  -5113434.83644  22758478.7834   22758475.0804
      1177.4754
   7800079.47349   6068467.22346  21515603.3464   21515599.6544
     -2780.4744
  15786973.26248  12278895.59843  23402630.7134   23402629.8964
     -4562.2304
  -4253569.66848  -3306171.20743  23392396.1974   23392395.1784
      1714.2454
  10052546.27048   7820703.68044  23880263.5104   23880259.4044
     -3357.8814
  -7208872.18749  -5613349.46144  22546137.0574   22546134.5764
      1665.2874
  11286598.26248   8774995.04344  23196038.8694   23196034.3034
     -3074.1304
 04  9  1 15 35  0.0020000  0  7G11G14G15G 1G19G25G22
  -6590367.55148  -5127120.96944  22755136.0644   22755132.9594
      1170.9254
   7841860.09449   6101023.53546  21523553.6434   21523550.2324
     -2785.3754
  15855465.09048  12332265.81643  23415664.6274   23415663.4634
     -4566.1224
  -4279220.03547  -3326158.49243  23387515.5414   23387514.3464
      1710.0244
  10102983.02348   7860005.01244  23889861.0574   23889857.1394
     -3362.4504
  -7233767.87148  -5632748.68044  22541399.2754   22541396.9434
      1659.7124
  11332746.48849   8810954.68844  23204820.5884   23204816.1234
     -3076.5484
 04  9  1 15 35 15.0020000  0  7G11G14G15G 1G19G25G22
  -6607830.32048  -5140728.32444  22751813.3144   22751809.4984
      1164.1854
   7883716.22349   6133638.69546  21531518.8224   21531514.7954
     -2790.4094
  15924017.44148  12385683.21143  23428709.4634   23428708.8144
     -4570.1574
  -4304804.62146  -3346094.52343  23382647.4084   23382645.7874
      1705.6394
  10153490.23448   7899361.23843  23899472.0574   23899468.3854
     -3367.1474
  -7258577.25448  -5652080.66445  22536678.3544   22536676.0294
      1653.9594
  11378933.50449   8846944.54344  23213609.8934   23213605.1464
     -3079.1344
 04  9  1 15 35 30.0020000  0  7G11G14G15G 1G19G25G22
  -6625194.36748  -5154258.75444  22748509.0644   22748505.1744
      1157.6034
   7925645.20749   6166310.62946  21539497.6194   21539493.8934
     -2795.2664
  15992627.51248  12439145.55943  23441765.6044   23441764.9284
     -4574.0054
  -4330325.80948  -3365981.16443  23377790.8304   23377789.0964
      1701.4124
  10204065.27747   7938770.32444  23909096.3934   23909092.4904
     -3371.6704
  -7283302.35249  -5671346.96945  22531973.1584   22531970.9164
      1648.3404
  11425156.93048   8882962.77344  23222405.6824   23222401.0104
     -3081.5624
 04  9  1 15 35 45.0020000  0  7G11G14G15G 1G19G25G22
  -6642457.23848  -5167710.34444  22745223.9084   22745220.0964
      1150.8584
   7967648.89149   6199040.76646  21547490.6114   21547486.6864
     -2800.2464
  16061297.25848  12492654.41043  23454833.1194   23454831.9434
     -4577.9834
  -4355781.29748  -3385816.60943  23372946.5724   23372944.5254
      1697.0334
  10254709.88747   7978233.61743  23918733.4554   23918729.7874
     -3376.3074
  -7307940.83248  -5690545.77345  22527284.7444   22527282.3964
      1642.5654
  11471418.85948   8919011.00844  23231208.9244   23231204.3304
     -3084.1294
 04  9  1 15 36  0.0020000  0  7G11G14G15G 1G19G25G22
  -6659619.55148  -5181083.57844  22741958.3224   22741954.4714
      1144.1544
   8009726.22749   6231828.28546  21555497.6504   21555493.9594
     -2805.1564
  16130025.47748  12546208.82843  23467912.0804   23467910.6274
     -4581.8814
  -4381171.97748  -3405601.53543  23368114.9944   23368113.2954
      1692.7124
  10305422.75047   8017750.08644  23928384.1194   23928379.8774
     -3380.8584
  -7332493.23449  -5709677.51245  22522612.4394   22522610.2714
      1636.8274
  11517718.37148   8955088.53144  23240019.5254   23240015.3894
     -3086.6344
 04  9  1 15 36 15.0020000  0  7G11G14G15G 1G19G25G22
  -6676681.11748  -5194378.31244  22738711.4554   22738707.6824
      1137.4384
   8051876.84449   6264672.91446  21563518.7604   21563515.3854
     -2810.0414
  16198811.63348  12599808.38743  23481001.6114   23481000.0214
     -4585.7444
  -4406497.89148  -3425336.02043  23363295.8384   23363293.7324
      1688.3944
  10356203.23047   8057319.25043  23938047.1974   23938043.4044
     -3385.3654
  -7356959.57849  -5728742.18744  22517956.7834   22517954.3384
      1631.0904
  11564055.30948   8991195.20344  23248837.6664   23248832.9204
     -3089.1294
 04  9  1 15 36 30.0020000  0  7G11G14G15G 1G19G25G22
  -6693641.56248  -5207594.24244  22735484.0804   22735480.5964
      1130.6964
   8094100.49649   6297574.44946  21571553.4864   21571550.0684
     -2814.9104
  16267655.68448  12653453.06343  23494101.8854   23494099.9474
     -4589.6034
  -4431758.85248  -3445019.87143  23358488.5964   23358486.3964
      1684.0644
  10407051.04347   8096940.89143  23947722.9084   23947719.6044
     -3389.8544
  -7381339.19549  -5747739.28145  22513317.9634   22513315.2604
      1625.3084
  11610429.80148   9027331.14544  23257661.9944   23257657.8854
     -3091.6334
 04  9  1 15 36 45.0020000  0  7G11G14G15G 1G19G25G22
  -6710500.57848  -5220731.13744  22732276.1354   22732272.1234
      1123.9344
   8136397.26249   6330532.95346  21579602.3384   21579598.7994
     -2819.7844
  16336557.49248  12707142.75043  23507213.6744   23507212.0574
     -4593.4544
  -4456954.51248  -3464652.86343  23353694.1044   23353691.8694
      1679.7114
  10457966.16447   8136614.97743  23957412.2134   23957408.3144
     -3394.3414
  -7405631.66048  -5766668.46945  22508694.8934   22508692.6584
      1619.4984
  11656842.16048   9063496.59444  23266494.3544   23266489.3934
     -3094.1574
 04  9  1 15 37  0.0020000  0  7G11G14G15G 1G19G25G22
  -6727257.73048  -5233788.66044  22729087.4004   22729083.2364
      1117.1434
   8178766.86349   6363548.22746  21587665.2604   21587661.3934
     -2824.6404
  16405516.82448  12760877.25443  23520336.4324   23520334.5414
     -4597.2894
  -4482084.76247  -3484234.86343  23348912.3464   23348909.7324
      1675.3504
  10508948.24647   8176341.22743  23967113.9474   23967109.9204
     -3398.8054
  -7429836.66048  -5785529.49645  22504088.9794   22504086.5184
      1613.6674
  11703292.28948   9099691.47744  23275333.5414   23275328.9244
     -3096.6754
 04  9  1 15 37 15.0020000  0  7G11G14G15G 1G19G25G22
  -6743912.59048  -5246766.47344  22725917.4394   22725913.6544
      1110.3244
   8221209.39848   6396620.32846  21595741.7994   21595738.0724
     -2829.5024
  16474533.68848  12814656.58642  23533469.2134   23533467.7684
     -4601.1244
  -4507149.21948  -3503765.60943  23344142.1664   23344139.9594
      1670.9644
  10559997.07447   8216119.50043  23976827.3774   23976824.6234
     -3403.2554
  -7453953.57049  -5804321.88345  22499499.3384   22499497.3464
      1607.7944
  11749780.46548   9135916.00044  23284179.6974   23284175.1544
     -3099.2124
 04  9  1 15 37 30.0020000  0  7G11G14G15G 1G19G25G22
  -6760465.29348  -5259664.69144  22722768.0414   22722763.7364
      1103.5144
   8263724.09449   6429748.64546  21603831.9944   21603828.1544
     -2834.3134
  16543607.34448  12868480.16042  23546613.9394   23546612.3614
     -4604.9104
  -4532148.27348  -3523245.40243  23339385.2364   23339382.9324
      1666.6044
  10611111.84447   8255949.16443  23986555.0104   23986551.1044
     -3407.6514
  -7477982.61349  -5823045.81645  22494926.8464   22494924.5644
      1601.9364
  11796306.18448   9172169.78544  23293033.2604   23293028.8774
     -3101.7154
 04  9  1 15 37 45.0020000  0  7G11G14G15G 1G19G25G22
  -6776917.06648  -5272484.26644  22719637.5494   22719633.0844
      1096.7854
   8306309.24249   6462931.87146  21611935.6044   21611932.0374
     -2839.0104
  16612736.08648  12922346.66042  23559768.7524   23559767.3894
     -4608.5834
  -4557083.29348  -3542675.28543  23334640.1894   23334638.1114
      1662.3354
  10662290.73047   8295828.77343  23996293.7834   23996290.5534
     -3411.9264
  -7501924.96948  -5841702.18445  22490370.3224   22490368.3264
      1596.1574
  11842868.08248   9208451.76244  23301893.6744   23301888.7134
     -3104.1274
 04  9  1 15 38  0.0020000  0  7G11G14G15G 1G19G25G22
  -6793266.60248  -5285224.16444  22716526.3224   22716522.3694
      1089.9694
   8348965.65249   6496170.62946  21620052.7834   21620049.0844
     -2843.7614
  16681920.71948  12976256.71942  23572934.2684   23572932.5804
     -4612.3094
  -4581953.13348  -3562054.38343  23329907.5644   23329905.4164
      1657.9894
  10713534.43447   8335758.89543  24006044.9084   24006042.0024
     -3416.2474
  -7525779.20348  -5860289.88744  22485831.4714   22485829.2364
      1590.2824
  11889467.20748   9244762.75044  23310761.4944   23310756.5144
     -3106.6084
 04  9  1 15 38 15.0020000  0  7G11G14G15G 1G19G25G22
  -6809514.01648  -5297884.49244  22713434.4084   22713430.1744
      1083.1614
   8391692.72749   6529464.43846  21628183.4794   21628180.2094
     -2848.4724
  16751160.55948  13030209.78943  23586110.2054   23586108.5764
     -4615.9894
  -4606758.00847  -3581382.85543  23325187.4004   23325185.6004
      1653.6584
  10764842.23047   8375738.95343  24015808.6114   24015805.5184
     -3420.5204
  -7549545.46548  -5878809.03945  22481308.7834   22481306.6154
      1584.4174
  11936103.20348   9281102.45744  23319635.7604   23319631.3814
     -3109.0664
 04  9  1 15 38 30.0020000  0  7G11G14G15G 1G19G25G22
  -6825658.17648  -5310464.35944  22710362.3074   22710358.5924
      1076.2774
   8434490.96949   6562813.71146  21636327.9164   21636324.4794
     -2853.2164
  16820456.04748  13084206.23443  23599297.0494   23599295.7564
     -4619.6994
  -4631497.07448  -3600660.03943  23320479.6894   23320477.7174
      1649.2714
  10816214.52347   8415769.27043  24025585.0024   24025581.4434
     -3424.8204
  -7573222.51249  -5897258.67645  22476803.3304   22476801.0884
      1578.4704
  11982776.89848   9317471.54344  23328517.4794   23328512.8734
     -3111.5804
 04  9  1 15 38 45.0020000  0  7G11G14G15G 1G19G25G22
  -6841699.29748  -5322963.93744  22707309.4714   22707305.6004
      1069.4084
   8477359.84049   6596218.02046  21644485.7364   21644481.7054
     -2857.9254
  16889806.64148  13138245.60943  23612493.4324   23612492.4794
     -4623.3734
  -4656170.48448  -3619886.07843  23315784.4324   23315783.1434
      1644.8944
  10867650.57847   8455849.27343  24035372.7364   24035369.2254
     -3429.0704
  -7596810.35949  -5915638.81645  22472314.7604   22472312.4634
      1572.5234
  12029487.93448   9353869.73044  23337406.3934   23337401.7444
     -3114.0694
 04  9  1 15 39  0.0020000  0  7G11G14G15G 1G19G25G22
  -6857635.30149  -5335381.60544  22704277.4864   22704273.3614
      1062.4004
   8520300.78149   6629678.48846  21652657.0494   21652653.3034
     -2862.7294
  16959213.80948  13192329.08243  23625701.4474   23625700.4084
     -4627.1454
  -4680776.46548  -3639059.55944  23311102.4004   23311100.6434
      1640.3994
  10919151.73847   8495980.01243  24045173.3614   24045169.3574
     -3433.4114
  -7620307.03549  -5933947.91445  22467843.3224   22467841.1314
      1566.4454
  12076237.97348   9390298.31344  23346302.6274   23346297.8114
     -3116.6694
 04  9  1 15 39 15.0020000  0  7G11G14G15G 1G19G25G22
  -6873468.45348  -5347719.13744  22701264.4004   22701260.5414
      1055.5434
   8563311.19149   6663193.09046  21660841.5104   21660837.5884
     -2867.3614
  17028674.73848  13246454.43443  23638919.7134   23638918.2684
     -4630.7294
  -4705317.40248  -3658182.36343  23306431.9394   23306430.8934
      1636.0634
  10970715.26247   8536159.34043  24054985.2134   24054981.5614
     -3437.5684
  -7643714.64149  -5952187.60245  22463389.2134   22463386.9044
      1560.5074
  12123024.59448   9426755.39144  23355205.8464   23355201.4554
     -3119.1084
 04  9  1 15 39 30.0020000  0  7G11G14G15G 1G19G25G22
  -6889200.17648  -5359977.62544  22698270.3384   22698266.6934
      1048.7824
   8606389.11349   6696760.28946  21669039.2364   21669034.9984
     -2871.8614
  17098187.59048  13300620.24243  23652147.6974   23652146.0534
     -4634.1904
  -4729794.85948  -3677255.69143  23301774.5724   23301772.6824
      1631.8304
  11022339.02347   8576385.60543  24064809.0334   24064805.1864
     -3441.5844
  -7667034.55548  -5970358.95345  22458951.3144   22458949.2794
      1554.6614
  12169846.15248   9463239.69944  23364115.7364   23364111.4864
     -3121.4374
 04  9  1 15 39 45.0020000  0  7G11G14G15G 1G19G25G22
  -6904828.67649  -5372155.68044  22695296.5414   22695292.5614
      1041.9004
   8649535.79749   6730381.06646  21677249.2364   21677245.4714
     -2876.4464
  17167753.60548  13354827.48443  23665385.7524   23665384.2444
     -4637.7344
  -4754207.20748  -3696278.29343  23297128.7684   23297127.1624
      1627.4904
  11074024.17647   8616659.72342  24074644.4324   24074640.4244
     -3445.6774
  -7690265.02049  -5988460.60545  22454531.0334   22454528.1934
      1548.6984
  12216704.09448   9499752.34444  23373032.6274   23373027.8734
     -3123.8634
 04  9  1 15 40  0.0020000  0  7G11G14G15G 1G19G25G22
  -6920353.27049  -5384252.77344  22692342.2214   22692338.6074
      1034.9734
   8692751.37949   6764055.54746  21685473.0494   21685469.5334
     -2881.0394
  17237372.77748  13409076.16043  23678634.0644   23678632.5254
     -4641.2784
  -4778554.03148  -3715249.84043  23292495.6354   23292493.8464
      1623.1224
  11125770.75047   8656981.67643  24084491.2524   24084487.5644
     -3449.7724
  -7713405.32849  -6006492.00445  22450127.5334   22450124.9864
      1542.6874
  12263598.75048   9536293.60944  23381956.3304   23381951.7404
     -3126.3104
 04  9  1 15 40 15.0020000  0  7G11G14G15G 1G19G25G22
  -6935774.16449  -5396269.06244  22689408.1584   22689404.0844
      1028.0604
   8736035.10949   6797783.12546  21693710.0254   21693706.0374
     -2885.5824
  17307044.34048  13463365.63343  23691891.9474   23691890.5024
     -4644.7714
  -4802835.74248  -3734170.63744  23287875.0414   23287873.3774
      1618.7814
  11177577.78947   8697350.75443  24094350.5644   24094346.1934
     -3453.8034
  -7736455.70749  -6024453.33645  22445740.9164   22445738.4364
      1536.6924
  12310529.77748   9572863.21944  23390887.3304   23390882.5214
     -3128.7354
 04  9  1 15 40 30.0020000  0  7G11G14G15G 1G19G25G22
  -6951092.34849  -5408205.31244  22686493.3074   22686488.8504
      1021.2124
   8779385.53949   6831562.67246  21701959.1434   21701955.2174
     -2890.0294
  17376766.75448  13517694.75843  23705159.2604   23705158.4594
     -4648.1614
  -4827053.46548  -3753041.58243  23283266.3694   23283264.6624
      1614.5154
  11229443.66447   8737765.66843  24104220.9474   24104215.7954
     -3457.7254
  -7759417.09049  -6042345.31645  22441371.8304   22441369.2684
      1530.7594
  12357495.84448   9609460.12944  23399824.3544   23399820.2684
     -3131.0714
 04  9  1 15 40 45.0020000  0  7G11G14G15G 1G19G25G22
  -6966305.24249  -5420059.52345  22683598.1354   22683594.1744
      1014.1934
   8822804.86749   6865395.90246  21710221.6584   21710217.4364
     -2894.6224
  17446542.23448  13572065.21943  23718437.2214   23718436.1504
     -4651.6994
  -4851204.66048  -3771860.69144  23278670.7914   23278668.9904
      1610.0804
  11281370.34847   8778227.99643  24114102.0804   24114097.3304
     -3461.7794
  -7782286.71949  -6060165.80545  22437019.5804   22437017.6154
      1524.6424
  12404499.55548   9646086.35544  23408769.1974   23408764.7094
     -3133.5814
 04  9  1 15 41  0.0020000  0  7G11G14G15G 1G19G25G22
  -6981415.19549  -5431833.52344  22680722.9084   22680719.1974
      1007.3304
   8866290.31349   6899280.66046  21718496.5884   21718492.8224
     -2899.0304
  17516367.85248  13626474.75443  23731724.3304   23731722.9594
     -4655.0414
  -4875291.88348  -3790629.94944  23274086.9084   23274085.4554
      1605.8154
  11333354.94947   8818735.46143  24123994.1194   24123989.5684
     -3465.6404
  -7805067.05949  -6077916.70745  22432684.9474   22432682.5334
      1518.6894
  12451538.23848   9682739.85944  23417720.1664   23417716.1584
     -3135.9124
 04  9  1 15 41 15.0020000  0  7G11G14G15G 1G19G25G22
  -6996420.80549  -5443526.21544  22677867.5574   22677863.3304
      1000.3744
   8909842.66449   6933217.54346  21726784.3144   21726780.7754
     -2903.4904
  17586244.50448  13680924.04342  23745021.6504   23745021.0614
     -4658.4434
  -4899313.91048  -3809348.40244  23269515.8224   23269514.1744
      1601.4684
  11385398.23447   8859288.62143  24133897.3464   24133893.2994
     -3469.5524
  -7827756.60949  -6095596.87145  22428367.0644   22428364.7094
      1512.6374
  12498612.89848   9719421.39144  23426678.0494   23426673.7254
     -3138.3114
 04  9  1 15 41 30.0020000  0  7G11G14G15G 1G19G25G22
  -7011320.19549  -5455136.12944  22675032.0254   22675028.2754
       993.2934
   8953463.26249   6967207.61746  21735084.9714   21735081.3344
     -2908.0404
  17656173.46948  13735414.12143  23758328.7834   23758327.9714
     -4661.9314
  -4923269.03548  -3828014.72744  23264957.1584   23264955.5614
      1597.0084
  11437501.53547   8899888.55943  24143812.1824   24143808.2364
     -3473.5534
  -7850353.48049  -6113204.80945  22424066.6744   22424064.5964
      1506.4584
  12545725.17248   9756132.21544  23435643.6044   23435638.8964
     -3140.8184
 04  9  1 15 41 45.0020000  0  7G11G14G15G 1G19G25G22
  -7026115.55949  -5466664.98844  22672216.4324   22672212.4824
       986.3584
   8997149.55949   7001248.87546  21743398.2754   21743394.5924
     -2912.4204
  17726152.08248  13789942.87142  23771645.3384   23771644.6394
     -4665.2414
  -4947159.57048  -3846630.71943  23260410.5884   23260409.2914
      1592.7024
  11489662.06347   8940533.08643  24153738.0024   24153734.1584
     -3477.3684
  -7872859.68749  -6130742.10245  22419784.2214   22419782.0884
      1500.4144
  12592872.71548   9792870.53944  23444615.2214   23444610.9554
     -3143.1704
 04  9  1 15 42  0.0020000  0  7G11G14G15G 1G19G25G22
  -7040806.60249  -5478112.56244  22669421.2524   22669417.1434
       979.4034
   9040901.23449   7035341.08646  21751724.1824   21751720.0924
     -2916.7784
  17796180.03148  13844510.05542  23784971.0024   23784970.5724
     -4668.5304
  -4970985.38748  -3865196.28144  23255877.1044   23255875.4394
      1588.3884
  11541879.26247   8981221.77343  24163675.5184   24163670.9794
     -3481.1474
  -7895274.88349  -6148208.47345  22415518.3934   22415516.3544
      1494.3464
  12640055.54348   9829636.35944  23453594.1584   23453589.5494
     -3145.5224
 04  9  1 15 42 15.0020000  0  7G11G14G15G 1G19G25G22
  -7055391.62149  -5489477.51644  22666645.4794   22666641.8574
       972.3354
   9084719.55549   7069485.22346  21760062.4324   21760058.7604
     -2921.2214
  17866258.46148  13899116.58642  23798307.2054   23798306.0184
     -4671.8954
  -4994744.97348  -3883710.23843  23251355.5184   23251354.3264
      1583.9724
  11594154.25847   9021955.50043  24173622.8774   24173618.2404
     -3485.0004
  -7917597.47749  -6165602.69145  22411270.7914   22411268.2994
      1488.1734
  12687275.18448   9866430.85944  23462579.4084   23462575.0374
     -3147.9764
 04  9  1 15 42 30.0020000  0  7G11G14G15G 1G19G25G22
  -7069870.57849  -5500759.82045  22663890.5104   22663886.8184
       965.2644
   9128604.01649   7103680.89546  21768413.0724   21768409.6434
     -2925.6314
  17936386.90647  13953762.08242  23811651.7364   23811651.0184
     -4675.2304
  -5018438.45348  -3902172.68444  23246846.7054   23246845.3654
      1579.5654
  11646486.56647   9062733.89543  24183581.2834   24183577.0804
     -3488.8214
  -7939827.32849  -6182924.64845  22407040.8614   22407038.5254
      1481.9904
  12734531.35248   9903253.82044  23471572.0254   23471567.4204
     -3150.4114
 04  9  1 15 42 45.0020000  0  7G11G14G15G 1G19G25G22
  -7084243.13749  -5511959.22745  22661155.2754   22661151.5214
       958.1714
   9172554.57449   7137928.07046  21776776.8224   21776773.3934
     -2930.0374
  18006565.16047  14008446.39142  23825006.3224   23825005.3144
     -4678.5504
  -5042065.63748  -3920583.47344  23242350.8384   23242349.4284
      1575.1464
  11698875.80947   9103556.66043  24193550.1194   24193546.3654
     -3492.6164
  -7961963.99648  -6200173.98845  22402828.0024   22402825.7954
      1475.7784
  12781824.12548   9940105.30944  23480571.5254   23480567.0374
     -3152.8524
 04  9  1 15 43  0.0020000  0  7G11G14G15G 1G19G25G22
  -7098507.93049  -5523074.65245  22658440.6974   22658436.9324
       950.9864
   9216571.89149   7172227.25846  21785153.1194   21785149.3504
     -2934.4884
  18076794.03947  14063170.15242  23838370.4394   23838369.4514
     -4681.9254
  -5065625.44948  -3938941.76644  23237867.7754   23237866.3344
      1570.6544
  11751322.73047   9144424.34843  24203530.4324   24203526.7054
     -3496.4614
  -7984006.13348  -6217349.66445  22398633.7444   22398631.3734
      1469.4764
  12829154.56648   9976986.14844  23489578.3384   23489573.9864
     -3155.3634
 04  9  1 15 43 15.0020000  0  7G11G14G15G 1G19G25G22
  -7112665.32049  -5534106.38744  22655746.8074   22655742.8184
       943.8264
   9260655.38749   7206578.02746  21793542.2134   21793537.9674
     -2938.9004
  18147072.78947  14117932.76242  23851743.7834   23851742.5884
     -4685.2504
  -5089118.24248  -3957247.83244  23233397.0574   23233395.5764
      1566.1864
  11803826.44147   9185336.29343  24213521.4324   24213517.7564
     -3500.2474
  -8005953.90248  -6234451.80545  22394456.8854   22394454.7214
      1463.1854
  12876522.25048  10013896.00444  23498592.0184   23498587.6934
     -3157.8464
 04  9  1 15 43 30.0020000  0  7G11G14G15G 1G19G25G22
  -7126715.57849  -5545054.64144  22653072.7364   22653069.2644
       936.6844
   9304804.21549   7240979.69946  21801943.2134   21801939.4944
     -2943.2554
  18217400.53147  14172733.55943  23865126.8774   23865126.0764
     -4688.5164
  -5112544.46948  -3975502.03144  23228939.3144   23228937.4754
      1561.7484
  11856386.07047   9226291.79743  24223523.2444   24223519.6894
     -3503.9754
  -8027807.68448  -6251480.71545  22390298.2684   22390295.9514
      1456.9194
  12923926.65248  10050834.48044  23507612.5644   23507608.1394
     -3160.2934
 04  9  1 15 43 45.0020000  0  7G11G14G15G 1G19G25G22
  -7140658.97749  -5555919.63344  22650419.7364   22650415.9634
       929.5604
   9349017.51249   7275431.61746  21810356.6114   21810352.9794
     -2947.5534
  18287776.39548  14227571.84442  23878519.7214   23878518.1434
     -4691.7244
  -5135904.69148  -3993704.79744  23224493.9714   23224492.1354
      1557.3484
  11909000.51247   9267290.01643  24233535.3224   24233531.6664
     -3507.6294
  -8049567.71149  -6268436.56645  22386157.5964   22386155.2684
      1450.6684
  12971367.12948  10087801.05544  23516640.6194   23516635.9084
     -3162.6984
 04  9  1 15 44  0.0020000  0  7G11G14G15G 1G19G25G22
  -7154494.73049  -5566700.74244  22647786.6974   22647783.2254
       922.3844
   9393295.71949   7309934.10546  21818782.3144   21818778.7484
     -2951.8804
  18358200.73447  14282447.90242  23891920.5104   23891919.4554
     -4694.9564
  -5159198.21148  -4011855.58644  23220061.3464   23220059.5684
      1552.9014
  11961670.11747   9308331.23043  24243558.9794   24243554.2604
     -3511.3074
  -8071232.99249  -6285318.59045  22382034.8854   22382032.4284
      1444.3524
  13018844.32448  10124796.25044  23525674.7914   23525670.8854
     -3165.1464
 04  9  1 15 44 15.0020000  0  7G11G14G15G 1G19G25G22
  -7168221.41049  -5577396.85245  22645174.5804   22645170.9164
       915.1124
   9437639.73849   7344487.87146  21827221.0494   21827217.1824
     -2956.2684
  18428674.48447  14337362.47342  23905331.6504   23905330.3144
     -4698.2504
  -5182423.71148  -4029953.36344  23215641.8614   23215639.6864
      1548.3674
  12014395.58247   9349415.97743  24253592.2684   24253587.9674
     -3515.0314
  -8092802.17649  -6302125.73045  22377930.1664   22377927.9204
      1437.9464
  13066359.36348  10161820.93044  23534716.7994   23534712.5844
     -3167.6694
 04  9  1 15 44 30.0020000  0  7G11G14G15G 1G19G25G22
  -7181840.79749  -5588009.36745  22642583.0334   22642579.0214
       907.9594
   9482047.28149   7379091.13346  21835671.3224   21835667.8424
     -2960.5034
  18499195.25047  14392313.67642  23918750.9554   23918749.9204
     -4701.3844
  -5205583.17648  -4047999.69144  23211234.4324   23211232.4474
      1543.9644
  12067174.49647   9390542.37543  24263635.8074   24263631.8034
     -3518.5944
  -8114277.03549  -6318859.36745  22373843.7684   22373841.1864
      1431.6574
  13113910.28548  10198873.57444  23543766.1894   23543761.5184
     -3170.0614
 04  9  1 15 44 45.0020000  0  7G11G14G15G 1G19G25G22
  -7195352.94949  -5598538.32045  22640011.6664   22640007.8964
       900.8104
   9526517.68849   7413743.39146  21844133.7054   21844129.9324
     -2964.6944
  18569762.44947  14447301.06342  23932179.3694   23932178.5024
     -4704.4804
  -5228676.93748  -4065994.83244  23206840.0964   23206838.1464
      1539.5844
  12120006.09447   9431709.81343  24273688.9394   24273684.9754
     -3522.1074
  -8135657.67249  -6335519.58245  22369774.8694   22369773.1584
      1425.3764
  13161496.59048  10235953.78944  23552820.8774   23552816.2994
     -3172.4204
 04  9  1 15 45  0.0020000  0  7G11G14G15G 1G19G25G22
  -7208757.09849  -5608983.12145  22637461.1194   22637457.4514
       893.6104
   9571051.35549   7448444.94146  21852608.4714   21852604.5884
     -2968.9114
  18640376.39147  14502324.87142  23945617.0104   23945616.1354
     -4707.5964
  -5251704.27748  -4083938.20744  23202458.0104   23202455.8854
      1535.1564
  12172890.75447   9472918.60243  24283752.7134   24283748.4824
     -3525.6444
  -8156943.09849  -6352105.61345  22365724.5184   22365722.2604
      1419.0284
  13209118.87948  10273062.03544  23561883.0964   23561878.7834
     -3174.8194
 04  9  1 15 45 15.0020000  0  7G11G14G15G 1G19G25G22
  -7222053.18048  -5619343.70744  22634931.1894   22634927.2254
       886.4054
   9615647.91849   7483195.50046  21861094.6044   21861090.7484
     -2973.1044
  18711036.55947  14557384.70342  23959063.3934   23959062.1824
     -4710.6784
  -5274665.32448  -4101829.93443  23198088.5574   23198086.9674
      1530.7364
  12225827.79347   9514168.21143  24293826.6114   24293822.6314
     -3529.1364
  -8178133.20349  -6368617.36745  22361692.3144   22361690.0454
      1412.6744
  13256777.09848  10310198.27744  23570952.0724   23570947.8034
     -3177.2154
 04  9  1 15 45 30.0020000  0  7G11G14G15G 1G19G25G22
  -7235240.79748  -5629619.77744  22632421.4164   22632417.7954
       879.1744
   9660307.26649   7517994.98846  21869593.1894   21869589.1824
     -2977.2904
  18781742.87547  14612480.50043  23972518.6114   23972517.0534
     -4713.7544
  -5297559.80948  -4119669.78544  23193731.9324   23193729.8894
      1526.2994
  12278816.93847   9555458.40243  24303909.7834   24303905.9944
     -3532.6104
  -8199227.61349  -6385054.55145  22357678.0414   22357675.7714
      1406.2944
  13304471.40648  10347362.65644  23580028.1894   23580023.7364
     -3179.6214
 04  9  1 15 45 45.0020000  0  7G11G14G15G 1G19G25G22
  -7248319.34448  -5639810.85245  22629932.4794   22629928.9864
       871.9034
   9705029.66049   7552843.59046  21878103.4084   21878099.6354
     -2981.4934
  18852495.50847  14667612.37942  23985982.4244   23985980.8614
     -4716.8424
  -5320387.25448  -4137457.40244  23189387.9714   23189386.2214
      1521.8304
  12331858.28147   9596789.28143  24314002.8614   24313999.9944
     -3536.0904
  -8220225.48449  -6401416.50845  22353682.4394   22353680.0294
      1399.8584
  13352202.20348  10384555.45744  23589111.2684   23589106.6004
     -3182.0534
 04  9  1 15 46  0.0020000  0  7G11G14G15G 1G19G25G22
  -7261289.41448  -5649917.40644  22627464.4244   22627460.7644
       864.6714
   9749813.93449   7587740.41046  21886625.7444   21886621.8184
     -2985.6184
  18923293.30548  14722779.46542  23999454.7134   23999453.1504
     -4719.8534
  -5343148.35948  -4155193.32444  23185057.0884   23185054.9554
      1517.4074
  12384950.62546   9638159.89843  24324105.9634   24324102.6314
     -3539.4904
  -8241127.46949  -6417703.75445  22349704.8614   22349702.5254
      1393.4664
  13399968.62948  10421776.02044  23598200.7524   23598196.0334
     -3184.4284
 04  9  1 15 46 15.0020000  0  7G11G14G15G 1G19G25G22
  -7274148.82448  -5659937.72344  22625017.5644   22625013.7714
       857.2944
   9794661.65649   7622686.68446  21895159.9554   21895156.0804
     -2989.8484
  18994137.68047  14777982.84442  24012935.6974   24012933.9084
     -4722.9584
  -5365841.25848  -4172876.10544  23180738.4084   23180736.7604
      1512.8604
  12438095.44546   9679571.38743  24334219.5884   24334216.3614
     -3542.9884
  -8261931.51249  -6433914.68745  22345746.0414   22345743.8614
      1386.9364
  13447772.48848  10459025.75444  23607297.4944   23607293.0684
     -3186.9244
 04  9  1 15 46 30.0020000  0  7G11G14G15G 1G19G25G22
  -7286898.73848  -5669872.72744  22622591.0184   22622587.4794
       849.9944
   9839571.18849   7657681.10546  21903705.9004   21903702.2214
     -2993.9694
  19065026.91047  14833221.16042  24026425.2684   24026424.7174
     -4725.9494
  -5388467.31648  -4190506.80944  23176433.1504   23176431.1974
      1508.4044
  12491290.85246   9721022.30543  24344342.8144   24344339.0964
     -3546.3604
  -8282638.89549  -6450050.29345  22341805.7364   22341803.2094
      1380.4924
  13495612.39848  10496303.57844  23616401.3464   23616396.9944
     -3189.3274
 04  9  1 15 46 45.0020000  0  7G11G14G15G 1G19G25G22
  -7299538.62949  -5679722.00445  22620186.0104   22620182.1504
       842.6594
   9884542.74249   7692723.86345  21912263.7444   21912260.0764
     -2998.1044
  19135961.24247  14888494.62142  24039924.1894   24039922.5494
     -4728.9554
  -5411026.02748  -4208085.01244  23172139.7684   23172138.3424
      1503.9144
  12544536.93847   9762512.70743  24354475.1274   24354471.3464
     -3549.7394
  -8303248.63749  -6466109.81645  22337883.6274   22337881.2684
      1373.9834
  13543488.88748  10533609.91044  23625512.0024   23625507.2294
     -3191.7664
 04  9  1 15 47  0.0020000  0  7G11G14G15G 1G19G25G22
  -7312067.05549  -5689484.41845  22617801.9634   22617797.8424
       835.2284
   9929577.27349   7727815.68845  21920833.7364   21920829.2834
     -3002.3024
  19206941.55547  14943803.91042  24053430.8384   24053429.8964
     -4732.0214
  -5433516.14548  -4225609.77344  23167860.2294   23167858.5724
      1499.3414
  12597834.38347   9804043.15243  24364616.8854   24364613.7054
     -3553.1634
  -8323759.22749  -6482092.07845  22333980.7994   22333978.0534
      1367.3734
  13591402.94948  10570945.51644  23634629.5804   23634625.3304
     -3194.2714
 04  9  1 15 47 15.0020000  0  7G11G14G15G 1G19G25G22
  -7324486.38349  -5699161.82445  22615438.5494   22615434.3964
       827.9554
   9974671.90649   7762954.36346  21929414.7524   21929410.4714
     -3006.3094
  19277964.89547  14999146.72742  24066946.3384   24066945.1824
     -4734.8894
  -5455940.25448  -4243083.10244  23163593.2994   23163591.5684
      1494.9414
  12651180.27347   9845611.32043  24374769.2294   24374764.9394
     -3556.3934
  -8344173.17249  -6497999.03545  22330096.0254   22330093.4434
      1360.9304
  13639352.07848  10608308.45344  23643754.1274   23643749.9164
     -3196.6094
 04  9  1 15 47 30.0020000  0  7G11G14G15G 1G19G25G22
  -7336795.49649  -5708753.34845  22613096.2604   22613092.4164
       820.6084
  10019827.26249   7798140.34046  21938007.5724   21938003.5254
     -3010.3574
  19349031.89547  15054523.55942  24080469.8384   24080469.1504
     -4737.8004
  -5478297.35548  -4260504.21144  23159338.5254   23159337.2444
      1490.4734
  12704575.14847   9887217.68442  24384929.0334   24384925.0294
     -3559.6584
  -8364489.31649  -6513829.78545  22326229.3854   22326227.3304
      1354.4104
  13687337.14848  10645699.39144  23652885.4634   23652881.0454
     -3199.0054
 04  9  1 15 47 45.0020000  0  7G11G14G15G 1G19G25G22
  -7348993.27049  -5718258.10944  22610775.1504   22610770.9794
       813.1854
  10065043.89149   7833374.07046  21946611.7834   21946607.8964
     -3014.4424
  19420143.10247  15109934.84842  24094002.2604   24094001.1584
     -4740.7474
  -5500586.55948  -4277872.42244  23155096.8774   23155095.1974
      1485.9474
  12758019.37947   9928862.49242  24395099.6744   24395095.7644
     -3562.9494
  -8384706.53149  -6529583.43745  22322382.6974   22322380.0924
      1347.8144
  13735359.03148  10683119.00844  23662023.4634   23662019.5494
     -3201.4594
 04  9  1 15 48  0.0020000  0  7G11G14G15G 1G19G25G22
  -7361080.64849  -5727676.85944  22608474.9864   22608470.8934
       805.8254
  10110320.57049   7868654.59045  21955227.9394   21955223.9474
     -3018.4454
  19491297.15647  15165379.51242  24107541.4714   24107541.2404
     -4743.6044
  -5522808.84848  -4295188.48443  23150868.5104   23150866.8304
      1481.4864
  12811511.53547   9970544.64143  24405278.5254   24405275.1864
     -3566.1444
  -8404825.48049  -6545260.52045  22318554.0724   22318551.9124
      1341.2634
  13783416.57848  10720566.42644  23671168.8544   23671164.4514
     -3203.8364
 04  9  1 15 48 15.0020000  0  7G11G14G15G 1G19G25G22
  -7373055.60949  -5737008.00845  22606196.2834   22606192.1934
       798.3314
  10155658.79349   7903983.05946  21963855.7364   21963851.6434
     -3022.5484
  19562495.46947  15220858.67242  24121090.5804   24121090.0254
     -4746.5544
  -5544962.32848  -4312450.93044  23146652.5494   23146651.1934
      1476.8994
  12865053.08247  10012265.27342  24415467.0724   24415463.7604
     -3569.4364
  -8424844.20349  -6560859.51245  22314744.5334   22314742.1394
      1334.5824
  13831511.55148  10758043.00844  23680321.0884   23680316.5764
     -3206.3324
 04  9  1 15 48 30.0020000  0  7G11G14G15G 1G19G25G22
  -7384919.57449  -5746252.66445  22603938.5884   22603934.5924
       790.9314
  10201056.66449   7939358.01646  21972494.2754   21972490.5534
     -3026.5254
  19633736.21547  15276370.89142  24134648.1274   24134646.9004
     -4749.3834
  -5567048.70348  -4329661.09044  23142449.9554   23142448.1154
      1472.4254
  12918641.78947  10054022.65643  24425665.5644   24425661.0184
     -3572.5804
  -8444764.20749  -6576381.57845  22310953.6824   22310951.2834
      1328.0004
  13879642.32448  10795547.47344  23689479.8614   23689475.3264
     -3208.7184
 04  9  1 15 48 45.0020000  0  7G11G14G15G 1G19G25G22
  -7396671.23849  -5755409.80144  22601702.2834   22601698.5024
       783.4444
  10246515.04349   7974780.11746  21981144.7214   21981141.2834
     -3030.5594
  19705020.17647  15331916.78542  24148212.0414   24148212.1434
     -4752.2644
  -5589066.73048  -4346817.98444  23138260.0494   23138258.4634
      1467.8684
  12972278.44547  10095817.42643  24435871.8304   24435867.9084
     -3575.7774
  -8464584.10549  -6591825.63745  22307182.4244   22307179.8964
      1321.3274
  13927809.94148  10833080.64844  23698645.7524   23698641.7294
     -3211.1744
 04  9  1 15 49  0.0020000  0  7G11G14G15G 1G19G25G22
  -7408310.52049  -5764479.38344  22599487.3694   22599483.2714
       775.9524
  10292033.51649   8010249.04746  21989807.2134   21989803.1504
     -3034.5654
  19776346.81647  15387495.94542  24161785.5414   24161784.8144
     -4755.1094
  -5611016.55148  -4363921.74244  23134083.0494   23134081.2134
      1463.3214
  13025962.63747  10137649.23043  24446087.7754   24446083.0184
     -3578.9464
  -8484303.81649  -6607191.62945  22303429.8934   22303427.1194
      1314.6474
  13976014.30148  10870642.45744  23707818.6584   23707814.8344
     -3213.6244
 04  9  1 15 49 15.0020000  0  7G11G14G15G 1G19G25G22
  -7419839.15249  -5773462.73445  22597293.3464   22597289.4164
       768.5764
  10337609.90649   8045763.10245  21998479.6584   21998476.1194
     -3038.4264
  19847713.97747  15443106.66842  24175366.1894   24175365.5214
     -4757.8114
  -5632900.06248  -4380973.82044  23129918.5184   23129917.0964
      1458.9014
  13079691.93447  10179516.18843  24456311.7684   24456307.7014
     -3581.9534
  -8503924.97749  -6622480.82445  22299696.1114   22299693.6004
      1308.0774
  14024253.45348  10908231.37944  23716998.1744   23716994.5334
     -3215.9434
 04  9  1 15 49 30.0020000  0  7G11G14G15G 1G19G25G22
  -7431254.56649  -5782357.86744  22595121.3144   22595117.4084
       761.0284
  10383246.22349   8081323.86745  22007164.0494   22007160.3614
     -3042.4214
  19919123.61747  15498750.49642  24188955.2834   24188954.6824
     -4760.6434
  -5654714.93048  -4397972.41444  23125767.1114   23125765.6584
      1454.3244
  13133468.20347  10221419.74242  24466544.8854   24466541.5104
     -3585.0854
  -8523445.05549  -6637691.27045  22295981.3464   22295979.1234
      1301.3394
  14072529.62948  10945849.14544  23726184.8544   23726180.8814
     -3218.4124
 04  9  1 15 49 45.0020000  0  7G11G14G15G 1G19G25G22
  -7442557.10549  -5791165.04345  22592970.5254   22592966.8184
       753.5034
  10428941.81349   8116930.80145  22015859.5024   22015855.8034
     -3046.3734
  19990574.95347  15554426.81342  24202551.5884   24202551.1154
     -4763.4224
  -5676461.54348  -4414917.82444  23121629.7054   23121627.7994
      1449.7744
  13187290.53547  10263359.18442  24476787.1664   24476783.7364
     -3588.1554
  -8542864.17249  -6652823.03545  22292285.9794   22292283.6824
      1294.6084
  14120842.34448  10983495.37944  23735378.8074   23735374.7014
     -3220.8484
 04  9  1 15 50  0.0020000  0  7G11G14G15G 1G19G25G22
  -7453745.62949  -5799883.37945  22590841.4714   22590837.6974
       745.9024
  10474697.29749   8152584.42245  22024566.1664   22024562.8264
     -3050.3664
  20062068.59847  15610136.08642  24216156.4164   24216155.9204
     -4766.2434
  -5698138.91848  -4431809.27744  23117504.0724   23117502.5614
      1445.1584
  13241159.52747  10305334.97743  24487038.1434   24487033.6704
     -3591.2664
  -8562181.21549  -6667875.25845  22288610.1894   22288607.8854
      1287.8034
  14169192.56348  11021170.85244  23744579.5884   23744575.7994
     -3223.3484
 04  9  1 15 50 15.0030000  0  7G11G14G15G 1G19G25G22
  -7464823.05949  -5808515.14545  22588733.5154   22588729.5074
       738.4954
  10520513.07049   8188285.00845  22033284.8044   22033281.2264
     -3054.3854
  20133606.55147  15665879.90242  24229769.4604   24229769.0154
     -4769.1974
  -5719750.85248  -4448649.73844  23113391.7494   23113389.7804
      1440.7964
  13295075.91447  10347347.70742  24497298.5544   24497293.9444
     -3594.4264
  -8581399.69149  -6682850.68045  22284952.9604   22284950.8744
      1281.2324
  14217581.11748  11058876.18044  23753787.7654   23753783.9374
     -3225.9044
 04  9  1 15 50 30.0030000  0  7G11G14G15G 1G19G25G22
  -7475785.66449  -5817057.44945  22586647.2104   22586643.4914
       730.8404
  10566384.85549   8224029.24645  22042013.9914   22042010.6404
     -3058.1194
  20205181.01246  15721652.14842  24243390.3044   24243389.2414
     -4771.6314
  -5741292.36348  -4465435.32044  23109292.4914   23109290.5224
      1436.1014
  13349034.15647  10389393.05143  24507565.9764   24507562.6874
     -3597.2164
  -8600514.69549  -6697745.47745  22281315.6244   22281313.4644
      1274.3344
  14266003.44548  11096607.82844  23763002.2494   23762998.4644
     -3228.1554
 04  9  1 15 50 45.0030000  0  7G11G14G15G 1G19G25G22
  -7486633.68749  -5825510.45745  22584582.9994   22584579.5504
       723.2024
  10612315.65649   8259819.46945  22050754.2654   22050750.6674
     -3062.0534
  20276796.80147  15777456.61742  24257018.3974   24257017.2334
     -4774.3864
  -5762764.57848  -4482166.90244  23105206.0624   23105204.5734
      1431.4814
  13403037.68847  10431473.69143  24517843.0074   24517839.2184
     -3600.2354
  -8619526.93049  -6712560.18745  22277697.8194   22277695.0734
      1267.4824
  14314463.12948  11134368.59844  23772223.7264   23772219.7334
     -3230.6464
 04  9  1 15 51  0.0030000  0  7G11G14G15G 1G19G25G22
  -7497367.98449  -5833874.85545  22582540.5624   22582536.3314
       715.6204
  10658304.18449   8295654.67245  22059505.7264   22059502.0114
     -3065.9024
  20348452.49246  15833292.16442  24270653.4604   24270652.9254
     -4777.0464
  -5784168.46148  -4498845.25044  23101133.5934   23101131.9444
      1426.9264
  13457085.14147  10473588.54343  24528128.1404   24528123.0114
     -3603.1644
  -8638437.27049  -6727295.50445  22274099.1014   22274096.5384
      1260.6894
  14362959.12548  11172157.65644  23781452.5154   23781448.3394
     -3233.0664
 04  9  1 15 51 15.0030000  0  7G11G14G15G 1G19G25G22
  -7507990.13749  -5842151.85945  22580519.1084   22580515.4524
       708.1434
  10704348.44149   8331533.30545  22068267.6634   22068264.1124
     -3069.6174
  20420145.95346  15889157.16042  24284296.3044   24284295.6634
     -4779.5644
  -5805505.83648  -4515471.76644  23097073.1874   23097071.2144
      1422.4924
  13511174.30947  10515735.89843  24538421.0774   24538416.6904
     -3605.9454
  -8657247.21149  -6741952.58645  22270519.6944   22270517.2294
      1253.9964
  14411489.59048  11209973.57444  23790687.2184   23790683.3354
     -3235.3644
 04  9  1 15 51 30.0030000  0  7G11G14G15G 1G19G25G22
  -7518496.69949  -5850338.79345  22578520.1404   22578515.6284
       700.4384
  10750451.45349   8367457.71946  22077041.0854   22077037.1594
     -3073.5344
  20491880.25446  15945053.96542  24297947.5694   24297946.0424
     -4782.2874
  -5826773.31248  -4532043.81244  23093025.7654   23093024.2574
      1417.8324
  13565308.03547  10557917.98843  24548722.2494   24548718.9834
     -3608.9154
  -8675953.20349  -6756528.68045  22266960.1014   22266957.7224
      1247.0664
  14460057.77348  11247818.88744  23799929.6554   23799925.4444
     -3237.8794
 04  9  1 15 51 45.0030000  0  7G11G14G15G 1G19G25G22
  -7528887.83249  -5858435.79345  22576542.3354   22576538.4914
       692.7424
  10796612.46949   8403427.32846  22085824.9294   22085820.8434
     -3077.4014
  20563654.61347  16000981.98842  24311605.6634   24311604.2494
     -4784.9574
  -5847971.29348  -4548561.71544  23088991.8584   23088990.1014
      1413.1994
  13619485.46947  10600134.13742  24559031.4994   24559027.9524
     -3611.8294
  -8694555.44549  -6771023.91445  22263419.9764   22263417.3084
      1240.1494
  14508663.17248  11285693.20744  23809178.9294   23809174.3234
     -3240.3604
 04  9  1 15 52  0.0030000  0  7G11G14G15G 1G19G25G22
  -7539164.00449  -5866443.21145  22574586.5624   22574582.7654
       685.0784
  10842830.70349   8439441.53146  22094620.0774   22094616.1014
     -3081.2164
  20635468.07047  16056940.48042  24325271.1404   24325270.6164
     -4787.5644
  -5869100.42248  -4565025.95744  23084971.3584   23084969.6554
      1408.6094
  13673705.55547  10642383.53942  24569348.8274   24569345.3944
     -3614.6724
  -8713054.27749  -6785438.57845  22259899.8124   22259897.3274
      1233.2554
  14557305.18848  11323596.03544  23818434.8044   23818430.7184
     -3242.8014
 04  9  1 15 52 15.0030000  0  7G11G14G15G 1G19G25G22
  -7549327.00849  -5874362.43745  22572652.6014   22572649.1204
       677.5344
  10889104.05149   8475498.67646  22103425.8274   22103422.0114
     -3084.8904
  20707318.55147  16112927.82042  24338944.3974   24338943.2724
     -4790.0324
  -5890162.46548  -4581437.93444  23080963.1014   23080961.3904
      1404.1364
  13727966.19546  10684664.50443  24579674.2574   24579671.1444
     -3617.3764
  -8731451.33249  -6799773.92645  22256398.7184   22256396.7294
      1226.4704
  14605981.95748  11361525.95343  23827698.1634   23827693.7574
     -3245.1184
 04  9  1 15 52 30.0030000  0  7G11G14G15G 1G19G25G22
  -7559374.81249  -5882191.90645  22570740.6794   22570737.0544
       669.8544
  10935433.79749   8511599.76645  22112241.7884   22112237.8044
     -3088.6504
  20779207.27747  16168944.97342  24352623.9374   24352623.7264
     -4792.5824
  -5911155.71948  -4597796.30144  23076968.3124   23076966.4794
      1399.5504
  13782268.44147  10726977.89843  24590007.4994   24590005.4644
     -3620.1504
  -8749744.80949  -6814028.56645  22252917.9764   22252915.5424
      1219.5654
  14654695.05148  11399484.18444  23836968.1084   23836963.4954
     -3247.5404
 04  9  1 15 52 45.0030000  0  7G11G14G15G 1G19G25G22
  -7569307.68449  -5889931.82045  22568850.6634   22568847.0774
       662.1914
  10981819.24649   8547744.26645  22121068.7024   22121065.0814
     -3092.3634
  20851133.54747  16224991.36342  24366311.2494   24366310.6554
     -4795.0854
  -5932080.71148  -4614101.47744  23072986.4374   23072984.7374
      1394.9994
  13836611.35247  10769323.02343  24600348.0154   24600346.2654
     -3622.8614
  -8767934.76649  -6828202.54745  22249456.4134   22249453.9834
      1212.6644
  14703444.02048  11437470.36343  23846244.6324   23846240.0464
     -3249.9314
 04  9  1 15 53  0.0030000  0  7G11G14G15G 1G19G25G22
  -7579126.69149  -5897583.00445  22566982.3044   22566978.3474
       654.6014
  11028259.07849   8583931.13345  22129905.8904   22129902.0074
     -3095.9894
  20923095.77347  16281065.78542  24380004.8434   24380004.4724
     -4797.4824
  -5952938.50048  -4630354.28544  23069017.4914   23069015.7104
      1390.5194
  13890993.49247  10811698.68442  24610696.7654   24610694.5584
     -3625.4764
  -8786022.21549  -6842296.66045  22246014.6874   22246012.3084
      1205.8304
  14752227.70348  11475483.59443  23855527.9214   23855523.0584
     -3252.2464
 04  9  1 15 53 15.0030000  0  7G11G14G15G 1G19G25G22
  -7588833.16449  -5905146.49645  22565135.5304   22565131.2804
       647.0984
  11074751.41449   8620158.92245  22138752.9054   22138749.4524
     -3099.4894
  20995092.10247  16337166.77042  24393705.6874   24393705.1874
     -4799.7554
  -5973730.56248  -4646555.88744  23065060.8434   23065058.9994
      1386.1384
  13945412.91447  10854103.37543  24621052.8824   24621050.8274
     -3627.9614
  -8804008.48049  -6856311.91445  22242592.2494   22242589.5194
      1199.0844
  14801044.48448  11513522.62543  23864817.3044   23864812.8704
     -3254.4524
 04  9  1 15 53 30.0030000  0  7G11G14G15G 1G19G25G22
  -7598424.39549  -5912620.18445  22563309.7654   22563306.1794
       639.4154
  11121298.48449   8656429.35545  22147610.8974   22147607.1754
     -3103.1384
  21067124.81646  16393296.10942  24407413.3904   24407412.9054
     -4802.1814
  -5994454.39848  -4662704.31644  23061116.8824   23061115.5344
      1381.5894
  13999871.78947  10896538.80943  24631416.5384   24631414.0854
     -3630.5924
  -8821890.81249  -6870246.18745  22239188.8274   22239186.5694
      1192.1554
  14849896.93848  11551589.43443  23874113.8044   23874109.2454
     -3256.8304
 04  9  1 15 53 45.0030000  0  7G11G14G15G 1G19G25G22
  -7607899.21549  -5920003.17245  22561507.2024   22561503.1834
       631.6554
  11167901.07449   8692743.04745  22156479.1404   22156475.2224
     -3106.8394
  21139194.48446  16449454.25442  24421127.2264   24421127.2764
     -4804.6454
  -6015109.01248  -4678798.81644  23057186.8124   23057185.2144
      1376.9744
  14054370.55148  10939005.34442  24641788.2724   24641783.9294
     -3633.2514
  -8839668.07049  -6884098.57845  22235806.0464   22235803.5154
      1185.1514
  14898785.85948  11589684.66843  23883417.1324   23883412.2964
     -3259.2614
 04  9  1 15 54  0.0030000  0  7G11G14G15G 1G19G25G22
  -7617259.44149  -5927296.87145  22559726.0464   22559721.9404
       624.0154
  11214556.77049   8729098.12145  22165357.3974   22165353.7184
     -3110.3804
  21211298.73846  16505639.33242  24434848.7264   24434848.0074
     -4806.9504
  -6035696.42248  -4694840.93744  23053268.9294   23053267.7884
      1372.4944
  14108906.72747  10981501.04343  24652165.8044   24652161.7724
     -3635.7454
  -8857342.11349  -6897870.55145  22232443.0464   22232440.4684
      1178.2704
  14947709.22748  11627806.75044  23892726.8664   23892722.4094
     -3261.5584
 04  9  1 15 54 15.0030000  0  7G11G14G15G 1G19G25G22
  -7626502.36349  -5934499.16045  22557967.0774   22557963.2334
       616.1954
  11261268.13749   8765496.57045  22174246.5544   22174242.2724
     -3114.0914
  21283440.09846  16561853.35542  24448576.5934   24448576.1164
     -4809.4244
  -6056213.83248  -4710828.52344  23049365.3354   23049363.2764
      1367.8274
  14163482.75847  11024027.76642  24662550.3824   24662547.3584
     -3638.4024
  -8874910.00049  -6911559.80545  22229099.6794   22229097.4444
      1171.1924
  14996669.77748  11665957.79343  23902043.3974   23902039.0114
     -3264.0374
 04  9  1 15 54 30.0030000  0  7G11G14G15G 1G19G25G22
  -7635628.89149  -5941610.74245  22556230.4444   22556226.5224
       608.4354
  11308033.57049   8801937.16845  22183145.4214   22183141.4604
     -3117.6964
  21355616.90946  16618095.00842  24462311.3584   24462311.1514
     -4811.7874
  -6076662.52348  -4726762.55544  23045473.3824   23045471.8584
      1363.2464
  14218096.85246  11066584.16042  24672942.6324   24672939.9014
     -3640.9404
  -8892372.76249  -6925167.14145  22225776.6874   22225774.3314
      1164.1844
  15045666.12548  11704136.74243  23911366.9134   23911363.1014
     -3266.4234
 04  9  1 15 54 45.0030000  0  7G11G14G15G 1G19G25G22
  -7644639.54749  -5948632.03945  22554515.8584   22554511.9524
       600.7104
  11354852.15649   8838419.17645  22192054.5854   22192050.4214
     -3121.2394
  21427828.18446  16674363.45742  24476052.6474   24476053.2414
     -4814.0854
  -6097043.19948  -4742643.59044  23041595.3274   23041593.5774
      1358.7124
  14272747.90246  11109169.33243  24683343.1324   24683339.3904
     -3643.4034
  -8909730.84849  -6938692.91445  22222473.3354   22222471.2294
      1157.2064
  15094697.54748  11742343.00843  23920697.9134   23920693.6714
     -3268.7614
 04  9  1 15 55  0.0030000  0  7G11G14G15G 1G19G25G22
  -7653534.36349  -5955563.07445  22552823.2804   22552819.2414
       592.9884
  11401723.55549   8874942.32845  22200973.7574   22200970.3904
     -3124.7604
  21500073.51646  16730658.47342  24489800.9374   24489800.6284
     -4816.3554
  -6117355.82448  -4758471.60544  23037729.7724   23037728.5504
      1354.1754
  14327435.37947  11151782.90242  24693750.3354   24693747.1244
     -3645.8324
  -8926984.11749  -6952137.00445  22219190.2264   22219187.9724
      1150.2184
  15143764.02748  11780576.59843  23930034.7414   23930030.5384
     -3271.0994
 04  9  1 15 55 15.0030000  0  7G11G14G15G 1G19G25G22
  -7662311.93749  -5962402.75045  22551152.7804   22551148.9764
       585.1724
  11448648.65649   8911507.32845  22209903.6634   22209899.5114
     -3128.3404
  21572353.71146  16786980.65642  24503554.9834   24503555.2184
     -4818.6804
  -6137599.34848  -4774245.77044  23033877.5854   23033875.8194
      1349.5684
  14382160.03947  11194425.46542  24704163.6794   24704161.0034
     -3648.3114
  -8944131.23449  -6965498.38746  22215927.4914   22215924.9524
      1143.1414
  15192866.66048  11818838.35943  23939378.8274   23939374.7694
     -3273.5094
 04  9  1 15 55 30.0030000  0  7G11G14G15G 1G19G25G22
  -7670972.06249  -5969150.91045  22549504.7264   22549500.8044
       577.3424
  11495627.27349   8948114.03545  22218843.1404   22218839.6324
     -3131.9084
  21644668.56646  16843329.83642  24517316.3194   24517316.0974
     -4820.9904
  -6157773.62548  -4789965.98044  23030038.5304   23030036.7844
      1344.9524
  14436921.56647  11237096.76242  24714585.0464   24714581.6084
     -3650.7684
  -8961171.87949  -6978776.80145  22212684.5934   22212682.1474
      1136.0434
  15242005.39148  11857128.24243  23948729.1244   23948725.3664
     -3275.9154
 04  9  1 15 55 45.0030000  0  7G11G14G15G 1G19G25G22
  -7679514.66449  -5975807.48445  22547879.1244   22547875.6904
       569.5074
  11542658.90249   8984762.04745  22227793.0694   22227789.2804
     -3135.4424
  21717017.53946  16899705.60242  24531083.8824   24531083.7144
     -4823.2654
  -6177878.71548  -4805632.27744  23026212.2964   23026210.7374
      1340.3394
  14491719.39147  11279796.31642  24725012.3434   24725009.4444
     -3653.1884
  -8978105.87949  -6991972.11345  22209462.0694   22209459.7294
      1128.9334
  15291180.14548  11895446.20743  23958086.8194   23958083.1164
     -3278.3174
 04  9  1 15 56  0.0030000  0  7G11G14G15G 1G19G25G22
  -7687940.52049  -5982373.08245  22546275.9134   22546272.0384
       561.7244
  11589742.42649   9021450.48845  22236752.9914   22236749.0224
     -3138.9024
  21789399.34847  16956106.96142  24544857.6714   24544857.4724
     -4825.4544
  -6197915.64148  -4821245.45344  23022400.1874   23022397.9874
      1335.7954
  14546552.11347  11322523.05142  24735446.3744   24735444.0624
     -3655.5154
  -8994934.10549  -7005085.01246  22206259.9054   22206257.4954
      1121.8824
  15340389.91848  11933791.43843  23967451.1324   23967447.2454
     -3280.6524
 04  9  1 15 56 15.0030000  0  7G11G14G15G 1G19G25G22
  -7696247.65649  -5988846.18445  22544695.2104   22544691.1124
       553.8094
  11636879.44949   9058180.62545  22245723.0624   22245718.9174
     -3142.4684
  21861815.45347  17012535.03142  24558637.7884   24558637.7184
     -4827.7404
  -6217882.39148  -4836803.96144  23018600.3124   23018598.1164
      1331.1174
  14601421.10946  11365278.08642  24745887.5544   24745884.4524
     -3657.9334
  -9011654.34049  -7018113.75845  22203078.1554   22203075.6674
      1114.6824
  15389636.41048  11972165.29343  23976823.2334   23976818.9484
     -3283.0994
 04  9  1 15 56 30.0030000  0  7G11G14G15G 1G19G25G22
  -7704434.65249  -5995225.67245  22543136.8124   22543133.3744
       545.8004
  11684070.79749   9094953.09445  22254702.8744   22254699.1044
     -3146.0904
  21934266.64846  17068990.44942  24572425.3514   24572424.8624
     -4830.0804
  -6237777.94948  -4852306.99244  23014814.0934   23014811.9914
      1326.3714
  14656327.18446  11408061.99642  24756335.3584   24756332.4294
     -3660.4054
  -9028265.30949  -7031057.35945  22199917.1794   22199914.6904
      1107.3984
  15438920.82448  12010568.69543  23986201.8974   23986197.0654
     -3285.6284
 04  9  1 15 56 45.0030000  0  7G11G14G15G 1G19G25G22
  -7712503.78949  -6001513.32045  22541601.5464   22541597.5624
       537.9424
  11731313.82849   9131765.83245  22263692.7414   22263689.2024
     -3149.5354
  22006750.32047  17125471.17242  24586218.4524   24586218.1554
     -4832.2454
  -6257604.59848  -4867756.31644  23011041.3354   23011039.3904
      1321.7774
  14711267.50446  11450872.58242  24766790.3274   24766787.4954
     -3662.6884
  -9044769.18449  -7043917.51645  22196776.8044   22196773.9214
      1100.2584
  15488240.70748  12048999.74243  23995586.7804   23995582.6444
     -3287.9924
 04  9  1 15 57  0.0030000  0  7G11G14G15G 1G19G25G22
  -7720455.63749  -6007709.57045  22540088.2804   22540084.2724
       530.1234
  11778607.50049   9168618.03545  22272692.4444   22272689.1634
     -3152.9114
  22079265.25047  17181976.25842  24600017.5934   24600017.1404
     -4834.3294
  -6277363.12148  -4883152.55944  23007281.3904   23007279.3974
      1317.2354
  14766240.86747  11493708.91842  24777252.9834   24777248.4724
     -3664.8914
  -9061166.57449  -7056694.69145  22193656.1404   22193653.6674
      1093.1594
  15537595.19948  12087457.76243  24004978.5624   24004974.3194
     -3290.2994
 04  9  1 15 57 15.0030000  0  7G11G14G15G 1G19G25G22
  -7728286.91049  -6013811.86745  22538598.3514   22538594.0624
       522.0854
  11825954.67649   9205511.92645  22281702.7104   22281699.1404
     -3156.4784
  22151814.44547  17238508.05142  24613822.9374   24613822.2184
     -4836.6134
  -6297050.30148  -4898493.21144  23003534.7884   23003532.9644
      1312.4794
  14821250.09847  11536573.21142  24787720.7024   24787717.2414
     -3667.2824
  -9077453.97349  -7069386.16445  22190557.0154   22190554.3864
      1085.8274
  15586987.54348  12125945.27343  24014377.5934   24014373.6164
     -3292.8234
 04  9  1 15 57 30.0030000  0  7G11G14G15G 1G19G25G22
  -7736000.19949  -6019822.23045  22537129.9914   22537126.4484
       514.2194
  11873352.35949   9242445.18045  22290721.7804   22290718.1474
     -3159.8464
  22224394.79747  17295064.12942  24627634.5854   24627634.2884
     -4838.6904
  -6316668.96548  -4913780.48044  22999801.7334   22999799.8624
      1307.9114
  14876291.98047  11579462.94142  24798195.2184   24798191.9214
     -3669.4594
  -9093634.13349  -7081994.07046  22187477.7264   22187475.5734
      1078.6774
  15636414.85548  12164460.02343  24023783.5774   24023779.4794
     -3295.1544
 04  9  1 15 57 45.0030000  0  7G11G14G15G 1G19G25G22
  -7743595.33649  -6025740.52345  22535684.7884   22535681.2104
       506.3424
  11920800.41049   9279417.66845  22299751.1244   22299747.1514
     -3163.2034
  22297005.95747  17351644.21142  24641452.6244   24641451.8004
     -4840.7444
  -6336219.06248  -4929014.30944  22996081.4374   22996079.7374
      1303.3404
  14931366.10547  11622377.83242  24808675.1474   24808672.0264
     -3671.6084
  -9109706.73049  -7094518.16046  22184419.0774   22184416.9054
      1071.5074
  15685877.08248  12203001.99243  24033196.1554   24033191.7844
     -3297.4824
 04  9  1 15 58  0.0030000  0  7G11G14G15G 1G19G25G22
  -7751072.15649  -6031566.62945  22534261.8904   22534258.4724
       498.4554
  11968298.58649   9316429.22345  22308789.5074   22308785.8234
     -3166.5454
  22369647.60547  17408248.03942  24655275.6874   24655274.6634
     -4842.7774
  -6355700.52348  -4944194.66044  22992373.8824   22992372.5224
      1298.7644
  14986472.14846  11665317.56642  24819160.3274   24819157.8544
     -3673.7364
  -9125671.62549  -7106958.32845  22181381.2334   22181378.8314
      1064.3264
  15735374.32848  12241571.25043  24042614.8584   24042610.9644
     -3299.8164
 04  9  1 15 58 15.0030000  0  7G11G14G15G 1G19G25G22
  -7758429.62149  -6037299.72345  22532862.2024   22532858.6244
       490.4984
  12015847.29349   9353480.15645  22317837.9374   22317834.1554
     -3169.9144
  22442320.10247  17464875.92242  24669104.8274   24669104.3154
     -4844.8334
  -6375112.63748  -4959320.97344  22988680.4684   22988678.2224
      1294.1414
  15041610.32846  11708282.37542  24829652.2724   24829649.6404
     -3675.8794
  -9141527.77349  -7119313.76645  22178363.6874   22178361.4444
      1057.0774
  15784907.19948  12280168.26243  24052040.4604   24052036.5854
     -3302.1914
 04  9  1 15 58 30.0030000  0  7G11G14G15G 1G19G25G22
  -7765668.31249  -6042940.27045  22531484.5934   22531480.9174
       482.5794
  12063445.58249   9390569.72345  22326895.4914   22326891.6674
     -3173.2194
  22515022.54747  17521527.14142  24682939.1474   24682938.3864
     -4846.8304
  -6394456.00848  -4974393.73044  22984999.1794   22984997.4564
      1289.5584
  15096779.46546  11751271.27042  24840150.5304   24840147.7574
     -3677.9424
  -9157275.66049  -7131584.83245  22175367.0934   22175364.7184
      1049.8594
  15834475.10248  12318792.57443  24061473.3194   24061469.2374
     -3304.5274
 04  9  1 15 58 45.0030000  0  7G11G14G15G 1G19G25G22
  -7772786.51649  -6048486.92645  22530129.8744   22530126.3474
       474.5474
  12111094.84049   9427698.99645  22335962.9684   22335959.3864
     -3176.6174
  22587756.17647  17578202.64542  24696779.9134   24696779.5034
     -4848.9094
  -6413728.94948  -4989411.59844  22981331.8354   22981330.0854
      1284.8634
  15151980.92646  11794285.31342  24850655.9134   24850653.4374
     -3680.0974
  -9172913.45749  -7143770.12546  22172391.6014   22172389.0774
      1042.5204
  15884079.60548  12357445.40644  24070912.8274   24070908.7724
     -3306.9674
 04  9  1 15 59  0.0030000  0  7G11G14G15G 1G19G25G22
  -7779784.62149  -6053940.01245  22528798.2884   22528794.7454
       466.5404
  12158794.21149   9464867.33245  22345039.5544   22345036.1164
     -3179.9584
  22660520.04747  17634901.70742  24710626.8824   24710625.5774
     -4850.9254
  -6432932.05948  -5004375.05144  22977677.2184   22977675.7924
      1280.2074
  15207213.70346  11837323.79342  24861165.9994   24861164.1904
     -3682.1854
  -9188441.62549  -7155869.98446  22169436.2724   22169433.8354
      1035.2114
  15933720.03548  12396126.23843  24080358.9914   24080354.8904
     -3309.3624
 04  9  1 15 59 15.0030000  0  7G11G14G15G 1G19G25G22
  -7786662.05949  -6059299.06245  22527489.6014   22527486.0304
       458.4964
  12206543.92649   9502074.89145  22354126.4214   22354122.8394
     -3183.3144
  22733314.22347  17691624.40242  24724479.2264   24724478.7694
     -4852.9454
  -6452064.93748  -5019283.78144  22974036.6944   22974034.9644
      1275.5254
  15262477.78146  11880386.65242  24871683.4444   24871680.4724
     -3684.2724
  -9203859.43049  -7167883.85546  22166502.3584   22166499.8744
      1027.8544
  15983396.75048  12434835.34443  24089812.0934   24089808.0814
     -3311.7814
 04  9  1 15 59 30.0030000  0  7G11G14G15G 1G19G25G22
  -7793419.92249  -6064564.93745  22526203.9294   22526200.3354
       450.5244
  12254342.41449   9539320.44945  22363222.2024   22363218.3974
     -3186.5664
  22806137.25847  17748369.57442  24738336.7964   24738336.2844
     -4854.8694
  -6471128.85248  -5034138.77044  22970408.8904   22970407.3194
      1270.9284
  15317771.37946  11923472.52742  24882206.0624   24882202.5154
     -3686.2404
  -9219167.95349  -7179812.57445  22163589.1404   22163586.8124
      1020.5684
  16033108.44548  12473571.69943  24099272.1874   24099267.9954
     -3314.1134
 04  9  1 15 59 45.0030000  0  7G11G14G15G 1G19G25G22
  -7800058.12149  -6069737.56645  22524940.4524   22524936.8514
       442.5474
  12302189.29349   9576603.71945  22372327.0544   22372323.2184
     -3189.7924
  22878988.66447  17805136.84842  24752200.3824   24752199.0814
     -4856.7604
  -6490123.93448  -5048940.12544  22966794.3974   22966792.4644
      1266.3394
  15373094.00047  11966581.02342  24892733.6164   24892728.4254
     -3688.1754
  -9234367.28549  -7191656.21146  22160697.3044   22160694.7224
      1013.2894
  16082854.91048  12512335.16443  24108738.2884   24108734.5384
     -3316.4314
 04  9  1 16  0  0.0030000  0  7G11G14G15G 1G19G25G22
  -7806575.34449  -6074815.92245  22523700.4374   22523696.6834
       434.4824
  12350085.56649   9613925.48445  22381441.1084   22381437.5194
     -3193.0854
  22951869.41847  17861927.01642  24766068.6014   24766067.8904
     -4858.7174
  -6509048.84448  -5063686.79744  22963193.2804   22963191.0624
      1261.6614
  15428446.43446  12009712.76642  24903266.4914   24903262.5114
     -3690.1624
  -9249455.79349  -7203413.49246  22157825.7884   22157823.3354
      1005.9014
  16132637.53548  12551126.78143  24118211.6944   24118207.9684
     -3318.8424
 04  9  1 16  0 15.0030000  0  7G11G14G15G 1G19G25G22
  -7812972.06249  -6079800.39845  22522482.7264   22522479.3354
       426.4484
  12398030.21149   9651284.93845  22390565.3194   22390561.3274
     -3196.3104
  23024778.29747  17918739.07442  24779942.6474   24779941.9564
     -4860.5924
  -6527904.32048  -5078379.36744  22959604.6634   22959603.1244
      1257.0324
  15483827.62947  12052866.92642  24913804.9444   24913802.0584
     -3692.0804
  -9264434.03549  -7215084.84845  22154975.5224   22154973.3744
       998.5494
  16182455.48048  12589945.94543  24127691.6244   24127687.7104
     -3321.1964
 04  9  1 16  0 30.0030000  0  7G11G14G15G 1G19G25G22
  -7819248.45349  -6084691.09845  22521288.8274   22521285.2884
       418.4264
  12446022.66449   9688681.64545  22399697.5384   22399694.0194
     -3199.4974
  23097714.75046  17975572.62542  24793822.4214   24793821.7654
     -4862.4304
  -6546690.65648  -5093018.05944  22956029.9914   22956028.3124
      1252.4224
  15539236.91047  12096042.93042  24924349.1474   24924346.3474
     -3693.9524
  -9279301.99249  -7226670.24246  22152146.3044   22152143.7334
       991.1974
  16232308.49648  12628792.42243  24137178.6084   24137174.5264
     -3323.5344
 04  9  1 16  0 45.0030000  0  7G11G14G15G 1G19G25G22
  -7825403.26649  -6089487.06245  22520117.9374   22520113.6364
       410.3214
  12494063.81649   9726116.29745  22408839.7024   22408835.8864
     -3202.7434
  23170679.55546  18032428.27742  24807706.9294   24807706.8624
     -4864.3204
  -6565406.85548  -5107602.09844  22952468.2334   22952466.6014
      1247.7474
  15594674.89547  12139241.32042  24934898.4994   24934895.8864
     -3695.8664
  -9294058.60949  -7238168.88346  22149338.1714   22149335.6794
       983.7744
  16282197.45348  12667666.90643  24146671.8274   24146668.2454
     -3325.9304
 04  9  1 16  1  0.0030000  0  7G11G14G15G 1G19G25G22
  -7831435.79749  -6094187.75045  22518969.4134   22518965.4254
       402.1694
  12542153.93449   9763589.10545  22417991.1714   22417987.0814
     -3206.0084
  23243672.92246  18089306.18042  24821597.2414   24821597.2574
     -4866.2244
  -6584052.29348  -5122131.00444  22948920.3194   22948918.7534
      1243.0294
  15650141.68446  12182462.15242  24945453.5774   24945450.4874
     -3697.7864
  -9308703.05549  -7249580.12946  22146551.5464   22146549.1634
       976.2964
  16332122.89148  12706569.81643  24156172.3514   24156168.7534
     -3328.3624
 04  9  1 16  1 15.0030000  0  7G11G14G15G 1G19G25G22
  -7837346.85249  -6098793.77745  22517844.5934   22517841.0584
       394.0704
  12590291.92249   9801099.21145  22427150.9994   22427147.3944
     -3209.1994
  23316693.78146  18146205.48442  24835492.4374   24835492.2924
     -4868.0574
  -6602627.77348  -5136605.39544  22945385.1084   22945383.6984
      1238.3654
  15705636.09047  12225704.52742  24956013.2334   24956009.8274
     -3699.6274
  -9323235.91849  -7260904.42646  22143786.0464   22143783.7764
       968.8584
  16382084.07048  12745500.57043  24165679.7724   24165675.9994
     -3330.7454
 04  9  1 16  1 30.0030000  0  7G11G14G15G 1G19G25G22
  -7843134.94149  -6103303.98045  22516743.2964   22516739.7024
       385.8734
  12638478.84449   9838647.45345  22436320.7574   22436317.1674
     -3212.4614
  23389742.91846  18203126.83642  24849392.7334   24849393.8274
     -4869.9424
  -6621132.14848  -5151024.37544  22941864.1014   22941862.6044
      1233.6254
  15761158.81346  12268968.94542  24966578.6324   24966575.9644
     -3701.5154
  -9337655.80549  -7272140.69946  22141041.9604   22141039.5694
       961.3264
  16432081.96548  12784459.93843  24175194.0694   24175190.3124
     -3333.1934
 04  9  1 16  1 45.0030000  0  7G11G14G15G 1G19G25G22
  -7848802.27049  -6107720.09045  22515664.7804   22515661.0584
       377.8224
  12686711.90649   9876231.64145  22445499.3194   22445495.8084
     -3215.5374
  23462817.68446  18260068.13342  24863299.4914   24863299.2534
     -4871.6514
  -6639567.74248  -5165389.76645  22938355.8824   22938353.9484
      1229.0404
  15816707.05946  12312253.24642  24977149.1794   24977146.9604
     -3703.2164
  -9351964.99649  -7283290.71546  22138319.0624   22138316.6754
       953.9464
  16482114.26248  12823446.11343  24184715.1164   24184710.7614
     -3335.4864
 04  9  1 16  2  0.0030000  0  8G20G11G14G15G 1G19G25G22
    -85970.75455    -59707.62552  25034261.6634   25034259.6794

  -7854348.88349  -6112042.14145  22514609.4214   22514605.5224
       369.7744
  12734990.97749   9913851.68045  22454686.4914   22454682.7494
     -3218.6054
  23535917.62546  18317029.07042  24877209.5154   24877209.9174
     -4873.3294
  -6657934.52749  -5179701.54344  22934861.1554   22934859.3974
      1224.4524
  15872280.42646  12355557.10542  24987725.2964   24987722.4604
     -3704.8914
  -9366163.25049  -7294354.27746  22135617.0694   22135614.6634
       946.5504
  16532180.88348  12862459.03943  24194242.4294   24194238.4174
     -3337.7754
 04  9  1 16  2 15.0030000  0  8G20G11G14G15G 1G19G25G22
   -115156.99646    -82450.13742  25028707.8124   25028705.4094
      1945.7494
  -7859774.86349  -6116270.18445  22513576.8904   22513572.9214
       361.7324
  12783315.41449   9951507.07845  22463882.3274   22463878.5854
     -3221.6294
  23609042.05146  18374009.07042  24891125.2574   24891124.8314
     -4874.9624
  -6676232.81249  -5193959.93745  22931378.7184   22931377.0854
      1219.8864
  15927878.21546  12398880.01642  24998304.9054   24998301.8434
     -3706.5194
  -9380250.77349  -7305331.56646  22132936.2574   22132933.8274
       939.1684
  16582281.51648  12901498.44943  24203775.7494   24203772.1444
     -3340.0424
 04  9  1 16  2 30.0030000  0  7G20G11G14G 1G19G25G22
   -144347.42247   -105195.91842  25023153.2724   25023150.6554
      1946.0284
  -7865080.69149  -6120404.60545  22512567.3974   22512563.4994
       353.7224
  12831684.30149   9989197.11345  22473086.5544   22473083.2024
     -3224.5924
  -6694463.24648  -5208165.46144  22927909.7104   22927907.9604
      1215.3624
  15983499.33646  12442221.11342  25008889.2654   25008885.7764
     -3708.0754
  -9394227.92649  -7316222.85246  22130276.8124   22130274.2064
       931.8104
  16632415.38748  12940563.78143  24213316.4374   24213312.4014
     -3342.2584
 04  9  1 16  2 45.0030000  0  7G20G11G14G 1G19G25G22
   -173541.14847   -127944.28142  25017598.1554   25017594.9254
      1946.2484
  -7870265.52749  -6124444.74645  22511580.6874   22511576.9054
       345.6564
  12880098.19149  10026922.19945  22482299.6634   22482295.9014
     -3227.5934
  -6712625.02049  -5222317.48044  22924453.6324   22924452.4214
      1210.7854
  16039144.16046  12485580.68442  25019477.5544   25019476.1674
     -3709.6554
  -9408093.66049  -7327027.32846  22127637.9834   22127635.6244
       924.3824
  16682583.39848  12979655.70743  24222863.1794   24222858.9254
     -3344.5344
 04  9  1 16  3  0.0030000  0  7G20G11G14G 1G19G25G22
   -202737.96147   -150695.04742  25012042.1794   25012038.9764
      1946.4544
  -7875328.93449  -6128390.26645  22510617.0694   22510613.6284
       337.5604
  12928556.94949  10064682.26245  22491521.2024   22491517.2614
     -3230.5844
  -6730717.97348  -5236415.87544  22921010.4524   22921008.9914
      1206.1974
  16094812.49246  12528958.56342  25030070.9294   25030068.8904
     -3711.2224
  -9421847.72749  -7337744.76646  22125020.6164   22125018.2334
       916.9384
  16732785.59048  13018774.25443  24232416.3044   24232412.3784
     -3346.8134
 04  9  1 16  3 15.0030000  0  7G20G11G14G 1G19G25G22
   -231937.35947   -173447.83242  25006485.9524   25006482.8744
      1946.6274
  -7880270.28549  -6132240.68045  22509676.9374   22509673.1674
       329.4234
  12977060.79349  10102477.44945  22500750.7804   22500747.4294
     -3233.5904
  -6748741.74648  -5250460.36744  22917580.7104   22917579.1904
      1201.5854
  16150504.30546  12572354.71542  25040668.9444   25040666.4994
     -3712.7874
  -9435489.52049  -7348374.73046  22122424.8194   22122422.5464
       909.4534
  16783022.28148  13057919.69143  24241975.8974   24241972.0504
     -3349.1134
 04  9  1 16  3 30.0030000  0  6G20G11G14G 1G25G22
   -261138.27346   -196201.78942  25000928.8194   25000925.6944
      1946.7284
  -7885088.28549  -6135994.98045  22508760.0774   22508756.2654
       321.2004
  13025610.59849  10140308.44945  22509989.7804   22509986.1634
     -3236.6544
  -6766695.20748  -5264450.06644  22914163.9214   22914162.2064
      1196.8974
  -9449017.92649  -7358916.33646  22119850.3124   22119848.1164
       901.8944
  16833294.60248  13097092.89843  24251542.9134   24251538.8124
     -3351.4884
 04  9  1 16  3 45.0030000  0  6G20G11G14G 1G25G22
   -290340.29347   -218956.60542  24995371.8194   24995368.7064
      1946.8014
  -7889782.63749  -6139652.92245  22507866.6324   22507862.4994
       312.9574
  13074206.29749  10178175.22345  22519236.9604   22519233.2964
     -3239.7134
  -6784578.06648  -5278384.75044  22910761.1404   22910759.4764
      1192.1914
  -9462432.18049  -7369368.98046  22117297.6474   22117295.2414
       894.2844
  16883602.71548  13136294.00043  24261115.5934   24261112.4134
     -3353.8744
 04  9  1 16  4  0.0030000  0  6G20G11G14G 1G25G22
   -319542.68746   -241711.68742  24989814.6164   24989812.5504
      1946.8264
  -7894352.44949  -6143213.82045  22506997.3974   22506993.0074
       304.6544
  13122848.51649  10216078.24245  22528493.4764   22528489.7374
     -3242.8154
  -6802389.63348  -5292263.88344  22907372.1084   22907370.1244
      1187.4384
  -9475731.38749  -7379731.98846  22114767.0854   22114764.5974
       886.6144
  16933947.41448  13175523.60943  24270695.8584   24270692.4794
     -3356.3134
 04  9  1 16  4 15.0030000  0  6G20G11G14G 1G25G22
   -348744.57447   -264466.37942  24984257.8824   24984255.4954
      1946.7924
  -7898796.94549  -6146677.07845  22506151.3514   22506147.4764
       296.3004
  13171537.56649  10254017.75845  22537758.4604   22537754.8004
     -3245.9374
  -6820129.16448  -5306086.88744  22903995.9684   22903994.3744
      1182.6354
  -9488914.77749  -7390004.75446  22112258.2104   22112255.8474
       878.8934
  16984329.35948  13214782.22343  24280283.6474   24280279.8514
     -3358.7964
 04  9  1 16  4 30.0030000  0  6G20G11G14G 1G25G22
   -377944.04747   -287219.19542  24978701.8124   24978698.6554
      1946.6324
  -7903114.10249  -6150041.10245  22505329.7104   22505326.0894
       287.8104
  13220275.16049  10291995.08645  22547033.0694   22547029.6904
     -3249.1734
  -6837794.81648  -5319852.32044  22900634.4444   22900632.6554
      1177.7104
  -9501980.32049  -7400185.68746  22109771.8124   22109769.4014
       871.0364
  17034750.39548  13254071.31643  24289878.3824   24289874.8314
     -3361.4024
 04  9  1 16  4 45.0030000  0  6G20G11G14G 1G25G22
   -407142.25047   -309971.05142  24973145.8044   24973142.3274
      1946.5474
  -7907304.95749  -6153306.71145  22504532.3274   22504528.6834
       279.3904
  13269059.88749  10330009.14845  22556316.6084   22556312.8154
     -3252.3154
  -6855387.66448  -5333561.02344  22897286.7574   22897285.0814
      1172.8574
  -9514928.85949  -7410275.44546  22107307.8824   22107305.3394
       863.2364
  17085209.26248  13293389.89143  24299480.7104   24299476.8544
     -3363.9244
 04  9  1 16  5  0.0030000  0  6G20G11G14G 1G25G22
   -436338.65647   -332721.51242  24967589.6474   24967586.1014
      1946.4274
  -7911368.82449  -6156473.37145  22503758.8434   22503754.9914
       270.9244
  13317892.02749  10368060.15645  22565609.1404   22565605.6284
     -3255.4764
  -6872907.22349  -5347212.62144  22893952.6634   22893950.8904
      1167.9714
  -9527759.80549  -7420273.57046  22104866.5934   22104863.8194
       855.3964
  17135706.48048  13332738.34843  24309090.1634   24309086.2414
     -3366.4814
 04  9  1 16  5 15.0030000  0  6G20G11G14G 1G25G22
   -465533.38747   -355470.66842  24962034.3514   24962029.9174
      1946.3154
  -7915305.68449  -6159541.05545  22503009.6474   22503005.9994
       262.4574
  13366771.13749  10406147.76645  22574910.5224   22574906.7574
     -3258.6074
  -6890353.69948  -5360807.26644  22890632.5544   22890631.0154
      1163.0984
  -9540473.19549  -7430180.10946  22102446.9294   22102444.4294
       847.5594
  17186241.83248  13372116.51243  24318706.2964   24318702.5074
     -3369.0234
 04  9  1 16  5 30.0030000  0  6G20G11G14G 1G25G22
   -494727.18446   -378219.12542  24956478.9054   24956473.9874
      1946.2534
  -7919116.28549  -6162510.36345  22502284.7654   22502280.6904
       254.0404
  13415696.00849  10444271.03545  22584220.4134   22584217.1834
     -3261.6584
  -6907728.00448  -5374345.67244  22887326.3744   22887324.7264
      1158.2874
  -9553069.77349  -7439995.62146  22100049.9374   22100047.4684
       839.7724
  17236814.26248  13411523.58243  24328330.1634   24328326.0814
     -3371.4954
 04  9  1 16  5 45.0030000  0  6G20G11G14G 1G25G22
   -523920.41447   -400967.09441  24950923.2264   24950918.6674
      1946.2154
  -7922800.86349  -6165381.48045  22501583.6244   22501579.5774
       245.6394
  13464666.11749  10482429.55145  22593538.9604   22593535.3704
     -3264.6744
  -6925030.43048  -5387828.06644  22884034.0224   22884032.2104
      1153.4954
  -9565549.57449  -7449720.12946  22097675.0624   22097672.6634
       831.9874
  17287423.53148  13450959.34443  24337960.8044   24337956.6444
     -3373.9514
 04  9  1 16  6  0.0030000  0  6G20G11G14G 1G25G22
   -553113.47746   -423714.92241  24945367.4914   24945363.6044
      1946.2044
  -7926359.92649  -6168154.78545  22500906.1404   22500902.4874
       237.2714
  13513680.71149  10520622.72345  22602866.6554   22602862.7024
     -3267.6404
  -6942261.54749  -5401254.90644  22880755.3514   22880753.2374
      1148.7414
  -9577913.05549  -7459354.00046  22095322.5304   22095320.0034
       824.2324
  17338069.01648  13490423.33643  24347598.2184   24347594.1364
     -3376.3664
 04  9  1 16  6 15.0030000  0  6G20G11G14G 1G25G22
   -582304.94946   -446461.52341  24939813.2804   24939809.0034
      1946.0984
  -7929792.07049  -6170829.19145  22500253.1554   22500249.3124
       228.8104
  13562740.75449  10558851.32045  22612202.0624   22612198.6834
     -3270.6704
  -6959419.95348  -5414625.07844  22877489.8974   22877488.1474
      1143.8944
  -9590158.64549  -7468896.00446  22092992.0544   22092989.6984
       816.3734
  17388751.95748  13529916.49643  24357242.7574   24357238.9874
     -3378.8634
 04  9  1 16  6 30.0030000  0  6G20G11G14G 1G25G22
   -611494.37947   -469206.51242  24934258.2334   24934255.2224
      1945.9624
  -7933096.52349  -6173404.10245  22499624.3904   22499620.5624
       220.2974
  13611846.51249  10597115.53545  22621546.9054   22621543.3974
     -3273.7174
  -6976505.28549  -5427938.31644  22874238.7334   22874236.6044
      1139.0224
  -9602285.74249  -7478345.68446  22090684.5074   22090682.0194
       808.4734
  17439472.72748  13569439.14843  24366894.7414   24366890.9214
     -3381.3854
 04  9  1 16  6 45.0030000  0  6G20G11G14G 1G25G22
   -640684.64547   -491952.16442  24928703.2334   24928700.7104
      1946.0184
  -7936276.17249  -6175881.75845  22499019.1794   22499015.6244
       211.9774
  13660994.79749  10635412.89145  22630899.5544   22630896.1044
     -3276.5524
  -6993520.47748  -5441196.89844  22871000.8514   22870998.9684
      1134.3464
  -9614297.30549  -7487705.32846  22088398.8514   22088396.0304
       800.7714
  17490228.43848  13608989.01243  24376553.5694   24376549.0974
     -3383.7144
 04  9  1 16  7  0.0030000  0  6G20G11G14G 1G25G22
   -669874.07846   -514697.18042  24923148.3514   24923145.6754
      1945.9624
  -7939329.29349  -6178260.82445  22498438.2494   22498434.2264
       203.5414
  13710186.91049  10673744.39545  22640260.3274   22640256.7494
     -3279.4744
  -7010463.94148  -5454399.59044  22867776.8044   22867775.3624
      1129.5644
  -9626191.30949  -7496973.37146  22086135.1714   22086132.8314
       792.9344
  17541020.71948  13648567.39543  24386218.3194   24386214.7844
     -3386.1524
 04  9  1 16  7 15.0030000  0  6G20G11G14G 1G25G22
   -699062.54346   -537441.44142  24917594.2964   24917591.6044
      1945.8984
  -7942255.62149  -6180541.09045  22497881.3194   22497877.4174
       195.0894
  13759422.63749  10712109.88345  22649629.7104   22649626.3664
     -3282.3824
  -7027335.69948  -5467546.39844  22864566.2334   22864564.3194
      1124.7844
  -9637967.73049  -7506149.78546  22083894.2494   22083891.7144
       785.0954
  17591849.37948  13688174.12142  24395890.8744   24395887.1044
     -3388.5774
 04  9  1 16  7 30.0030000  0  6G20G11G14G 1G25G22
   -728251.29746   -560185.91442  24912039.4214   24912037.0854
      1945.9174
  -7945056.52049  -6182723.61345  22497348.3664   22497344.5154
       186.7274
  13808700.55948  10750508.25445  22659006.6794   22659003.5694
     -3285.1954
  -7044137.04749  -5480638.34445  22861368.4994   22861367.2064
      1120.0904
  -9649627.70349  -7515235.46546  22081675.3124   22081672.7764
       777.3324
  17642713.11348  13727808.15243  24405569.7264   24405566.2184
     -3390.9164
 04  9  1 16  7 45.0030000  0  6G20G11G14G 1G25G22
   -757437.28546   -582928.21541  24906485.3194   24906482.7924
      1945.7334
  -7947728.83249  -6184805.94545  22496839.8664   22496836.2804
       178.1544
  13858023.32848  10788941.56645  22668392.4834   22668389.2574
     -3288.1854
  -7060864.93748  -5493673.05145  22858185.8514   22858184.1404
      1115.1934
  -9661168.00049  -7524227.89546  22079479.6324   22079476.6164
       769.3534
  17693614.88748  13767471.84043  24415256.6014   24415252.2924
     -3393.4524
 04  9  1 16  8  0.0030000  0  6G20G11G14G 1G25G22
   -786622.39846   -605669.85242  24900931.9994   24900929.0934
      1945.6744
  -7950274.45349  -6186789.55545  22496355.7104   22496351.7064
       169.7084
  13907388.59048  10827407.99645  22677786.6244   22677782.9134
     -3291.0174
  -7077521.37148  -5506652.07844  22855016.0074   22855014.3514
      1110.4294
  -9672590.44148  -7533128.48846  22077305.7724   22077302.8194
       761.4964
  17744552.64147  13807163.56643  24424949.4214   24424945.8514
     -3395.8504
 04  9  1 16  8 15.0030000  0  6G20G11G14G 1G25G22
   -815807.38346   -628411.40242  24895378.6634   24895375.8944
      1945.6664
  -7952693.97748  -6188674.90245  22495895.2724   22495891.5074
       161.3024
  13956795.47748  10865906.85945  22687188.0854   22687184.7964
     -3293.7924
  -7094107.16848  -5519576.05945  22851859.7804   22851857.8904
      1105.7204
  -9683895.59849  -7541937.69146  22075154.4684   22075151.6474
       753.6774
  17795525.57048  13846882.72343  24434649.2264   24434645.7184
     -3398.1954
 04  9  1 16  8 30.0030000  0  6G20G11G14G 1G25G22
   -844991.46147   -651152.22742  24889825.4214   24889822.5584
      1945.6054
  -7954986.47349  -6190461.27745  22495458.8584   22495454.8904
       152.8334
  14006244.56348  10904438.60245  22696598.3584   22696594.7724
     -3296.6064
  -7110621.50048  -5532444.35245  22848717.3664   22848715.2414
      1100.9554
  -9695082.56649  -7550654.79746  22073025.6554   22073023.1634
       745.7984
  17846534.55547  13886629.94543  24444356.6554   24444352.6554
     -3400.5994
 04  9  1 16  8 45.0030000  0  6G20G11G14G 1G25G22
   -874174.32447   -673892.12142  24884272.2964   24884269.4834
      1945.5244
  -7957151.76249  -6192148.52045  22495046.6164   22495043.0734
       144.3534
  14055735.66048  10943003.09045  22706015.9914   22706012.6474
     -3299.4074
  -7127064.33648  -5545256.93745  22845587.8904   22845586.3544
      1096.1894
  -9706151.18049  -7559279.66846  22070919.3354   22070916.7294
       737.9084
  17897579.51248  13926405.19943  24454069.7574   24454065.9254
     -3402.9974
 04  9  1 16  9  0.0030000  0  6G20G11G14G 1G25G22
   -903356.06647   -696631.12542  24878718.9764   24878716.2064
      1945.4494
  -7959189.72349  -6193736.55145  22494658.9764   22494655.2804
       135.8644
  14105268.47348  10981600.07045  22715441.9214   22715438.7694
     -3302.1874
  -7143435.64848  -5558013.78545  22842472.7024   22842471.0034
      1091.4214
  -9717101.25849  -7567812.18746  22068835.4214   22068833.0624
       730.0054
  17948660.30548  13966208.39543  24463790.4374   24463786.6404
     -3405.3864
 04  9  1 16  9 15.0030000  0  6G20G11G14G 1G25G22
   -932536.25447   -719368.91442  24873166.0854   24873163.5734
      1945.3464
  -7961100.03548  -6195225.11345  22494295.6164   22494291.2694
       127.3544
  14154842.96548  11020229.53545  22724876.1634   22724872.3974
     -3304.9664
  -7159735.33648  -5570714.82445  22839370.9914   22839369.2374
      1086.6464
  -9727932.56249  -7576252.14846  22066774.3354   22066771.8624
       722.0874
  17999777.21948  14006039.71143  24473517.3744   24473513.9014
     -3407.7944
 04  9  1 16  9 30.0030000  0  6G20G11G14G 1G25G22
   -961716.08647   -742106.42242  24867612.9374   24867610.5224
      1945.3224
  -7962883.82449  -6196615.08645  22493956.2414   22493952.4374
       118.9194
  14204457.75849  11058890.40645  22734317.1474   22734313.7184
     -3307.6534
  -7175964.40248  -5583360.83645  22836282.8744   22836280.7614
      1081.9384
  -9738645.96549  -7584600.24246  22064735.7574   22064733.0384
       714.2274
  18050929.09048  14045898.27743  24483251.4134   24483247.9334
     -3410.1254
 04  9  1 16  9 45.0030000  0  6G20G11G14G 1G25G22
   -990894.56647   -764842.89142  24862060.8664   24862058.2724
      1945.2324
  -7964540.02048  -6197905.63345  22493640.7654   22493637.1084
       110.4134
  14254113.51248  11097583.18845  22743765.9374   22743762.7264
     -3310.3844
  -7192122.08248  -5595951.21945  22833208.1084   22833206.2184
      1077.1794
  -9749240.37949  -7592855.62146  22062719.3824   22062717.0814
       706.2944
  18102116.66848  14085784.68043  24492992.0774   24492988.5734
     -3412.5054
 04  9  1 16 10  0.0030000  0  6G20G11G14G 1G25G22
  -1020072.31647   -787578.81242  24856508.3744   24856505.2374
      1945.1834
  -7966069.17249  -6199097.18745  22493349.8354   22493346.0694
       101.9434
  14303809.24649  11136307.12545  22753223.1554   22753219.5814
     -3313.0494
  -7208209.10548  -5608486.54745  22830146.9764   22830145.2574
      1072.4684
  -9759716.43449  -7601018.76246  22060726.1794   22060723.6474
       698.4044
  18153339.16048  14125698.26643  24502739.6944   24502735.9014
     -3414.8334
 04  9  1 16 10 15.0030000  0  6G20G11G14G 1G25G22
  -1049248.81247   -810313.74642  24850956.5304   24850953.2534
      1945.1004
  -7967470.84449  -6200189.41045  22493083.0624   22493079.2764
        93.4454
  14353545.22749  11175062.43045  22762687.6324   22762683.9014
     -3315.7324
  -7224225.00848  -5620966.45345  22827099.4444   22827097.5424
      1067.7274
  -9770073.39149  -7609089.10546  22058755.2884   22058752.6714
       690.4644
  18204597.06648  14165639.46543  24512493.4444   24512489.5814
     -3417.1944
 04  9  1 16 10 30.0030000  0  6G20G11G14G 1G25G22
  -1078424.26648   -833047.87542  24845404.5464   24845401.5074
      1945.0304
  -7968745.05549  -6201182.30945  22492840.8044   22492836.9484
        84.9474
  14403320.93049  11213848.67645  22772159.4914   22772156.1554
     -3318.3804
  -7240170.02748  -5633391.12545  22824064.5304   22824062.9954
      1063.0014
  -9780311.40649  -7617066.76646  22056807.1874   22056804.6754
       682.5344
  18255890.05148  14205607.98443  24522254.1474   24522250.3124
     -3419.5324
 04  9  1 16 10 45.0030000  0  6G20G11G14G 1G25G22
  -1107597.68747   -855780.41842  24839853.3744   24839850.1674
      1944.8954
  -7969890.78549  -6202075.09045  22492622.6404   22492618.8154
        76.3824
  14453137.01249  11252666.38745  22781639.0854   22781635.7534
     -3321.0724
  -7256043.33648  -5645759.92645  22821044.4524   22821042.2574
      1058.2214
  -9790429.42649  -7624950.93046  22054881.7414   22054879.2264
       674.5354
  18307219.03148  14245604.57043  24532021.6874   24532018.0114
     -3421.9324
 04  9  1 16 11  0.0030000  0  6G20G11G14G 1G25G22
  -1136769.24647   -878511.50042  24834301.8274   24834298.7294
      1944.7714
  -7970908.22349  -6202867.91045  22492428.9214   22492425.4444
        67.8294
  14502992.88349  11291515.11345  22791126.3044   22791122.8004
     -3323.7254
  -7271845.19148  -5658073.04745  22818036.8904   22818035.2654
      1053.4574
  -9800427.62949  -7632741.71946  22052978.9914   22052976.3274
       666.5474
  18358583.57848  14285628.85543  24541796.7024   24541792.4094
     -3424.3034
 04  9  1 16 11 15.0030000  0  6G20G11G14G 1G25G22
  -1165939.71147   -901241.72342  24828750.9214   24828747.7924
      1944.6984
  -7971798.02749  -6203561.26645  22492259.9214   22492255.8354
        59.3204
  14552887.46948  11330394.00445  22800621.1324   22800617.9644
     -3326.3064
  -7287576.51249  -5670331.20345  22815043.6474   22815041.6794
      1048.7554
  -9810306.57849  -7640439.59046  22051099.0934   22051096.8824
       658.5974
  18409982.85948  14325680.21143  24551577.5854   24551573.7064
     -3426.6194
 04  9  1 16 11 30.0030000  0  6G20G11G14G 1G25G22
  -1195109.16447   -923971.14542  24823200.1714   24823197.4094
      1944.6304
  -7972560.21949  -6204155.19545  22492114.7964   22492111.0384
        50.8134
  14602820.50848  11369302.84844  22810122.7184   22810119.3864
     -3328.8694
  -7303237.32848  -5682534.41845  22812063.5224   22812061.4404
      1044.0544
  -9820066.37949  -7648044.61346  22049241.8904   22049239.1444
       650.6534
  18461416.76248  14365758.53943  24561365.1474   24561360.9014
     -3428.9274
 04  9  1 16 11 45.0030000  0  6G20G11G14G 1G25G22
  -1224275.87147   -946698.44542  24817649.8434   24817646.6474
      1944.4474
  -7973193.22749  -6204648.45745  22491994.0224   22491990.2614
        42.2014
  14652793.35248  11408242.70745  22819632.4134   22819628.9444
     -3331.5234
  -7318825.97348  -5694681.39845  22809097.3194   22809095.4604
      1039.2434
  -9829705.14549  -7655555.32846  22047407.8904   22047405.2884
       642.5844
  18512886.85248  14405865.07043  24571159.4134   24571155.5694
     -3431.3394
 04  9  1 16 12  0.0030000  0  6G20G11G14G 1G25G22
  -1253439.11347   -969423.06242  24812100.1404   24812096.8704
      1944.2164
  -7973696.23849  -6205040.42645  22491898.8354   22491894.8124
        33.5344
  14702806.46548  11447213.95344  22829149.7884   22829146.2144
     -3334.2084
  -7334341.89848  -5706771.71945  22806144.3584   22806142.8314
      1034.3954
  -9839222.15649  -7662971.17246  22045596.5384   22045593.9404
       634.4674
  18564393.68447  14446000.23443  24580960.4374   24580957.0654
     -3433.7894
 04  9  1 16 12 15.0030000  0  6G20G11G14G 1G25G22
  -1282600.47747   -992146.21542  24806551.4134   24806547.3544
      1944.0914
  -7974070.80149  -6205332.30545  22491826.9914   22491823.8664
        24.9714
  14752857.97348  11486215.10945  22838674.2574   22838670.9524
     -3336.7674
  -7349786.78948  -5718806.68045  22803205.2574   22803203.5264
      1029.6594
  -9848618.91849  -7670293.31246  22043808.3354   22043806.0194
       626.4514
  18615935.50848  14486162.64843  24590768.5224   24590765.4294
     -3436.1224
 04  9  1 16 12 30.0030000  0  6G20G11G14G 1G25G22
  -1311759.75447  -1014867.74642  24801002.2884   24800998.1124
      1943.9524
  -7974316.61349  -6205523.84445  22491780.5154   22491776.9874
        16.3884
  14802947.67648  11525246.04344  22848205.7024   22848202.6594
     -3339.3144
  -7365160.47348  -5730786.16045  22800279.8194   22800278.2574
      1024.9124
  -9857895.14549  -7677521.52746  22042043.2414   22042040.5974
       618.4154
  18667512.57047  14526352.53543  24600583.4374   24600579.8044
     -3438.4714
 04  9  1 16 12 45.0030000  0  6G20G11G14G 1G25G22
  -1340916.71546  -1037587.44542  24795453.8664   24795449.5624
      1943.7974
  -7974433.47349  -6205614.91845  22491758.3124   22491754.4684
         7.7914
  14853075.49248  11564306.66444  22857744.7724   22857741.5034
     -3341.8544
  -7380462.91048  -5742710.11745  22797367.8124   22797365.9954
      1020.1634
  -9867050.65249  -7684655.66846  22040300.7574   22040298.5034
       610.3674
  18719124.80947  14566569.83243  24610405.1944   24610401.9644
     -3440.8164
 04  9  1 16 13  0.0030000  0  6G20G11G14G 1G25G22
  -1370070.97746  -1060305.03542  24789905.6014   24789902.0654
      1943.6174
  -7974421.02349  -6205605.22745  22491760.5464   22491757.0074
        -0.8304
  14903241.51248  11603397.05945  22867291.4684   22867287.9724
     -3344.4014
  -7395693.75448  -5754578.29345  22794469.5154   22794467.8274
      1015.3904
  -9876084.89848  -7691695.33646  22038581.8904   22038579.1364
       602.2834
  18770772.55547  14606814.78143  24620233.4604   24620230.0384
     -3443.1834
 04  9  1 16 13 15.0030000  0  6G20G11G14G 1G25G22
  -1399224.46146  -1083022.00842  24784357.9374   24784354.8314
      1943.5664
  -7974281.07448  -6205496.18045  22491787.3664   22491783.8864
        -9.3304
  14953443.52748  11642515.50444  22876844.4294   22876841.2414
     -3346.8014
  -7410855.03548  -5766392.27045  22791584.2024   22791582.2804
      1010.7524
  -9884999.77349  -7698641.97746  22036885.7104   22036882.8194
       594.3254
  18822453.77347  14647085.82443  24630068.2414   24630064.6084
     -3445.4154
 04  9  1 16 13 30.0030000  0  6G20G11G14G 1G25G22
  -1428377.09447  -1105738.32442  24778810.6714   24778807.2374
      1943.5094
  -7974013.62149  -6205287.78545  22491838.2414   22491834.6634
       -17.8304
  15003681.21148  11681661.71944  22886404.3514   22886401.2264
     -3349.1794
  -7425946.80948  -5778152.07045  22788712.7334   22788710.6284
      1006.1184
  -9893795.03149  -7705495.41046  22035211.5934   22035209.0654
       586.3514
  18874168.28147  14687382.81343  24639908.8434   24639905.5734
     -3447.6344
 04  9  1 16 13 45.0030000  0  6G20G11G14G 1G25G22
  -1457526.86346  -1128452.43742  24773263.3664   24773260.4834
      1943.3184
  -7973616.70749  -6204978.50845  22491913.7964   22491909.9764
       -26.4614
  15053956.30148  11720837.09844  22895971.1874   22895968.0304
     -3351.6734
  -7440967.11348  -5789856.19545  22785854.1634   22785852.0584
      1001.3544
  -9902468.70749  -7712254.10246  22033561.2884   22033558.6674
       578.2454
  18925918.07047  14727707.27343  24649756.0854   24649752.8704
     -3449.9864
 04  9  1 16 14  0.0030000  0  6G20G11G14G 1G25G22
  -1486676.79746  -1151166.65242  24767716.3354   24767713.1834
      1943.3294
  -7973093.15649  -6204570.55145  22492013.2494   22492009.3544
       -34.9034
  15104265.48048  11760039.05945  22905544.7574   22905541.4134
     -3353.9454
  -7455919.04748  -5801507.03945  22783008.9134   22783007.1474
       996.7964
  -9911023.66849  -7718920.29346  22031933.1014   22031930.8194
       570.3314
  18977700.06346  14768056.82843  24659610.6474   24659606.9254
     -3452.1334
 04  9  1 16 14 15.0030000  0  6G20G11G14G 1G25G22
  -1515824.19146  -1173878.91842  24762169.7334   24762165.9484
      1943.1604
  -7972440.28549  -6204061.83245  22492137.7724   22492133.9684
       -43.5254
  15154611.03549  11799269.35544  22915125.1404   22915121.8864
     -3356.3704
  -7470800.08648  -5813102.64845  22780177.2184   22780175.3194
       992.0694
  -9919457.23449  -7725491.88746  22030328.2264   22030325.6284
       562.2384
  19029516.71146  14808433.41842  24669470.2104   24669467.2884
     -3454.4434
 04  9  1 16 14 30.0030000  0  6G20G11G14G 1G25G22
  -1544968.60246  -1196588.84042  24756623.7024   24756620.3234
      1942.9614
  -7971657.69149  -6203452.02345  22492286.4764   22492282.7024
       -52.1734
  15204993.23849  11838528.20744  22924713.0624   22924709.4954
     -3358.8144
  -7485609.86748  -5824642.71944  22777358.9604   22777356.8784
       987.3194
  -9927769.00849  -7731968.58246  22028746.4134   22028743.8474
       554.1184
  19081368.40647  14848837.29342  24679337.6164   24679334.6364
     -3456.7804
 04  9  1 16 14 45.0030000  0  6G20G11G14G 1G25G22
  -1574110.16846  -1219296.55942  24751078.0304   24751074.6834
      1942.7714
  -7970745.39149  -6202741.15245  22492460.2574   22492456.4444
       -60.8204
  15255411.60549  11877815.24644  22934307.2804   22934303.9484
     -3361.2244
  -7500348.57048  -5836127.41045  22774554.4764   22774552.2294
       982.5804
  -9935958.93749  -7738350.33246  22027188.1084   22027185.6044
       545.9954
  19133254.84047  14889268.22342  24689211.4994   24689208.4564
     -3459.0964
 04  9  1 16 15  0.0030000  0  6G20G11G14G 1G25G22
  -1603250.74246  -1242003.49242  24745532.7654   24745529.8704
      1942.7054
  -7969705.41848  -6201930.78945  22492658.0934   22492654.3704
       -69.3324
  15305863.91449  11917128.71545  22943908.1634   22943904.6444
     -3363.4874
  -7515018.23448  -5847558.30145  22771762.5544   22771760.6404
       977.9784
  -9944028.91849  -7744638.61746  22025652.3904   22025649.6634
       537.9994
  19185174.02047  14929724.69942  24699091.0624   24699087.8084
     -3461.2794
 04  9  1 16 15 15.0030000  0  6G20G11G14G 1G25G22
  -1632389.03546  -1264708.63742  24739988.6084   24739985.3274
      1942.5534
  -7968536.45748  -6201019.92245  22492880.6404   22492876.6014
       -77.9314
  15356351.11349  11956469.38344  22953515.1714   22953511.6904
     -3365.8134
  -7529617.72348  -5858934.51245  22768984.7264   22768982.7454
       973.2994
  -9951977.62549  -7750832.40646  22024139.4994   22024137.1474
       529.9144
  19237127.03147  14970207.49642  24708977.7724   24708974.2104
     -3463.5344
 04  9  1 16 15 30.0030000  0  6G20G11G14G 1G25G22
  -1661524.50847  -1287411.59042  24734444.3584   24734441.7574
      1942.3654
  -7967237.96548  -6200008.11745  22493127.3744   22493123.6554
       -86.5664
  15406873.46949  11995837.44545  22963129.1944   22963125.7414
     -3368.1574
  -7544146.55548  -5870255.66045  22766219.8824   22766217.5974
       968.5894
  -9959804.46149  -7756931.23046  22022650.5934   22022648.2104
       521.7894
  19289114.34846  15010717.05142  24718870.6474   24718867.3274
     -3465.8214
 04  9  1 16 15 45.0030000  0  6G20G11G14G 1G25G22
  -1690658.35246  -1310113.28942  24728900.3044   24728897.3044
      1942.2564
  -7965811.00848  -6198896.21145  22493399.2494   22493395.5154
       -95.1304
  15457429.54749  12035231.78144  22972749.7184   22972746.6834
     -3370.4054
  -7558605.93448  -5881522.69545  22763468.2574   22763466.2764
       963.9594
  -9967510.42649  -7762935.86346  22021184.3194   22021181.5544
       513.7314
  19341134.66846  15051252.34442  24728769.2964   24728765.9254
     -3468.0214
 04  9  1 16 16  0.0030000  0  6G20G11G14G 1G25G22
  -1719789.64547  -1332812.99242  24723356.9374   24723353.9764
      1942.0864
  -7964254.64549  -6197683.45745  22493695.4054   22493691.5034
      -103.7584
  15508019.94949  12074652.85944  22982376.7334   22982373.7494
     -3372.6934
  -7572995.02048  -5892734.95345  22760729.7804   22760727.9374
       959.2724
  -9975094.66449  -7768845.64546  22019740.7964   22019737.9684
       505.6164
  19393188.80547  15091813.95742  24738675.9214   24738672.3434
     -3470.2764
 04  9  1 16 16 15.0030000  0  6G20G11G14G 1G25G22
  -1748918.64147  -1355510.90242  24717813.5854   24717811.0894
      1941.9334
  -7962569.18049  -6196370.11745  22494016.1554   22494012.5154
      -112.3644
  15558644.11349  12114100.25044  22992010.3514   22992007.1874
     -3374.9444
  -7587314.18748  -5903892.73045  22758005.2724   22758003.1364
       954.6114
  -9982557.28549  -7774660.66046  22018320.9214   22018318.1794
       497.5084
  19445276.46947  15132401.70742  24748587.9994   24748583.8274
     -3472.5114
 04  9  1 16 16 30.0030000  0  6G20G11G14G 1G25G22
  -1778045.19947  -1378206.91042  24712270.9214   24712268.1204
      1941.7714
  -7960754.42649  -6194956.03145  22494361.4054   22494358.1084
      -120.9844
  15609301.94948  12153573.87144  23001650.2024   23001646.9404
     -3377.1894
  -7601563.37948  -5914995.98845  22755293.6244   22755291.7454
       949.9464
  -9989898.14849  -7780380.80546  22016923.6324   22016921.1404
       489.3914
  19497397.55947  15173015.51242  24758505.8514   24758502.5814
     -3474.7394
 04  9  1 16 16 45.0030000  0  6G20G11G14G 1G25G22
  -1807169.91047  -1400901.48842  24706728.6554   24706725.8314
      1941.6474
  -7958811.08649  -6193441.75445  22494731.2964   22494727.7764
      -129.5564
  15659992.46149  12193072.96144  23011296.2724   23011292.9014
     -3379.3674
  -7615743.39549  -5926045.33645  22752595.3124   22752593.0424
       945.3344
  -9997117.88349  -7786006.55546  22015549.8974   22015547.2264
       481.3164
  19549551.27747  15213654.72342  24768430.3194   24768426.6834
     -3476.9154
 04  9  1 16 17  0.0030000  0  6G20G11G14G 1G25G22
  -1836292.41847  -1423594.34443  24701186.6404   24701184.0504
      1941.5014
  -7956738.81249  -6191827.00045  22495125.6634   22495121.6164
      -138.1524
  15710715.64849  12232597.50444  23020948.6944   23020945.4214
     -3381.5464
  -7629854.08249  -5937040.66445  22749910.3274   22749907.7764
       940.7134
 -10004216.11349  -7791537.63746  22014199.1244   22014196.1754
       473.2154
  19601737.85247  15254319.53542  24778361.2494   24778357.6634
     -3479.1054
 04  9  1 16 17 15.0040000  0  6G20G11G14G 1G25G22
  -1865412.60947  -1446285.38343  24695645.7234   24695642.6604
      1941.3464
  -7954535.56249  -6190110.19545  22495544.8714   22495541.1094
      -146.8834
  15761476.55149  12272151.43844  23030608.2304   23030604.7814
     -3384.0604
  -7643894.35949  -5947981.13345  22747238.3404   22747236.5474
       936.0184
 -10011191.09449  -7796972.66846  22012871.8944   22012869.3014
       464.9994
  19653962.66847  15295014.16042  24788299.3714   24788295.6804
     -3481.6544
 04  9  1 16 17 30.0040000  0  6G20G11G14G 1G25G22
  -1894528.02347  -1468972.72742  24690104.9024   24690101.7854
      1941.0284
  -7952202.78549  -6188292.45345  22495989.0594   22495985.0394
      -155.5184
  15812266.66449  12311728.14144  23040272.9024   23040269.5164
     -3386.0084
  -7657863.90249  -5958866.48445  22744579.9964   22744578.1644
       931.3034
 -10018043.43749  -7802312.15246  22011568.0664   22011565.1844
       456.8234
  19706217.25447  15335731.98842  24798243.1524   24798239.6684
     -3483.6394
 04  9  1 16 17 45.0040000  0  6G20G11G14G 1G25G22
  -1923640.62147  -1491657.84042  24684564.9494   24684562.1954
      1940.8404
  -7949740.49649  -6186373.79345  22496457.4964   22496453.7114
      -164.1534
  15863088.97749  12351329.93044  23049944.3094   23049940.8244
     -3388.1544
  -7671763.88349  -5969697.61745  22741935.1844   22741932.9264
       926.6654
 -10024773.70349  -7807556.50046  22010287.1524   22010284.7304
       448.6844
  19758504.71548  15376475.42642  24808192.9494   24808189.5004
     -3485.8314
 04  9  1 16 18  0.0040000  0  6G20G11G14G 1G25G22
  -1952751.10947  -1514341.31642  24679025.5744   24679022.2734
      1940.6994
  -7947149.29349  -6184354.68445  22496950.5044   22496946.9734
      -172.7474
  15913942.72348  12390956.21544  23059621.4734   23059617.8554
     -3390.2504
  -7685594.90249  -5980475.02345  22739302.8874   22739301.2274
       922.0684
 -10031382.39149  -7812706.10946  22009029.4024   22009027.2384
       440.5794
  19810824.52347  15417244.04742  24818149.0514   24818145.3794
     -3487.9874
 04  9  1 16 18 15.0040000  0  6G20G11G14G 1G25G22
  -1981857.96947  -1537021.97342  24673486.9414   24673483.3914
      1940.4574
  -7944427.63349  -6182233.91045  22497468.1994   22497464.7074
      -181.4444
  15964829.05549  12430607.88744  23069304.9414   23069301.5124
     -3392.4224
  -7699355.57049  -5991197.60245  22736684.3874   22736682.1444
       917.3784
 -10037867.86749  -7817759.72346  22007795.3014   22007792.6214
       432.3654
  19863178.07848  15458038.98442  24828111.6684   24828107.9144
     -3490.2374
 04  9  1 16 18 30.0040000  0  6G20G11G14G 1G25G22
  -2010962.16846  -1559700.58242  24667947.8554   24667944.9774
      1940.2804
  -7941576.67649  -6180012.39545  22498010.9104   22498007.3634
      -190.0644
  16015746.60249  12470283.88344  23078994.2774   23078990.6804
     -3394.5034
  -7713046.99249  -6001866.22745  22734079.0434   22734077.2424
       912.7614
 -10044231.21549  -7822718.16046  22006584.4964   22006582.0044
       424.2234
  19915564.22748  15498859.30542  24838080.6914   24838076.7034
     -3492.4104
 04  9  1 16 18 45.0040000  0  6G20G11G14G 1G25G22
  -2040061.78147  -1582375.57842  24662410.6604   24662407.4694
      1939.9744
  -7938594.50849  -6177688.63745  22498578.5194   22498575.0274
      -198.8114
  16066696.85249  12509985.37144  23088689.6604   23088686.4614
     -3396.6834
  -7726667.53549  -6012479.61745  22731487.0044   22731485.2774
       908.0364
 -10050470.63749  -7827580.03546  22005397.1914   22005394.2974
       415.9614
  19967984.52048  15539706.24242  24848056.3634   24848052.1764
     -3494.6864
 04  9  1 16 19  0.0040000  0  6G20G11G14G 1G25G22
  -2069157.41847  -1605047.50442  24656873.7384   24656871.0164
      1939.7094
  -7935481.64149  -6175263.03546  22499170.7234   22499167.3244
      -207.5244
  16117679.11749  12549711.79744  23098391.3794   23098388.0744
     -3398.8184
  -7740217.71549  -6023038.19545  22728908.5434   22728906.7304
       903.3454
 -10056586.35949  -7832345.52346  22004233.7854   22004230.5124
       407.7154
  20020438.43048  15580579.37542  24858037.6684   24858033.6604
     -3496.9274
 04  9  1 16 19 15.0040000  0  6G20G11G14G 1G25G22
  -2098249.13747  -1627716.36342  24651337.9184   24651334.9694
      1939.4484
  -7932238.24649  -6172735.72346  22499788.3554   22499784.5784
      -216.2264
  16168692.87149  12589462.75444  23108098.7854   23108095.6294
     -3400.9174
  -7753697.78949  -6033542.13745  22726343.3944   22726341.6644
       898.6724
 -10062578.64549  -7837014.82846  22003093.0744   22003090.2074
       399.4864
  20072925.64848  15621478.45342  24868025.9024   24868021.6764
     -3499.1484
 04  9  1 16 19 30.0040000  0  6G20G11G14G 1G25G22
  -2127337.14847  -1650382.33642  24645802.5744   24645799.4304
      1939.2014
  -7928864.37949  -6170106.73845  22500430.0514   22500426.8484
      -224.9244
  16219737.70349  12629237.94144  23117812.6844   23117809.1414
     -3402.9894
  -7767108.07049  -6043991.69545  22723791.2694   22723789.5744
       894.0194
 -10068447.67649  -7841588.08646  22001976.3794   22001973.2114
       391.2694
  20125445.98048  15662403.35242  24878020.5664   24878016.1024
     -3501.3554
 04  9  1 16 19 45.0040000  0  6G20G11G14G 1G25G22
  -2156420.19147  -1673044.43442  24640267.9804   24640265.8094
      1938.8704
  -7925359.06649  -6167375.34045  22501096.9804   22501093.4374
      -233.6874
  16270814.57048  12669038.07844  23127532.1844   23127528.6874
     -3405.1244
  -7780447.40649  -6054385.97345  22721252.9184   22721251.5274
       889.2894
 -10074192.02749  -7846064.19546  22000883.1444   22000880.3554
       382.9574
  20178000.38348  15703354.78942  24888020.5664   24888017.0784
     -3503.6274
 04  9  1 16 20  0.0040000  0  6G20G11G14G 1G25G22
  -2185499.21147  -1695703.41042  24634734.8404   24634731.6214
      1938.6014
  -7921723.17649  -6164542.18746  22501789.1764   22501785.6804
      -242.3934
  16321922.05548  12708862.08244  23137257.2694   23137254.1334
     -3407.1664
  -7793716.98049  -6064725.88745  22718728.0904   22718726.0554
       884.6384
 -10079812.85949  -7850444.04746  21999813.5354   21999810.5314
       374.7224
  20230587.66048  15744331.84442  24898027.9104   24898023.4774
     -3505.8184
 04  9  1 16 20 15.0040000  0  6G20G11G14G 1G25G22
  -2214574.68047  -1718359.60242  24629201.4184   24629198.9534
      1938.3654
  -7917957.21149  -6161607.67246  22502505.6684   22502502.1994
      -251.0644
  16373059.48849  12748709.41844  23146988.5904   23146985.3204
     -3409.1624
  -7806917.25449  -6075011.79745  22716215.9494   22716214.1334
       880.0184
 -10085310.46949  -7854727.89546  21998767.3164   21998764.2694
       366.5074
  20283207.50848  15785334.28542  24908041.6294   24908037.4844
     -3507.9904
 04  9  1 16 20 30.0040000  0  6G20G11G14G 1G25G22
  -2243646.24647  -1741012.76642  24623668.9654   24623666.6444
      1938.1044
  -7914060.93749  -6158571.62545  22503247.4494   22503243.5514
      -259.7524
  16424226.85949  12788580.07444  23156725.4884   23156722.0904
     -3411.1584
  -7820048.10949  -6085243.62545  22713717.2304   22713715.4734
       875.3904
 -10090684.61349  -7858915.52346  21997744.7544   21997741.7854
       358.2764
  20335859.86748  15826362.05542  24918060.0984   24918057.1334
     -3510.1574
 04  9  1 16 20 45.0040000  0  6G20G11G14G 1G25G22
  -2272712.34047  -1763661.65242  24618138.2384   24618136.0314
      1937.7404
  -7910032.74649  -6155432.77746  22504013.5514   22504010.2894
      -268.5464
  16475425.47349  12828475.08244  23166468.1604   23166464.8014
     -3413.2414
  -7833108.00849  -6095420.16445  22711232.2694   22711230.2194
       870.6604
 -10095933.59049  -7863005.62546  21996745.8944   21996743.1914
       349.9324
  20388546.25847  15867416.34442  24928085.8944   24928082.8944
     -3512.4264
 04  9  1 16 21  0.0040000  0  6G20G11G14G 1G25G22
  -2301772.60547  -1786306.01242  24612608.9024   24612606.0354
      1937.3514
  -7905872.16049  -6152190.77745  22504805.1444   22504801.5474
      -277.3724
  16526655.38749  12868394.48844  23176217.1134   23176213.6374
     -3415.3284
  -7846096.75849  -6105541.26245  22708760.3714   22708758.1174
       865.9174
 -10101056.95349  -7866997.84446  21995770.9654   21995767.8944
       341.5584
  20441266.87947  15908497.31342  24938119.0744   24938115.2074
     -3514.7084
 04  9  1 16 21 15.0040000  0  6G20G11G14G 1G25G22
  -2330828.25847  -1808946.77342  24607079.6604   24607077.1484
      1937.0434
  -7901580.63749  -6148846.73845  22505621.9884   22505618.2384
      -286.1024
  16577914.94548  12908336.98444  23185971.5124   23185968.1724
     -3417.3044
  -7859015.71149  -6115607.96545  22706301.9344   22706299.9844
       861.2644
 -10106056.05549  -7870893.24246  21994819.8484   21994816.6134
       333.2734
  20494020.38747  15949603.87142  24948157.0824   24948154.3944
     -3516.9014
 04  9  1 16 21 30.0040000  0  6G20G11G14G 1G25G22
  -2359877.27748  -1831582.36743  24601552.0354   24601549.3634
      1936.6014
  -7897156.19949  -6145399.13745  22506463.8554   22506460.0824
      -294.9624
  16629205.97349  12948304.00844  23195731.6374   23195728.4454
     -3419.4024
  -7871863.00849  -6125618.83645  22703857.4344   22703855.2424
       856.4864
 -10110928.92649  -7874690.27746  21993892.3874   21993889.7074
       324.8584
  20546808.53947  15990737.45342  24958202.5194   24958199.5164
     -3519.2104
 04  9  1 16 21 45.0040000  0  6G20G11G14G 1G25G22
  -2388920.35548  -1854213.33243  24596025.0124   24596022.0784
      1936.2054
  -7892599.43049  -6141848.41445  22507331.3944   22507327.4104
      -303.7854
  16680527.50449  12988294.80144  23205497.9574   23205495.0044
     -3421.4354
  -7884639.33249  -6135574.41045  22701425.8324   22701424.2624
       851.7554
 -10115676.22349  -7878389.45346  21992989.2384   21992986.3404
       316.4864
  20599630.57847  16031897.44942  24968254.1604   24968251.4534
     -3521.4694
 04  9  1 16 22  0.0040000  0  6G20G11G14G 1G25G22
  -2417958.02048  -1876840.07443  24590499.0744   24590496.6214
      1935.8444
  -7887910.96149  -6138195.06645  22508223.3404   22508219.6524
      -312.5654
  16731878.55948  13028308.59844  23215269.3324   23215266.5354
     -3423.4044
  -7897345.44549  -6145475.27345  22699007.5044   22699006.2974
       847.0744
 -10120298.44949  -7881991.18746  21992109.3794   21992106.6414
       308.1484
  20652485.76247  16073083.24642  24978312.1294   24978309.0594
     -3523.6794
 04  9  1 16 22 15.0040000  0  6G20G11G14G 1G25G22
  -2446989.09048  -1899461.68043  24584975.0354   24584972.1994
      1935.4054
  -7883089.68749  -6134438.23845  22509140.6604   22509137.2344
      -321.4184
  16783260.05949  13068346.10944  23225047.2154   23225044.0904
     -3425.4334
  -7909980.30549  -6155320.59845  22696603.4654   22696602.0784
       842.3244
 -10124794.41449  -7885494.52046  21991253.6374   21991250.9774
       299.7314
  20705375.22747  16114295.76642  24988376.8874   24988373.9454
     -3525.9644
 04  9  1 16 22 30.0040000  0  6G20G11G14G 1G25G22
  -2476015.00448  -1922079.27043  24579451.7384   24579448.5084
      1935.0614
  -7878136.98449  -6130578.99245  22510082.7854   22510079.4924
      -330.1804
  16834670.26249  13108405.99244  23234830.5354   23234827.0784
     -3427.3474
  -7922545.48049  -6165111.64145  22694212.6054   22694210.8284
       837.6784
 -10129165.50449  -7888900.56246  21990422.0904   21990419.1134
       291.4064
  20758297.30547  16155533.68842  24998447.5744   24998444.5234
     -3528.1394
 04  9  1 16 22 45.0040000  0  6G20G11G14G 1G25G22
  -2505034.86348  -1944692.13743  24573929.5904   24573925.9774
      1934.6574
  -7873052.06649  -6126616.72745  22511050.8324   22511047.2464
      -338.9954
  16886109.68448  13148488.64144  23244618.6054   23244615.8554
     -3429.2954
  -7935040.18749  -6174847.76645  22691834.7154   22691833.1684
       832.9804
 -10133410.97349  -7892208.71146  21989614.0664   21989611.3554
       283.0314
  20811252.76647  16196797.63342  25008525.2304   25008521.7304
     -3530.3644
 04  9  1 16 23  0.0040000  0  6G20G11G14G 1G25G22
  -2534048.62547  -1967300.25043  24568408.3404   24568405.3364
      1934.2514
  -7867835.03549  -6122551.51245  22512043.7234   22512040.0904
      -347.8024
  16937578.03548  13188593.84444  23254413.1684   23254409.6334
     -3431.2234
  -7947464.59449  -6184529.10545  22689470.4884   22689468.5314
       828.2944
 -10137530.82449  -7895418.97346  21988830.2854   21988827.1414
       274.6574
  20864241.47347  16238087.48442  25018608.7694   25018605.0704
     -3532.5804
 04  9  1 16 23 15.0040000  0  6G20G11G14G 1G25G22
  -2563055.71148  -1989903.16442  24562888.2544   24562885.4024
      1933.8064
  -7862485.35549  -6118382.94145  22513061.7384   22513058.1254
      -356.6454
  16989075.69548  13228721.87944  23264212.8874   23264209.5514
     -3433.1774
  -7959818.20349  -6194155.28545  22687119.7304   22687117.9224
       823.5744
 -10141524.42249  -7898530.85946  21988070.2934   21988067.1254
       266.2404
  20917263.86347  16279403.58242  25028698.0664   25028694.7854
     -3534.8264
 04  9  1 16 23 30.0040000  0  6G20G11G14G 1G25G22
  -2592055.35547  -2012500.27742  24557369.3404   24557366.7154
      1933.3104
  -7857002.25849  -6114110.40645  22514105.0354   22514101.8014
      -365.5404
  17040603.10548  13268873.09844  23274017.9734   23274014.7464
     -3435.1614
  -7972100.34449  -6203725.78145  22684782.2384   22684780.5824
       818.8094
 -10145390.96149  -7901543.73446  21987334.1844   21987331.2854
       257.7694
  20970320.60247  16320746.44542  25038794.8484   25038791.9104
     -3537.1164
 04  9  1 16 23 45.0040000  0  6G20G11G14G 1G25G22
  -2621048.16847  -2035092.05542  24551851.9884   24551849.4844
      1932.8544
  -7851386.41449  -6109734.42645  22515173.8014   22515170.0124
      -374.3904
  17092159.24248  13309046.69544  23283828.9574   23283825.3054
     -3437.0764
  -7984311.83249  -6213241.21145  22682458.8324   22682457.0394
       814.0994
 -10149131.09449  -7904458.11346  21986622.5354   21986619.6684
       249.3424
  21023410.93847  16362115.47742  25048897.2544   25048894.1374
     -3539.3564
 04  9  1 16 24  0.0040000  0  6G20G11G14G 1G25G22
  -2650034.68448  -2057678.94543  24546336.5744   24546333.3244
      1932.4344
  -7845638.25449  -6105255.34445  22516267.7464   22516263.4454
      -383.2114
  17143743.30548  13349242.04344  23293645.1914   23293641.5434
     -3438.9374
  -7996453.23449  -6222702.03545  22680148.1764   22680146.6874
       809.4274
 -10152745.27349  -7907274.34846  21985934.9654   21985932.1954
       240.9454
  21076534.13347  16403510.14542  25059005.8094   25059003.0664
     -3541.5464
 04  9  1 16 24 15.0040000  0  6G20G11G14G 1G25G22
  -2679015.40247  -2080261.30542  24540822.1054   24540819.2664
      1932.0484
  -7839758.37949  -6100673.63345  22517386.6914   22517382.8834
      -391.9924
  17195354.58648  13389458.61744  23303466.2464   23303462.8554
     -3440.7524
  -8008525.26249  -6232108.78945  22677851.1524   22677849.3284
       804.8024
 -10156234.00849  -7909992.83646  21985270.8094   21985268.0044
       232.5824
  21129689.45747  16444929.80542  25069121.5194   25069119.0824
     -3543.6884
 04  9  1 16 24 30.0040000  0  6G20G11G14G 1G25G22
  -2707990.56647  -2102839.35242  24535308.3164   24535305.5084
      1931.6784
  -7833747.16049  -6095989.57045  22518530.2774   22518526.4734
      -400.7484
  17246992.43848  13429695.89144  23313292.6294   23313289.0354
     -3442.5234
  -8020528.32849  -6241461.82445  22675566.9344   22675565.2854
       800.2044
 -10159597.66049  -7912613.85546  21984630.8794   21984627.8714
       224.2434
  21182876.51647  16486374.22342  25079242.9654   25079239.6174
     -3545.8044
 04  9  1 16 24 45.0040000  0  6G20G11G14G 1G25G22
  -2736959.27747  -2125412.34842  24529795.0434   24529792.7034
      1931.2474
  -7827603.93449  -6091202.64845  22519699.3634   22519695.7934
      -409.5484
  17298657.22347  13469954.14144  23323124.4024   23323120.8124
     -3444.3194
  -8032461.77749  -6250760.60545  22673295.9414   22673294.2774
       795.5634
 -10162835.31249  -7915136.69146  21984015.0044   21984011.8834
       215.8434
  21236096.03947  16527843.90642  25089370.1374   25089367.3944
     -3547.9684
 04  9  1 16 25  0.0040000  0  6G20G11G14G 1G25G22
  -2765919.84847  -2147978.99642  24524284.3874   24524281.6804
      1930.7054
  -7821326.92249  -6086311.48045  22520893.7934   22520890.4104
      -418.4674
  17350350.48448  13510234.59444  23332960.9024   23332957.5434
     -3446.2174
  -8044323.98049  -6260003.86745  22671038.7304   22671036.8404
       790.8144
 -10165945.35549  -7917560.09046  21983422.8094   21983420.0984
       207.3364
  21289349.60547  16569340.16042  25099504.4264   25099501.1764
     -3550.2384
 04  9  1 16 25 15.0040000  0  6G20G11G14G 1G25G22
  -2794874.38347  -2170540.96942  24518774.0124   24518771.4534
      1930.3024
  -7814918.40649  -6081317.83645  22522113.3014   22522109.7934
      -427.2344
  17402069.88748  13550535.41844  23342802.8944   23342799.3244
     -3447.9604
  -8056117.14849  -6269193.34045  22668794.7384   22668792.9654
       786.2114
 -10168929.93749  -7919885.73046  21982854.9964   21982852.0194
       198.9724
  21342634.87147  16610861.10542  25109644.1764   25109641.1724
     -3552.3514
 04  9  1 16 25 30.0040000  0  6G20G11G14G 1G25G22
  -2823821.72747  -2193097.33642  24513265.7074   24513262.7114
      1929.8234
  -7808377.13749  -6076220.75045  22523358.0664   22523354.5234
      -436.0854
  17453816.24648  13590857.24244  23352649.7464   23352646.7114
     -3449.7574
  -8067840.26249  -6278328.21545  22666563.6764   22666561.9494
       781.5414
 -10171787.93449  -7922112.72746  21982311.2384   21982308.2734
       190.5334
  21395952.94147  16652407.59442  25119790.2464   25119787.5984
     -3554.5384
 04  9  1 16 25 45.0040000  0  6G20G11G14G 1G25G22
  -2852761.60247  -2215647.88742  24507758.2694   24507755.3834
      1929.3254
  -7801703.02749  -6071020.14845  22524628.0904   22524624.2504
      -444.9414
  17505589.55948  13631200.07444  23362502.1294   23362498.7894
     -3451.5544
  -8079493.18049  -6287408.40645  22664346.4024   22664344.1844
       776.8614
 -10174518.96149  -7924240.79346  21981791.4414   21981788.5514
       182.0684
  21449303.93447  16693979.73442  25129942.2694   25129939.3054
     -3556.7334
 04  9  1 16 26  0.0040000  0  6G20G11G14G 1G25G22
  -2881693.25047  -2238192.00842  24502253.3324   24502250.0554
      1928.7774
  -7794895.29349  -6065715.43445  22525923.5194   22525919.9654
      -453.8494
  17557390.16048  13671564.16044  23372359.3094   23372356.4804
     -3453.3734
  -8091075.30149  -6296433.42245  22662142.3944   22662140.4414
       772.1414
 -10177122.43049  -7926269.46546  21981295.9264   21981293.0234
       173.5654
  21502688.43847  16735577.99242  25140101.9414   25140098.5944
     -3558.9674
 04  9  1 16 26 15.0040000  0  6G20G11G14G 1G25G22
  -2910617.01247  -2260730.00042  24496749.4024   24496745.7774
      1928.2514
  -7787954.40649  -6060306.95345  22527244.5354   22527240.4844
      -462.7264
  17609217.46148  13711949.05144  23382221.7774   23382218.9734
     -3455.1534
  -8102587.12949  -6305403.66845  22659951.8404   22659949.8094
       767.4554
 -10179598.52049  -7928198.87546  21980824.6444   21980821.9924
       165.0734
  21556105.92647  16777201.94942  25150266.9024   25150263.4694
     -3561.1664
 04  9  1 16 26 30.0040000  0  6G20G11G14G 1G25G22
  -2939532.80947  -2283261.78542  24491246.7384   24491243.4414
      1927.7204
  -7780880.28149  -6054794.65245  22528590.8874   22528586.8204
      -471.6084
  17661071.17248  13752354.52044  23392089.2544   23392086.2694
     -3456.9144
  -8114028.68749  -6314319.16445  22657774.5664   22657772.3364
       762.7714
 -10181947.22749  -7930029.03146  21980378.0354   21980374.9374
       156.5804
  21609556.34047  16818851.58642  25160437.7934   25160434.7934
     -3563.3614
 04  9  1 16 26 45.0040000  0  6G20G11G14G 1G25G22
  -2968439.94948  -2305786.82842  24485745.9964   24485741.9064
      1927.1434
  -7773672.37149  -6049178.10945  22529962.1844   22529958.5664
      -480.5274
  17712951.71948  13792780.90644  23401961.9654   23401958.8674
     -3458.7034
  -8125399.49649  -6323179.52346  22655610.5664   22655608.3754
       758.0544
 -10184167.89549  -7931759.40646  21979955.3484   21979952.3014
       148.0454
  21663040.12148  16860527.18442  25170615.9884   25170612.5234
     -3565.5854
 04  9  1 16 27  0.0040000  0  6G20G11G14G 1G25G22
  -2997341.51248  -2328307.51242  24480246.1294   24480242.0044
      1926.7714
  -7766333.84849  -6043459.78545  22531358.5824   22531355.0274
      -489.2354
  17764855.64848  13833225.51644  23411838.7544   23411835.6644
     -3460.2624
  -8136702.75449  -6331987.23445  22653459.9264   22653457.3874
       753.5514
 -10186263.71149  -7933392.50446  21979556.2234   21979553.5394
       139.7214
  21716554.05947  16902226.30942  25180798.8404   25180795.5704
     -3567.5964
 04  9  1 16 27 15.0040000  0  6G20G11G14G 1G25G22
  -3026237.05547  -2350823.52742  24474747.6214   24474743.6214
      1926.3704
  -7758864.43449  -6037639.47745  22532780.1374   22532776.3364
      -497.9614
  17816783.12548  13873688.46944  23421720.3714   23421717.6724
     -3461.8324
  -8147938.19949  -6340742.12145  22651321.6604   22651319.3364
       749.0304
 -10188234.35249  -7934928.06246  21979181.2464   21979178.7694
       131.3764
  21770098.41047  16943949.14142  25190988.2154   25190984.6914
     -3569.6234
 04  9  1 16 27 30.0040000  0  6G20G11G14G 1G25G22
  -3055124.69947  -2373333.37142  24469250.3244   24469247.4454
      1925.8434
  -7751262.16849  -6031715.63745  22534226.5274   22534223.1174
      -506.8184
  17868735.74248  13914171.00844  23431606.9654   23431603.6764
     -3463.5084
  -8159104.10249  -6349442.81645  22649196.8404   22649194.4964
       744.3934
 -10190078.08649  -7936364.73046  21978830.5044   21978827.6374
       122.9164
  21823674.81347  16985696.92642  25201183.4654   25201180.3594
     -3571.7604
 04  9  1 16 27 45.0040000  0  6G20G11G14G 1G25G22
  -3084004.54347  -2395837.13742  24463754.9344   24463751.9654
      1925.3234
  -7743527.43049  -6025688.57845  22535698.4494   22535695.1804
      -515.6494
  17920713.01648  13954672.76644  23441497.8634   23441494.8674
     -3465.1524
  -8170200.74649  -6358089.53545  22647085.2384   22647083.1524
       739.7764
 -10191795.06649  -7937702.62546  21978503.7544   21978500.9694
       114.4654
  21877283.12147  17027469.57843  25211385.0984   25211381.0474
     -3573.8874
 04  9  1 16 28  0.0040000  0  6G20G11G14G 1G25G22
  -3112877.97747  -2418335.90642  24458260.4804   24458257.0274
      1924.8964
  -7735661.50849  -6019559.30145  22537195.5514   22537191.9304
      -524.3954
  17972713.24648  13995192.41444  23451392.7774   23451389.9734
     -3466.6824
  -8181229.66849  -6366683.49245  22644986.6134   22644984.0274
       735.2614
 -10193386.58649  -7938942.76246  21978200.8404   21978198.1414
       106.1014
  21930921.63347  17069265.77742  25221591.7624   25221588.9064
     -3575.9014
 04  9  1 16 28 15.0040000  0  6G20G11G14G 1G25G22
  -3141745.02748  -2440829.71143  24452767.1134   24452763.5314
      1924.4704
  -7727664.57849  -6013327.94145  22538717.1294   22538713.5434
      -533.1294
  18024736.19548  14035729.75444  23461292.6604   23461289.5944
     -3468.1974
  -8192190.98849  -6375224.76645  22642900.3794   22642898.5784
       730.7554
 -10194852.62949  -7940085.11746  21977921.9654   21977919.2894
        97.7364
  21984590.30147  17111085.46142  25231804.3714   25231801.1174
     -3577.9114
 04  9  1 16 28 30.0040000  0  6G20G11G14G 1G25G22
  -3170604.18748  -2463317.35942  24447275.4494   24447271.9964
      1923.9444
  -7719535.16449  -6006993.34045  22540264.4344   22540260.5554
      -541.9614
  18076782.94548  14076285.65244  23471196.6604   23471193.6294
     -3469.7834
  -8203083.35249  -6383712.31245  22640827.6684   22640825.8404
       726.1584
 -10196191.74249  -7941128.57846  21977667.0744   21977664.1994
        89.2744
  22038290.46147  17152929.68842  25242024.0744   25242020.6954
     -3580.0114
 04  9  1 16 28 45.0040000  0  6G20G11G14G 1G25G22
  -3199453.32848  -2485797.20342  24441785.6994   24441782.4654
      1923.2764
  -7711271.29349  -6000553.96545  22541836.6844   22541832.8324
      -550.9254
  18128855.25848  14116861.46544  23481105.7464   23481102.5274
     -3471.4874
  -8213904.91049  -6392144.68045  22638768.3244   22638766.5554
       721.4374
 -10197401.92649  -7942071.56246  21977436.9574   21977434.0004
        80.6794
  22092023.97747  17194799.92642  25252248.9264   25252245.7694
     -3582.2344
 04  9  1 16 29  0.0040000  0  6G20G11G14G 1G25G22
  -3228292.63348  -2508269.37542  24436298.1134   24436294.5044
      1922.6204
  -7702873.19549  -5994010.00445  22543435.1844   22543431.1254
      -559.8734
  18180952.68048  14157456.84044  23491019.4264   23491016.5394
     -3473.1614
  -8224655.96549  -6400522.11345  22636722.7304   22636720.6524
       716.7374
 -10198483.35549  -7942914.22746  21977230.9104   21977228.2664
        72.0954
  22145790.45347  17236695.81642  25262480.3404   25262477.2774
     -3584.4324
 04  9  1 16 29 15.0040000  0  6G20G11G14G 1G25G22
  -3257120.99248  -2530733.02743  24430812.0044   24430808.4494
      1921.8914
  -7694339.96549  -5987360.73845  22545059.0124   22545055.1094
      -568.8824
  18233075.95748  14198072.35944  23500938.2624   23500935.6134
     -3474.8854
  -8235335.52349  -6408843.83245  22634690.1524   22634688.5594
       711.9714
 -10199435.06249  -7943655.80946  21977049.5744   21977047.4494
        63.4474
  22199590.79746  17278618.12142  25272718.2464   25272714.6724
     -3586.6904
 04  9  1 16 29 30.0040000  0  6G20G11G14G 1G25G22
  -3285940.32448  -2553189.64143  24425327.2304   24425324.4304
      1921.2894
  -7685673.62949  -5980607.76646  22546707.9804   22546703.9924
      -577.7564
  18285222.93048  14238706.35244  23510861.5904   23510858.2974
     -3476.4654
  -8245945.64549  -6417111.44546  22632671.3244   22632669.6484
       707.3414
 -10200258.99649  -7944297.83246  21976893.1214   21976890.3594
        54.9294
  22253423.00847  17320565.25042  25282962.1294   25282959.1804
     -3588.8144
 04  9  1 16 29 45.0040000  0  6G20G11G14G 1G25G22
  -3314750.93748  -2575639.44543  24419845.2154   24419842.6954
      1920.7084
  -7676874.77349  -5973751.51645  22548382.3324   22548378.9264
      -586.5904
  18337393.08248  14279358.39844  23520789.1844   23520786.1414
     -3478.0104
  -8256486.71949  -6425325.25846  22630665.3014   22630663.4414
       702.7384
 -10200955.41049  -7944840.48446  21976760.4414   21976757.7584
        46.4284
  22307286.75846  17362536.96542  25293211.9104   25293208.8094
     -3590.9174
 04  9  1 16 30  0.0040000  0  6G20G11G14G 1G25G22
  -3343552.60548  -2598082.30143  24414364.2154   24414361.7664
      1920.1114
  -7667942.77049  -5966791.52045  22550082.0664   22550078.5744
      -595.4674
  18389586.22748  14320028.37144  23530721.2544   23530717.8204
     -3479.5434
  -8266958.72749  -6433485.25445  22628672.5984   22628670.8914
       698.1344
 -10201524.11349  -7945283.61746  21976652.4734   21976649.9144
        37.9144
  22361181.91847  17404533.14542  25303467.8484   25303464.8594
     -3593.0114
 04  9  1 16 30 15.0040000  0  6G20G11G14G 1G25G22
  -3372345.28148  -2620518.13743  24408885.4344   24408882.3834
      1919.5124
  -7658877.90649  -5959727.99646  22551806.8244   22551803.4104
      -604.3244
  18441801.99248  14360715.96143  23540657.6294   23540654.4574
     -3481.0514
  -8277361.84049  -6441591.55545  22626692.9494   22626691.2234
       693.5414
 -10201965.22349  -7945627.32846  21976568.1444   21976565.5004
        29.4074
  22415108.44946  17446553.78142  25313730.1054   25313726.2584
     -3595.1024
 04  9  1 16 30 30.0040000  0  6G20G11G14G 1G25G22
  -3401128.91447  -2642946.92643  24403407.9734   24403405.1374
      1918.9094
  -7649680.26249  -5952561.00845  22553557.2774   22553553.5784
      -613.1764
  18494040.25048  14401421.09444  23550598.3164   23550595.0164
     -3482.5514
  -8287696.24249  -6449644.32045  22624726.1764   22624724.2504
       688.9604
 -10202278.80549  -7945871.66446  21976508.4494   21976505.7074
        20.9054
  22469066.10946  17488598.64842  25323997.5744   25323994.7894
     -3597.1774
 04  9  1 16 30 45.0040000  0  6G20G11G14G 1G25G22
  -3429903.21147  -2665368.45743  24397932.7074   24397929.5234
      1918.2864
  -7640349.65649  -5945290.41846  22555333.0274   22555329.5394
      -622.0404
  18546300.98448  14442143.73044  23560543.5514   23560540.0164
     -3484.0494
  -8297961.73449  -6457643.40246  22622772.8554   22622771.4614
       684.3664
 -10202464.55549  -7946016.40246  21976473.1524   21976470.3554
        12.3834
  22523055.07447  17530667.91042  25334271.0664   25334268.9064
     -3599.2644
 04  9  1 16 31  0.0040000  0  6G20G11G14G 1G25G22
  -3458668.45747  -2687782.91843  24392458.6374   24392455.9694
      1917.6834
  -7630886.48849  -5937916.52745  22557133.6994   22557130.0904
      -630.8784
  18598583.49648  14482883.32844  23570492.1844   23570488.9614
     -3485.5014
  -8308158.84049  -6465589.18046  22620832.4344   22620830.8404
       679.8074
 -10202522.97349  -7946061.91046  21976461.8714   21976459.0194
         3.8954
  22577074.84446  17572761.18042  25344551.5824   25344548.4924
     -3601.3184
 04  9  1 16 31 15.0040000  0  6G20G11G14G 1G25G22
  -3487424.31247  -2710190.06243  24386986.5514   24386983.5514
      1917.0574
  -7621290.61349  -5930439.23045  22558959.7464   22558955.9344
      -639.7254
  18650887.68448  14523639.81644  23580445.6134   23580442.2504
     -3486.9464
  -8318287.41449  -6473481.56246  22618905.2304   22618903.3834
       675.2384
 -10202453.80149  -7946008.00846  21976475.3094   21976472.5194
        -4.6114
  22631125.54346  17614878.53942  25354836.8794   25354834.1644
     -3603.3804
 04  9  1 16 31 30.0040000  0  6G20G11G14G 1G25G22
  -3516169.92648  -2732589.23443  24381516.2624   24381513.3124
      1916.3744
  -7611561.19949  -5922857.87946  22560811.3244   22560807.4654
      -648.6284
  18703214.49248  14564413.94944  23590402.8164   23590399.6874
     -3488.4544
  -8328346.61349  -6481319.89145  22616990.6994   22616989.3244
       670.6134
 -10202256.12149  -7945853.96546  21976512.9574   21976510.0434
       -13.1794
  22685207.93446  17657020.61342  25365127.4654   25365125.7114
     -3605.4934
 04  9  1 16 31 45.0040000  0  6G20G11G14G 1G25G22
  -3544908.01647  -2754982.54743  24376047.8944   24376044.0784
      1915.8734
  -7601700.99249  -5915174.60945  22562687.4104   22562683.5554
      -657.3474
  18755560.50448  14605203.03144  23600363.9884   23600360.7664
     -3489.7344
  -8338339.38749  -6489106.45746  22615089.3714   22615087.5594
       666.1854
 -10201932.67249  -7945601.91046  21976574.6374   21976571.6294
       -21.5634
  22739319.12146  17699185.09842  25375425.7934   25375423.0164
     -3607.4124
 04  9  1 16 32  0.0040000  0  6G20G11G14G 1G25G22
  -3573638.32047  -2777369.78543  24370580.5044   24370577.4964
      1915.3544
  -7591709.93749  -5907389.37945  22564588.4884   22564584.8944
      -666.0704
  18807925.74648  14646007.09444  23610328.9734   23610325.1254
     -3491.0164
  -8348265.66049  -6496841.20346  22613200.7234   22613198.7624
       661.7524
 -10201483.37949  -7945251.81246  21976660.0904   21976657.2694
       -29.9534
  22793459.07047  17741372.02742  25385727.8794   25385724.8484
     -3609.3304
 04  9  1 16 32 15.0040000  0  6G20G11G14G 1G25G22
  -3602360.85247  -2799750.97743  24365114.6994   24365111.6684
      1914.8354
  -7581588.19549  -5899502.31245  22566514.6524   22566511.0514
      -674.7834
  18860310.05148  14686826.02344  23620297.1764   23620293.9224
     -3492.2874
  -8358125.56249  -6504524.23445  22611324.4734   22611322.0594
       657.3274
 -10200908.28149  -7944803.67646  21976769.5434   21976766.6764
       -38.3404
  22847627.73447  17783581.28942  25396035.5274   25396033.5594
     -3611.2444
 04  9  1 16 32 30.0040000  0  6G20G11G14G 1G25G22
  -3631076.37547  -2822126.69143  24359650.6604   24359647.3674
      1914.3684
  -7571336.54349  -5891514.02045  22568465.4964   22568461.8914
      -683.4434
  18912712.25448  14727658.89144  23630268.8164   23630265.6844
     -3493.4804
  -8367919.98849  -6512156.24645  22609460.1914   22609458.3324
       652.9624
 -10200208.11349  -7944258.07846  21976902.9184   21976900.1874
       -46.6784
  22901824.12146  17825812.16442  25406349.5434   25406346.3014
     -3613.0924
 04  9  1 16 32 45.0040000  0  6G20G11G14G 1G25G22
  -3659783.66047  -2844495.99643  24354187.4104   24354184.3914
      1913.8194
  -7560953.98049  -5883423.72345  22570441.2854   22570437.6444
      -692.1714
  18965133.19548  14768506.37144  23640244.3874   23640240.9184
     -3494.7294
  -8377647.99649  -6519736.49645  22607609.0594   22607606.9614
       648.5344
 -10199381.82849  -7943614.21546  21977060.1524   21977057.5744
       -55.0864
  22956049.18046  17868065.40242  25416667.2774   25416665.7154
     -3615.0044
 04  9  1 16 33  0.0040000  0  6G20G11G14G 1G25G22
  -3688481.36747  -2866857.83243  24348726.5124   24348723.3094
      1913.1804
  -7550439.34449  -5875230.50845  22572442.1054   22572438.7384
      -700.9764
  19017573.91048  14809369.25044  23650223.6294   23650220.3364
     -3496.0484
  -8387308.43749  -6527264.10946  22605770.9734   22605768.6684
       644.0294
 -10198428.20749  -7942871.12146  21977241.4184   21977238.4924
       -63.5754
  23010304.12147  17910341.90242  25426992.2544   25426989.3244
     -3616.9964
 04  9  1 16 33 15.0040000  0  6G20G11G14G 1G25G22
  -3717170.98047  -2889213.36743  24343266.5824   24343263.7584
      1912.6414
  -7539794.17649  -5866935.56646  22574467.8874   22574464.3014
      -709.6784
  19070032.59048  14850246.12543  23660205.9964   23660202.7234
     -3497.2454
  -8396902.94149  -6534740.33645  22603944.8244   22603942.8364
       639.6344
 -10197348.80149  -7942030.02746  21977446.6764   21977443.8364
       -71.9604
  23064587.23846  17952640.37142  25437322.4964   25437319.4224
     -3618.8744
 04  9  1 16 33 30.0040000  0  5G20G11G14G 1G25
  -3745851.04746  -2911561.45742  24337808.9024   24337805.6414
      1912.0044
  -7529017.10549  -5858537.86346  22576518.7854   22576515.3834
      -718.4714
  19122510.48848  14891137.98044  23670192.1844   23670189.3714
     -3498.5274
  -8406430.12549  -6542164.10245  22602132.2624   22602129.8484
       635.1464
 -10196142.20349  -7941089.80946  21977676.4804   21977673.7034
       -80.4404
 04  9  1 16 33 45.0040000  0  5G20G11G14G 1G25
  -3774521.22347  -2933901.82443  24332353.3164   24332350.3674
      1911.3454
  -7518108.00449  -5850037.27346  22578594.8014   22578591.1214
      -727.2734
  19175007.59848  14932044.79744  23680181.9574   23680179.1134
     -3499.8074
  -8415889.87149  -6549535.32845  22600332.0354   22600329.8324
       630.6504
 -10194808.14149  -7940050.27046  21977930.5984   21977927.4884
       -88.9374
 04  9  1 16 34  0.0040000  0  6G20G11G14G23G 1G25
  -3803180.64847  -2956233.84043  24326899.6844   24326896.5984
      1910.6284
  -7507066.06249  -5841433.17245  22580696.3484   22580692.2774
      -736.1294
  19227524.28948  14972966.88744  23690175.7854   23690172.8324
     -3501.1134
    -85414.56655    -59153.07852  25377994.3794   25377991.1174

  -8425281.53149  -6556853.48845  22598544.6444   22598542.7934
       626.1114
 -10193345.95349  -7938910.89846  21978208.6604   21978205.1484
       -97.4794
 04  9  1 16 34 15.0040000  0  6G20G11G14G23G 1G25
  -3831830.46847  -2978558.39842  24321448.0984   24321444.8124
      1909.9884
  -7495892.67249  -5832726.64845  22582822.1054   22582818.6994
      -744.8934
  19280059.18848  15013903.14844  23700173.0124   23700170.1994
     -3502.3274
   -114413.24245    -81749.41042  25372475.8634   25372473.0084
      1933.2454
  -8434606.44149  -6564119.64145  22596770.0594   22596768.2584
       621.6614
 -10191756.83649  -7937672.60546  21978511.1914   21978508.2384
      -105.9414
 04  9  1 16 34 30.0040000  0  6G20G11G14G23G 1G25
  -3860469.75847  -3000874.68443  24315998.0904   24315994.7304
      1909.2864
  -7484587.00849  -5823917.04745  22584973.4414   22584969.5984
      -753.7114
  19332612.93848  15054854.11344  23710173.4104   23710170.5984
     -3503.5834
   -143382.59045   -104322.90642  25366963.1684   25366960.3634
      1931.2904
  -8443863.86349  -6571333.20345  22595008.6604   22595006.8324
       617.1614
 -10190040.02749  -7936334.82846  21978837.7154   21978834.7194
      -114.4544
 04  9  1 16 34 45.0040000  0  6G20G11G14G23G 1G25
  -3889096.62947  -3023181.31642  24310550.3874   24310547.3404
      1908.4584
  -7473147.14549  -5815002.87545  22587150.5194   22587146.7274
      -762.6584
  19385187.18848  15095821.04343  23720178.3554   23720174.9964
     -3504.9504
   -172320.73446   -126872.11342  25361457.0124   25361452.7664
      1929.2104
  -8453051.96949  -6578492.75845  22593259.8634   22593257.9694
       612.5404
 -10188193.50449  -7934895.97346  21979188.8484   21979186.0474
      -123.1024
